[[{"header":{"parameterUnit":"m.s-1","parameterCategory":1,"la1":30.6,"la2":29.2853,"lo1":-89.7004,"lo2":-87.6739,"dy":0.0162,"dx":0.0183,"nx":112,"ny":82,"refTime":"2023-10-01T06:00:00:Z","depth":0,"parameterNumber":2,"parameterNumberName":"U-component_of_WINDS"},"data":[0.0,0.0,0.0,0.0,0.0,0.0,0.0,0.0,0.0,0.0,0.0,0.0,0.0,0.0,0.0,0.0,0.0,0.0,0.0,0.0,0.0,0.0,0.0,0.0,0.0,0.0,0.0,0.0,0.0,0.0,0.0,0.0,0.0,0.0,0.0,0.0,0.0,0.0,0.0,0.0,0.0,0.0,0.0,0.0,0.0,0.0,0.0,0.0,0.0,0.0,0.0,0.0,0.0,0.0,0.0,0.0,0.0,0.0,0.0,0.0,0.0,0.0,0.0,0.0,0.0,0.0,0.0,0.0,0.0,0.0,0.0,0.0,0.0,0.0,0.0,0.0,0.0,0.0,0.0,0.0,0.0,0.0,0.0,0.0,0.0,0.0,0.0,0.0,0.0,0.0,1.2332,1.227,1.1435,1.0549,0.9772,0.9717,0.9494,0.8914,0.0,0.0,0.0,0.0,0.0,0.0,0.0,0.0,0.0,0.0,0.0,0.0,0.0,0.0,0.0,0.0,0.0,0.0,0.0,0.0,0.0,0.0,0.0,0.0,0.0,0.0,0.0,0.0,0.0,0.0,0.0,0.0,0.0,0.0,0.0,0.0,0.0,0.0,0.0,0.0,0.0,0.0,0.0,0.0,0.0,0.0,0.0,0.0,0.0,0.0,0.0,0.0,0.0,0.0,0.0,0.0,0.0,0.0,0.0,0.0,0.0,0.0,0.0,0.0,0.0,0.0,0.0,0.0,0.0,0.0,0.0,0.0,0.0,0.0,0.0,0.0,0.0,0.0,0.0,0.0,0.0,0.0,0.0,0.0,0.0,0.0,0.0,0.0,0.0,0.0,0.0,0.0,0.0,0.0,0.0,0.0,0.0,0.0,0.0,0.0,0.0,0.0,0.0,0.0,1.2039,1.0479,0.9537,0.8959,0.8806,0.8895,0.9297,1.0077,0.0,0.0,0.0,0.0,0.0,0.0,0.0,0.0,0.0,0.0,0.0,0.0,0.0,0.0,0.0,0.0,0.0,0.0,0.0,0.0,0.0,0.0,0.0,0.0,0.0,0.0,0.0,0.0,0.0,0.0,0.0,0.0,0.0,0.0,0.0,0.0,0.0,0.0,0.0,0.0,0.0,0.0,0.0,0.0,0.0,0.0,0.0,0.0,0.0,0.0,0.0,0.0,0.0,0.0,0.0,0.0,0.0,0.0,0.0,0.0,0.0,0.0,0.0,0.0,0.0,0.0,0.0,0.0,0.0,0.0,0.0,0.0,0.0,0.0,0.0,0.0,0.0,0.0,0.0,0.0,0.0,0.0,0.0,0.0,0.0,0.0,0.0,0.0,0.0,0.0,0.0,0.0,0.0,0.0,0.0,0.0,0.0,0.0,0.0,0.0,0.0,0.0,0.0,1.3315,1.278,1.1017,1.0918,1.062,0.9718,0.9694,0.9944,1.0482,1.0158,0.0,0.0,0.0,0.0,0.0,0.0,0.0,0.0,0.0,0.0,0.0,0.0,0.0,0.0,0.0,0.0,0.0,0.0,0.0,0.0,0.0,0.0,0.0,0.0,0.0,0.0,0.0,0.0,0.0,0.0,0.0,0.0,0.0,0.0,0.0,0.0,0.0,0.0,0.0,0.0,0.0,0.0,0.0,0.0,0.0,0.0,0.0,0.0,0.0,0.0,0.0,0.0,0.0,0.0,0.0,0.0,0.0,0.0,0.0,0.0,0.0,0.0,0.0,0.0,0.0,0.0,0.0,0.0,0.0,0.0,0.0,0.0,0.0,0.0,0.0,0.0,0.0,0.0,0.0,0.0,0.0,0.0,0.0,0.0,0.0,0.0,0.0,0.0,0.0,0.0,0.0,0.0,0.0,0.0,0.0,0.0,0.0,0.0,0.0,0.0,0.0,0.0,1.3401,1.3315,1.1859,1.2148,1.1912,1.0639,1.0357,1.0473,1.1016,1.0991,0.0,0.0,0.0,0.0,0.0,0.0,0.0,0.0,0.0,0.0,0.0,0.0,0.0,0.0,0.0,0.0,0.0,0.0,0.0,0.0,0.0,0.0,0.0,0.0,0.0,0.0,0.0,0.0,0.0,0.0,0.0,0.0,0.0,0.0,0.0,0.0,0.0,0.0,0.0,0.0,0.0,0.0,0.0,0.0,0.0,0.0,0.0,0.0,0.0,0.0,0.0,0.0,0.0,0.0,0.0,0.0,0.0,0.0,0.0,0.0,0.0,0.0,0.0,0.0,0.0,0.0,0.0,0.0,0.0,0.0,0.0,0.0,0.0,0.0,0.0,0.0,0.0,0.0,0.0,0.0,0.0,0.0,0.0,0.0,0.0,0.0,0.0,0.0,0.0,0.0,0.0,0.0,0.0,0.0,0.0,0.0,0.0,0.0,0.0,0.0,0.0,0.0,1.3089,1.2854,1.2059,1.1258,1.0716,1.0597,0.9916,1.0302,1.225,1.1611,0.0,0.0,0.0,0.0,0.0,0.0,0.0,0.0,0.0,0.0,0.0,0.0,0.0,0.0,0.0,0.0,0.0,0.0,0.0,0.0,0.0,0.0,0.0,0.0,0.0,0.0,0.0,0.0,0.0,0.0,0.0,0.0,0.0,0.0,0.0,0.0,0.0,0.0,0.0,0.0,0.0,0.0,0.0,0.0,0.0,0.0,0.0,0.0,0.0,0.0,0.0,0.0,0.0,0.0,0.0,0.0,0.0,0.0,0.0,0.0,0.0,0.0,0.0,0.0,0.0,0.0,0.0,0.0,0.0,0.0,0.0,0.0,0.0,0.0,0.0,0.0,0.0,0.0,0.0,0.0,0.0,0.0,0.0,0.0,0.0,0.0,0.0,0.0,0.0,0.0,0.0,0.0,0.0,0.0,0.0,0.0,0.0,0.0,0.0,0.0,0.0,0.0,1.2801,1.2547,1.0585,1.0557,1.047,1.0031,0.9701,1.0411,1.2496,0.0,0.0,0.0,0.0,0.0,0.0,0.0,0.0,0.0,0.0,0.0,0.0,0.0,0.0,0.0,0.0,0.0,0.0,0.0,0.0,0.0,0.0,0.0,0.0,0.0,0.0,0.0,0.0,0.0,0.0,0.0,0.0,0.0,0.0,0.0,0.0,0.0,0.0,0.0,0.0,0.0,0.0,0.0,0.0,0.0,0.0,0.0,0.0,0.0,0.0,0.0,0.0,0.0,0.0,0.0,0.0,0.0,0.0,0.0,0.0,0.0,0.0,0.0,0.0,0.0,0.0,0.0,0.0,0.0,0.0,0.0,0.0,0.0,0.0,0.0,0.0,0.0,0.0,0.0,0.0,0.0,0.0,0.0,0.0,0.0,0.0,0.0,0.0,0.0,0.0,0.0,0.0,0.0,0.0,0.0,0.0,0.0,0.0,0.0,0.0,0.0,0.0,1.2062,1.2831,1.261,1.0228,1.051,1.0661,1.0149,0.9797,1.0502,1.2562,0.0,0.0,0.0,0.0,0.0,0.0,0.0,0.0,0.0,0.0,0.0,0.0,0.0,0.0,0.0,0.0,0.0,0.0,0.0,0.0,0.0,0.0,0.0,0.0,0.0,0.0,0.0,0.0,0.0,0.0,0.0,0.0,0.0,0.0,0.0,0.0,0.0,0.0,0.0,0.0,0.0,0.0,0.0,0.0,0.0,0.0,0.0,0.0,0.0,0.0,0.0,0.0,0.0,0.0,0.0,0.0,0.0,0.0,0.0,0.0,0.0,0.0,0.0,0.0,0.0,0.0,0.0,0.0,0.0,0.0,0.0,0.0,0.0,0.0,0.0,0.0,0.0,0.0,0.0,0.0,0.0,0.0,0.0,0.0,0.0,0.0,0.0,0.0,0.0,0.0,0.0,0.0,0.0,0.0,0.0,0.0,0.0,0.0,0.0,0.0,0.0,0.0,1.2538,1.3146,1.3119,1.137,1.1175,1.1175,1.1175,1.0207,1.0478,0.0,0.0,0.0,0.0,0.0,0.0,0.0,0.0,0.0,0.0,0.0,0.0,0.0,0.0,0.0,0.0,0.0,0.0,0.0,0.0,0.0,0.0,0.0,0.0,0.0,0.0,0.0,0.0,0.0,0.0,0.0,0.0,0.0,0.0,0.0,0.0,0.0,0.0,0.0,0.0,0.0,0.0,0.0,0.0,0.0,0.0,0.0,0.0,0.0,0.0,0.0,0.0,0.0,0.0,0.0,0.0,0.0,0.0,0.0,0.0,0.0,0.0,0.0,0.0,0.0,0.0,0.0,0.0,0.0,0.0,0.0,0.0,0.0,0.0,0.0,0.0,0.0,0.0,0.0,0.0,0.0,0.0,0.0,0.0,0.0,0.0,0.0,0.0,0.0,0.0,0.0,0.0,0.0,0.0,0.0,0.0,0.0,0.0,0.0,0.0,0.0,0.0,0.0,1.2465,1.2111,1.1492,1.0203,1.006,1.006,1.006,0.9772,1.0183,1.156,0.0,0.0,0.0,0.0,0.0,0.0,0.0,0.0,0.0,0.0,0.0,0.0,0.0,0.0,0.0,0.0,0.0,0.0,0.0,0.0,0.0,0.0,0.0,0.0,0.0,0.0,0.0,0.0,0.0,0.0,0.0,0.0,0.0,0.0,0.0,0.0,0.0,0.0,0.0,0.0,0.0,0.0,0.0,0.0,0.0,0.0,0.0,0.0,0.0,0.0,0.0,0.0,0.0,0.0,0.0,0.0,0.0,0.0,0.0,0.0,0.0,0.0,0.0,0.0,0.0,0.0,0.0,0.0,0.0,0.0,0.0,0.0,0.0,0.0,0.0,0.0,0.0,0.0,0.0,0.0,0.0,0.0,0.0,0.0,0.0,0.0,0.0,0.0,0.0,0.0,0.0,0.0,0.0,0.0,0.0,0.0,0.0,0.0,0.0,0.0,0.0,0.0,1.2588,1.1724,1.0788,0.9723,0.9603,0.9632,0.9726,0.973,1.0204,1.132,0.0,0.0,0.0,0.0,0.0,0.0,0.0,0.0,0.0,0.0,0.0,0.0,0.0,0.0,0.0,0.0,0.0,0.0,0.0,0.0,0.0,0.0,0.0,0.0,0.0,0.0,0.0,0.0,0.0,0.0,0.0,0.0,0.0,0.0,0.0,0.0,0.0,0.0,0.0,0.0,0.0,0.0,0.0,0.0,0.0,0.0,0.0,0.0,0.0,0.0,0.0,0.0,0.0,0.0,0.0,0.0,0.0,0.0,0.0,0.0,0.0,0.0,0.0,0.0,0.0,0.0,0.0,0.0,0.0,0.0,0.0,0.0,0.0,0.0,0.0,0.0,0.0,0.0,0.0,0.0,0.0,0.0,0.0,0.0,0.0,0.0,0.0,0.0,0.0,0.0,0.0,0.0,0.0,0.0,0.0,0.0,0.0,0.0,0.0,0.0,0.0,0.0,1.2829,1.1751,1.0717,0.9723,0.964,0.9742,0.9921,0.9934,1.0412,1.1488,0.0,0.0,0.0,0.0,0.0,0.0,0.0,0.0,0.0,0.0,0.0,0.0,0.0,0.0,0.0,0.0,0.0,0.0,0.0,0.0,0.0,0.0,0.0,0.0,0.0,0.0,0.0,0.0,0.0,0.0,0.0,0.0,0.0,0.0,0.0,0.0,0.0,0.0,0.0,0.0,0.0,0.0,0.0,0.0,0.0,0.0,0.0,0.0,0.0,0.0,0.0,0.0,0.0,0.0,0.0,0.0,0.0,0.0,0.0,0.0,1.189,1.1898,0.0,0.0,0.0,0.0,0.0,0.0,0.0,0.0,0.0,0.0,0.0,0.0,0.0,0.0,0.0,0.0,0.0,0.0,0.0,0.0,0.0,0.0,0.0,0.0,0.0,0.0,0.0,0.0,0.0,0.0,0.0,0.0,0.0,0.0,0.0,0.0,0.0,0.0,0.0,0.0,1.2727,1.1217,1.01,0.9856,0.9987,1.0088,1.0125,1.0129,1.0249,1.0494,1.0316,0.0,0.0,0.0,0.0,0.0,0.0,0.0,0.0,0.0,0.0,0.0,0.0,0.0,0.0,0.0,0.0,0.0,0.0,0.0,0.0,0.0,0.0,0.0,0.0,0.0,0.0,0.0,0.0,0.0,0.0,0.0,0.0,0.0,0.0,0.0,0.0,0.0,0.0,0.0,0.0,0.0,0.0,0.0,0.0,0.0,0.0,0.0,0.0,0.0,0.0,0.0,0.0,0.0,0.0,0.0,0.0,0.0,0.0,0.0,1.1651,1.199,0.0,0.0,0.0,0.0,0.0,0.0,0.0,0.0,0.0,0.0,0.0,0.0,0.0,0.0,0.0,0.0,0.0,0.0,0.0,0.0,0.0,0.0,0.0,0.0,0.0,0.0,0.0,0.0,0.0,0.0,0.0,0.0,0.0,0.0,0.0,0.0,0.0,0.0,0.0,0.0,1.2137,1.0884,1.0044,1.0044,1.0129,1.0223,1.0286,1.0294,1.0331,1.0439,1.0443,0.0,0.0,0.0,0.0,0.0,0.0,0.0,0.0,0.0,0.0,0.0,0.0,0.0,0.0,0.0,0.0,0.0,0.0,0.0,0.0,0.0,0.0,0.0,0.0,0.0,0.0,0.0,0.0,0.0,0.0,0.0,0.0,0.0,0.0,0.0,0.0,0.0,0.0,0.0,0.0,0.0,0.0,0.0,0.0,0.0,0.0,0.0,0.0,0.0,0.0,0.0,0.0,0.0,0.9823,0.9606,0.9828,0.9393,0.9359,0.9726,1.0995,1.156,1.1569,1.1615,0.0,0.0,0.0,0.0,0.0,0.0,0.0,0.0,0.0,0.0,0.0,0.0,0.0,0.0,0.0,0.0,0.0,0.0,0.0,0.0,0.0,0.0,1.1822,1.0799,1.0599,1.0692,1.0916,0.0,0.0,0.0,0.0,0.0,0.0,0.0,0.0,0.0,0.0,0.0,1.1568,1.0733,1.0235,1.0235,1.0263,1.0341,1.0442,1.0454,1.0515,1.0684,1.0692,1.0692,0.0,0.0,0.0,0.0,0.0,0.0,0.0,0.0,0.0,0.0,0.0,0.0,0.0,0.0,0.0,0.0,0.0,0.0,0.0,0.0,0.0,0.0,0.0,0.0,0.0,0.0,0.0,0.0,0.0,0.0,0.0,0.0,0.9948,0.9948,0.0,0.0,0.0,0.0,0.0,0.0,0.0,0.0,0.0,0.0,0.0,0.0,0.0,0.889,0.9358,0.9189,0.9125,0.9146,0.8753,0.8792,0.9215,0.9216,0.9437,0.9862,1.0075,0.0,1.0259,1.05,0.0,0.0,0.0,0.0,0.0,0.0,0.0,0.0,0.0,0.0,0.0,0.0,0.0,0.0,0.0,0.0,0.0,0.0,0.0,0.0,0.0,0.0,0.8483,0.843,0.8586,0.8758,0.8807,1.0243,1.1547,1.1571,1.2089,1.2483,0.0,0.0,0.0,0.0,0.0,0.0,1.1693,1.091,1.0373,1.0373,1.0534,1.0631,1.0655,1.066,1.0668,1.0688,1.0692,1.0692,1.0692,1.0692,0.0,0.0,0.0,0.0,0.0,0.0,0.0,0.0,0.0,0.0,0.0,0.0,0.0,0.0,0.0,0.0,0.0,0.0,0.0,0.0,0.0,0.0,0.0,0.0,0.0,0.0,0.0,0.0,0.0,0.8952,0.9156,0.9176,0.9241,0.9338,0.0,0.0,0.0,0.0,0.0,0.0,0.0,0.0,0.0,0.8114,0.8303,0.8521,0.8757,0.8734,0.8792,0.889,0.8297,0.8178,0.8462,0.8194,0.8192,0.8393,0.855,0.8614,0.873,0.9669,1.0208,1.0441,0.0,0.0,0.0,0.0,1.0823,1.0708,0.9908,0.9606,0.9606,0.9606,0.0,0.0,0.0,0.0,0.0,0.0,0.0,1.0564,0.9842,0.9468,0.9105,0.8448,0.8362,0.8465,0.8465,0.916,1.0025,1.0748,1.1271,1.1712,1.2201,1.2483,0.0,0.0,0.0,1.1138,1.0536,1.0223,1.0066,1.0066,1.0128,1.0198,1.0198,1.0198,1.0198,1.0198,1.0198,1.0198,1.0198,1.0198,0.9864,0.0,0.0,0.0,0.0,0.0,0.0,0.0,0.0,0.0,0.0,0.0,0.0,0.0,0.0,0.0,0.0,0.0,0.0,0.0,0.0,0.0,0.0,0.0,0.0,0.0,0.0,0.0,0.0,0.8294,0.8325,0.8661,0.8196,0.8165,0.0,0.0,0.0,0.0,0.0,0.0,0.7769,0.7936,0.7954,0.7801,0.7889,0.7943,0.7984,0.8089,0.8223,0.8364,0.7781,0.7596,0.7723,0.7354,0.7209,0.7209,0.7401,0.749,0.7543,0.8729,0.934,0.9503,0.9503,0.9643,0.9882,0.981,0.9786,0.9695,0.8984,0.8747,0.8747,0.8844,0.8868,0.8868,0.8868,0.0,0.0,0.0,0.0,1.073,0.9715,0.9681,0.9667,0.8715,0.8509,0.8509,0.8509,0.8561,0.8882,0.984,1.0272,1.0666,1.134,1.1566,0.0,1.0591,1.0643,1.0481,0.968,0.9711,0.9789,0.9789,0.9789,0.9789,0.9789,0.9789,0.9789,0.9789,0.9789,0.9651,0.934,0.934,0.8782,0.7556,0.0,0.0,0.0,0.0,0.0,0.0,0.0,0.0,0.0,0.0,0.0,0.0,0.0,0.0,0.0,0.0,0.0,0.0,0.0,0.0,0.0,0.0,0.0,0.0,0.0,0.0,0.0,0.0,0.0,0.9419,0.7804,0.0,0.0,0.0,0.0,0.6708,0.7274,0.731,0.661,0.719,0.7269,0.6691,0.67,0.676,0.6879,0.6884,0.6893,0.6898,0.699,0.7051,0.7062,0.7141,0.7191,0.7191,0.7221,0.7158,0.7075,0.7519,0.8311,0.9231,0.9231,0.9794,1.0535,0.9591,0.9231,0.9127,0.833,0.8046,0.8099,0.8412,0.8513,0.8513,0.8513,0.8546,0.0,0.0,0.8642,0.8652,0.8577,0.858,0.8587,0.8509,0.8509,0.8509,0.8509,0.8699,0.8788,0.8479,0.8747,0.8982,0.8904,0.0,0.9624,0.9563,0.9744,0.9856,0.9801,0.9781,0.9789,0.9789,0.9789,0.9789,0.9789,0.9789,0.9789,0.9789,0.9789,0.9285,0.814,0.8085,0.7529,0.6306,0.6304,0.0,0.0,0.0,0.0,0.0,0.0,0.0,0.0,0.0,0.0,0.0,0.0,0.0,0.0,0.0,0.0,0.0,0.0,0.0,0.0,0.0,0.0,0.0,0.0,0.0,0.0,0.0,0.0,0.7571,0.6599,0.0,0.7169,0.6462,0.6004,0.6128,0.5929,0.5731,0.5548,0.5766,0.5803,0.5581,0.6044,0.6346,0.6481,0.6912,0.7156,0.7263,0.7307,0.7328,0.7331,0.7369,0.7388,0.7388,0.7388,0.7366,0.7326,0.748,0.7572,0.7665,0.7665,0.7872,0.8154,0.7974,0.7924,0.7898,0.7776,0.7753,0.7802,0.8092,0.8167,0.822,0.843,0.8509,0.8509,0.8509,0.8554,0.8628,0.8628,0.8703,0.8747,0.8747,0.8747,0.8747,0.8747,0.8832,0.8845,0.871,0.8876,0.9046,0.9146,0.9137,0.918,0.9399,0.9312,0.9213,0.9213,0.9213,0.8933,0.8152,0.8066,0.7759,0.703,0.6972,0.6972,0.6972,0.6972,0.6778,0.6334,0.6334,0.575,0.4554,0.4526,0.4221,0.0,0.0,0.0,0.0,0.0,0.0,0.0,0.0,0.0,0.0,0.0,0.0,0.0,0.0,0.0,0.0,0.0,0.0,0.0,0.0,0.0,0.0,0.0,0.0,0.0,0.5677,0.5571,0.6519,0.5528,0.5136,0.6081,0.5381,0.4905,0.5054,0.4805,0.4716,0.4799,0.5046,0.5161,0.5161,0.5662,0.5967,0.6058,0.6498,0.6886,0.7166,0.7166,0.7282,0.7489,0.7489,0.7489,0.7489,0.7489,0.7489,0.7489,0.7489,0.7331,0.7043,0.7043,0.7043,0.707,0.7231,0.7313,0.7341,0.7644,0.7783,0.7892,0.8083,0.8134,0.8162,0.8407,0.8543,0.8621,0.8621,0.8777,0.8937,0.8937,0.9011,0.9058,0.9058,0.9058,0.9058,0.9058,0.9058,0.9058,0.9058,0.9061,0.9063,0.9196,0.9047,0.8964,0.9185,0.8724,0.8332,0.8332,0.798,0.7441,0.6647,0.6563,0.6249,0.551,0.5425,0.5425,0.5425,0.5425,0.5255,0.483,0.483,0.4265,0.3046,0.3018,0.2707,0.2111,0.0,0.0,0.0,0.0,0.0,0.0,0.0,0.0,0.0,0.0,0.0,0.0,0.0,0.0,0.0,0.0,0.0,0.0,0.0,0.0,0.0,0.0,0.0,0.6087,0.551,0.5278,0.6446,0.4659,0.3762,0.4945,0.406,0.3417,0.342,0.4011,0.4375,0.4377,0.5051,0.5455,0.5455,0.554,0.5586,0.5588,0.5588,0.5913,0.6471,0.6471,0.6825,0.7442,0.7471,0.7471,0.7471,0.75,0.75,0.75,0.75,0.75,0.7442,0.7492,0.7489,0.7489,0.7489,0.7489,0.7548,0.7866,0.816,0.8367,0.8399,0.8399,0.8399,0.8399,0.8629,0.8891,0.8891,0.9123,0.9381,0.9381,0.9381,0.9381,0.9381,0.9381,0.9381,0.941,0.9381,0.9352,0.9352,0.9034,0.8812,0.8843,0.884,0.8843,0.8812,0.7849,0.0,0.7155,0.6185,0.5487,0.5457,0.5457,0.5428,0.5399,0.5399,0.5399,0.5399,0.5399,0.4872,0.3703,0.3644,0.3089,0.1916,0.1886,0.1886,0.1916,0.0,0.0,0.0,0.0,0.0,0.0,0.0,0.0,0.0,0.0,0.0,0.0,0.0,0.0,0.0,0.0,0.0,0.0,0.0,0.0,0.0,0.332,0.3377,0.4011,0.3849,0.3814,0.4254,0.3757,0.3535,0.3898,0.3651,0.351,0.3598,0.3788,0.3903,0.395,0.4161,0.4268,0.4268,0.4695,0.497,0.5027,0.5445,0.5804,0.6077,0.6077,0.6168,0.6349,0.6835,0.7077,0.7107,0.759,0.7804,0.7804,0.7804,0.7228,0.6426,0.7201,0.7489,0.7489,0.7489,0.7489,0.7519,0.7606,0.7694,0.7781,0.8043,0.8099,0.816,0.8338,0.8457,0.8541,0.8541,0.86,0.8687,0.8687,0.8687,0.8745,0.8975,0.9033,0.9091,0.9352,0.8649,0.7945,0.7945,0.7132,0.6743,0.7666,0.7812,0.7493,0.657,0.6158,0.5971,0.5971,0.5704,0.5165,0.4288,0.42,0.385,0.2971,0.2883,0.2883,0.2883,0.2883,0.2737,0.2414,0.2385,0.2238,0.1916,0.1886,0.1886,0.0,0.0,0.0,0.0,0.0,0.0,0.0,0.0,0.0,0.0,0.0,0.0,0.0,0.0,0.0,0.0,0.0,0.0,0.0,0.0,0.0,0.0,0.3204,0.3261,0.3309,0.3316,0.3342,0.3439,0.3493,0.3537,0.357,0.3595,0.3669,0.374,0.3746,0.3761,0.3796,0.3824,0.3836,0.3836,0.419,0.4385,0.4452,0.4819,0.4945,0.489,0.489,0.4796,0.4669,0.5201,0.5419,0.5452,0.5983,0.6233,0.6233,0.6233,0.5767,0.5188,0.0,0.0,0.0,0.0,0.7665,0.7665,0.7665,0.7665,0.7695,0.7903,0.796,0.7992,0.8144,0.8295,0.8388,0.8388,0.8506,0.8622,0.8622,0.82,0.7809,0.8014,0.7625,0.7266,0.7474,0.6906,0.6398,0.6549,0.5954,0.0,0.5892,0.63,0.6363,0.5603,0.5077,0.4744,0.4744,0.4327,0.3778,0.306,0.3001,0.2702,0.2014,0.1954,0.0,0.0,0.0,0.1954,0.1954,0.1954,0.0,0.0,0.0,0.1954,0.1954,0.1361,0.0,0.0,0.1796,0.2053,0.0,0.0,0.0,0.0,0.0,0.0,0.0,0.0,0.0,0.0,0.0,0.0,0.0,0.0,0.0,0.0,0.297,0.3065,0.32,0.3215,0.3297,0.3489,0.3647,0.3659,0.3544,0.3591,0.3595,0.3483,0.3483,0.3486,0.3492,0.3546,0.0,0.0,0.0,0.3588,0.3665,0.3665,0.3497,0.3217,0.3217,0.3024,0.2701,0.3055,0.3217,0.3249,0.3634,0.3796,0.3796,0.3828,0.3796,0.3818,0.5155,0.5688,0.5812,0.7002,0.7459,0.7457,0.7444,0.0,0.0,0.7439,0.7439,0.7439,0.7439,0.7655,0.7905,0.7905,0.8119,0.833,0.833,0.7464,0.6569,0.6599,0.5712,0.4855,0.4885,0.4794,0.4765,0.5073,0.5012,0.4613,0.3722,0.4539,0.5279,0.5134,0.4185,0.3502,0.3502,0.2631,0.2008,0.2008,0.2008,0.0,0.2012,0.2012,0.2014,0.2017,0.2017,0.2017,0.2017,0.1862,0.1768,0.1768,0.1613,0.152,0.152,0.0283,-0.0348,-0.0316,0.0892,0.1429,0.0,0.0,0.0,0.0,0.0,0.0,0.0,0.0,0.0,0.0,0.0,0.0,0.0,0.0,0.0,0.1262,0.1269,0.1314,0.1388,0.1395,0.1964,0.3471,0.3736,0.3458,0.2635,0.2584,0.2277,0.1528,0.1469,0.1477,0.1526,0.1488,0.1469,0.1469,0.1491,0.1472,0.1508,0.1508,0.1478,0.1418,0.1418,0.0,0.1321,0.19,0.2189,0.2221,0.283,0.3087,0.3119,0.3377,0.3056,0.2509,0.3773,0.4274,0.4332,0.4593,0.4666,0.4689,0.4663,0.4673,0.4673,0.4673,0.4673,0.4673,0.4673,0.4705,0.0,0.4766,0.4828,0.4856,0.4856,0.4673,0.4548,0.4821,0.4698,0.4577,0.4855,0.4059,0.3324,0.3447,0.2588,0.1789,0.1604,0.3034,0.3873,0.2843,0.2484,0.2336,0.2336,0.2127,0.2008,0.2008,0.2008,0.1986,0.2008,0.201,0.2021,0.2078,0.2079,0.2079,0.2079,0.0926,0.0319,0.0319,-0.0798,-0.1373,-0.1373,-0.1665,-0.1795,-0.1795,-0.153,-0.1399,0.0,0.0,0.0,0.0,0.0,0.0,0.0,0.0,0.0,0.0,0.0,0.064,0.031,0.0,0.0297,0.0354,0.0388,0.0394,0.0401,0.0699,0.1232,0.2153,0.2299,0.2143,0.1637,0.1619,0.1455,0.0924,0.0894,0.09,0.0945,0.0921,0.0893,0.0893,0.0899,0.0906,0.0945,0.0945,0.0687,0.0198,0.0198,-0.0099,-0.0626,-0.0099,0.0165,0.0165,0.0691,0.0888,0.0921,0.1085,0.0856,0.0527,0.1151,0.2021,0.3022,0.3669,0.3913,0.391,0.3912,0.3902,0.3902,0.3902,0.3913,0.3889,0.3889,0.3899,0.3905,0.3905,0.3905,0.3905,0.3905,0.3415,0.2986,0.3169,0.2677,0.2247,0.2401,0.191,0.151,0.1695,0.1203,0.0805,0.0967,0.1809,0.2239,0.1607,0.1492,0.1561,0.1716,0.1759,0.183,0.202,0.2052,0.2057,0.204,0.2041,0.176,0.1031,0.0999,0.0677,-0.0032,-0.0773,-0.1158,-0.1158,-0.1835,-0.2189,-0.2189,-0.2918,-0.335,-0.3578,-0.4259,-0.3849,0.0,0.0,0.0,0.0,0.0,0.0,0.0,0.1442,0.1195,0.0304,0.0129,-0.0053,-0.0719,-0.0813,-0.0796,-0.0799,-0.0761,-0.0748,-0.0839,-0.0385,-0.006,-0.0119,0.051,0.0786,0.0454,0.0614,0.0591,0.0346,0.0316,0.0318,0.0322,0.0323,0.0324,0.0324,0.0292,0.0327,0.0364,0.0364,-0.0033,-0.0841,-0.0841,-0.1313,-0.2188,-0.1851,-0.1717,-0.1717,-0.1447,-0.1279,-0.1212,-0.1212,-0.1144,-0.1111,-0.1111,-0.0066,0.1525,0.2653,0.3038,0.3069,0.3125,0.3154,0.3154,0.3154,0.3128,0.3129,0.3151,0.3153,0.3151,0.3142,0.3139,0.3139,0.3139,0.2371,0.1603,0.1603,0.0771,0.0,0.0,0.0,0.0093,0.0341,0.0403,0.0499,0.0759,0.0793,0.0853,0.0967,0.1007,0.111,0.1362,0.1408,0.1515,0.1838,0.187,0.1775,0.1489,0.1558,0.0975,-0.052,-0.052,-0.1007,-0.2143,-0.2467,-0.2598,-0.2598,-0.2953,-0.3148,-0.3148,-0.4334,-0.5084,-0.5445,-0.6579,-0.587,0.292,0.2389,0.1846,0.185,0.1401,0.0783,0.0,-0.0051,-0.0492,-0.1711,-0.2092,-0.2393,-0.3022,-0.3176,-0.3228,-0.3277,-0.3296,-0.3336,-0.346,-0.3424,-0.3356,-0.3366,-0.0798,0.04,-0.1076,-0.0686,-0.0692,-0.1608,-0.1724,-0.177,-0.1773,-0.1763,-0.1775,-0.1775,-0.1831,-0.1844,-0.1847,-0.1847,-0.1882,-0.202,-0.202,-0.2087,-0.2188,-0.2155,-0.2121,-0.2121,-0.2087,-0.1885,-0.1548,-0.1548,-0.138,-0.1111,-0.1111,-0.0974,-0.0702,-0.0198,0.0,0.0033,0.0324,0.0452,0.0452,0.0452,0.0451,0.045,0.0444,0.0441,0.044,0.0434,0.0432,0.0432,0.0432,0.0339,0.0216,0.0216,0.0123,0.0,0.0,0.0,0.0,0.0063,0.0063,0.0063,0.0096,0.0097,0.0322,0.0899,0.0996,0.1029,0.1061,0.1063,0.1064,0.1128,0.1128,0.0615,-0.0623,-0.0398,-0.0836,-0.2306,-0.2071,-0.1938,-0.2104,-0.3376,-0.4079,-0.4079,-0.5649,-0.645,-0.645,-0.6931,-0.7171,-0.7207,-0.7386,-0.7278,0.2323,0.1761,0.1182,0.0702,0.0148,-0.0476,-0.124,-0.1465,-0.1797,-0.2798,-0.3071,-0.3317,-0.3957,-0.4131,-0.4188,-0.4217,-0.4289,-0.4363,-0.4479,-0.4158,-0.4205,-0.5019,-0.3245,-0.2247,-0.2936,-0.2763,-0.2793,-0.3296,-0.296,-0.2752,-0.2742,-0.2361,-0.2169,-0.2169,-0.2181,-0.2188,-0.2188,-0.2188,-0.2188,-0.2188,-0.2188,-0.2188,-0.2188,-0.2188,-0.2188,-0.2188,-0.2188,-0.2121,-0.1953,-0.1953,-0.1851,-0.175,-0.175,-0.175,-0.1682,-0.107,-0.0834,-0.0833,-0.0696,-0.0628,-0.0628,-0.0628,-0.0493,-0.0293,-0.0289,-0.0159,0.0,0.0,0.0,0.0,0.0,0.0,0.0,0.0,0.0,0.0,0.0,0.0,0.0,0.0,0.0,0.0,0.0,0.0,0.0098,0.0363,0.0427,0.049,0.0686,0.0724,0.0463,-0.0165,-0.0231,-0.0794,-0.2194,-0.2173,-0.2717,-0.4191,-0.4124,-0.4393,-0.5202,-0.5843,-0.6146,-0.6146,-0.692,-0.729,-0.729,-0.7426,-0.7627,-0.7858,-0.7858,-0.7958,0.137,0.0759,0.017,-0.0575,-0.1218,-0.1906,-0.2685,-0.2758,-0.2908,-0.3838,-0.3879,-0.3975,-0.4639,-0.4798,-0.4858,-0.4879,-0.5,-0.5098,-0.5152,-0.4761,-0.4857,-0.5888,-0.5219,-0.4699,-0.472,-0.4371,-0.4186,-0.431,-0.38,-0.3492,-0.3495,-0.3027,-0.2691,-0.249,-0.249,-0.2389,-0.2188,-0.2188,-0.2188,-0.2188,-0.2188,-0.2188,-0.2188,-0.2188,-0.2188,-0.2188,-0.2188,-0.2188,-0.2188,-0.2188,-0.2188,-0.2188,-0.2188,-0.2188,-0.2121,-0.1616,-0.1346,-0.1212,-0.1144,-0.1111,-0.1111,-0.1111,-0.0902,-0.0661,-0.0649,-0.048,-0.0285,-0.0279,-0.0278,-0.0247,-0.0154,-0.0123,-0.0124,-0.0031,0.0,0.0,0.0,0.0,0.0,0.0,0.0,0.0,0.0,0.0,0.0,0.0,-0.0334,-0.0364,0.0265,0.0033,-0.0672,-0.1847,-0.1981,-0.2551,-0.3956,-0.3989,-0.4558,-0.6036,-0.6036,-0.6443,-0.7459,-0.7493,-0.7493,-0.7493,-0.7593,-0.7658,-0.7658,-0.7758,-0.7958,-0.8223,-0.8223,-0.8356,0.0,-0.0733,-0.146,-0.2013,-0.2794,-0.3575,-0.4209,-0.3873,-0.3812,-0.5079,-0.4869,-0.4646,-0.5268,-0.5423,-0.5508,-0.5566,-0.5689,-0.5782,-0.587,-0.5899,-0.5955,-0.599,-0.6095,-0.6146,-0.6235,-0.5063,-0.4311,-0.4315,-0.4267,-0.4265,-0.4266,-0.4233,-0.3899,-0.3194,-0.3161,-0.2859,-0.2222,-0.2188,-0.2188,-0.2188,-0.2188,-0.2188,-0.2188,-0.2188,-0.2188,-0.2188,-0.2188,-0.2188,-0.2188,-0.2188,-0.2188,-0.2188,-0.2188,-0.2188,-0.2188,-0.2188,-0.1919,-0.1548,-0.1212,-0.1111,-0.1111,-0.1111,-0.1077,-0.1071,-0.1008,-0.0967,-0.0961,-0.0965,-0.0957,-0.0895,-0.0556,-0.0494,-0.0403,-0.0063,0.0,0.0,0.0,0.0,0.0,0.0,0.0,0.0,0.0,0.0,0.0,0.0,-0.1177,-0.1545,-0.0168,-0.1177,-0.2586,-0.406,-0.4194,-0.4763,-0.6174,-0.6005,-0.6439,-0.7922,-0.7658,-0.7459,-0.7493,-0.7493,-0.7493,-0.7493,-0.7891,-0.8092,-0.8092,-0.8423,-0.8587,-0.8587,-0.8587,-0.8587,-0.1329,-0.1988,-0.2658,-0.3461,-0.4158,-0.4705,-0.5009,-0.4917,-0.4871,-0.5318,-0.524,-0.5156,-0.5354,-0.55,-0.5579,-0.561,-0.5742,-0.5882,-0.5882,-0.5965,-0.6042,-0.6131,-0.6217,-0.6306,-0.6431,-0.5956,-0.5652,-0.5739,-0.5297,-0.5042,-0.5042,-0.457,-0.4201,-0.3932,-0.3932,-0.3598,-0.2859,-0.2859,-0.2625,-0.2188,-0.2188,-0.2188,-0.2188,-0.2188,-0.2188,-0.2188,-0.2188,-0.2188,-0.2188,-0.2188,-0.2188,-0.2188,-0.2188,-0.2188,-0.2188,-0.2188,-0.2121,-0.1986,-0.1885,-0.1818,-0.1818,-0.1818,-0.1649,-0.1442,-0.1415,-0.1202,-0.0996,-0.1008,-0.0996,-0.0959,-0.0875,-0.0846,-0.0818,-0.0734,-0.0513,-0.0322,-0.0326,-0.0164,0.0,0.0,0.0,0.0,0.0,0.0,-0.0303,-0.1244,-0.1782,-0.2285,-0.2787,-0.3255,-0.4093,-0.5534,-0.5704,-0.6272,-0.7748,-0.7748,-0.7915,-0.839,-0.8289,-0.8223,-0.8223,-0.8223,-0.8223,-0.8223,-0.8356,-0.842,-0.842,-0.8554,-0.8587,-0.8587,-0.8587,-0.8674,-0.2711,-0.3211,-0.3688,-0.4478,-0.4992,-0.5281,-0.5367,-0.5409,-0.5409,-0.5409,-0.5409,-0.5409,-0.5409,-0.5496,-0.5614,-0.5614,-0.5768,-0.5886,-0.5886,-0.5991,-0.6087,-0.6174,-0.629,-0.6421,-0.6483,-0.6763,-0.6784,-0.6516,-0.6051,-0.5783,-0.5783,-0.5344,-0.4973,-0.4705,-0.4705,-0.4336,-0.3596,-0.3596,-0.3362,-0.296,-0.296,-0.2826,-0.2558,-0.2558,-0.2423,-0.2188,-0.2188,-0.2188,-0.2188,-0.2188,-0.2188,-0.2188,-0.2188,-0.2188,-0.2188,-0.2188,-0.2188,-0.2188,-0.2188,-0.2188,-0.2188,-0.2188,-0.202,-0.1813,-0.1787,-0.1604,-0.1393,-0.1406,-0.1391,-0.1352,-0.1238,-0.1209,-0.1182,-0.1133,-0.091,-0.0718,-0.0728,-0.0432,-0.0166,-0.0168,-0.0067,0.0,0.0,-0.0404,-0.1412,-0.3358,-0.3627,-0.3994,-0.4932,-0.5064,-0.5601,-0.7045,-0.7178,-0.7581,-0.852,-0.8587,-0.8587,-0.8587,-0.8587,-0.8587,-0.8587,-0.8587,-0.8587,-0.8587,-0.8587,-0.8587,-0.8587,-0.8587,-0.8633,-0.8717,-0.8717,-0.8813,-0.4103,-0.434,-0.4559,-0.5085,-0.5316,-0.5409,-0.5409,-0.5409,-0.5409,-0.5409,-0.5409,-0.5409,-0.5465,-0.5549,-0.561,-0.5672,-0.5824,-0.5974,-0.5978,-0.6193,-0.634,-0.634,-0.6539,-0.6654,-0.6654,-0.7514,-0.7681,-0.6719,-0.6654,-0.6654,-0.6654,-0.6654,-0.6351,-0.5647,-0.5614,-0.5277,-0.4535,-0.4467,-0.4467,-0.4467,-0.4467,-0.4099,-0.3429,-0.3429,-0.306,-0.2457,-0.2457,-0.2457,-0.2457,-0.2457,-0.2389,-0.2322,-0.2323,-0.2256,-0.2188,-0.2188,-0.2188,-0.2188,-0.2188,-0.2188,-0.2188,-0.2188,-0.2188,-0.2183,-0.2121,-0.211,-0.2104,-0.2107,-0.2097,-0.2032,-0.171,-0.1614,-0.1555,-0.1216,-0.1155,-0.1126,-0.1141,-0.0808,-0.0538,-0.0538,-0.0303,-0.0135,-0.0135,-0.1345,-0.3258,-0.5973,-0.6475,-0.651,-0.651,-0.651,-0.7045,-0.8454,-0.8587,-0.8587,-0.8587,-0.8587,-0.8587,-0.8587,-0.8587,-0.8587,-0.8587,-0.8587,-0.859,-0.8598,-0.8598,-0.86,-0.8606,-0.8611,-0.8734,-0.8927,-0.8933,-0.9063,-0.4872,-0.4965,-0.5041,-0.5301,-0.5365,-0.5409,-0.5409,-0.5409,-0.5409,-0.5409,-0.5409,-0.5605,-0.6242,-0.5921,-0.5765,-0.6533,-0.6778,-0.6893,-0.6999,-0.7822,-0.8449,-0.8449,-0.8666,-0.8814,-0.8814,-0.9045,-0.9078,-0.8814,-0.8814,-0.8814,-0.8814,-0.8814,-0.8715,-0.8545,-0.8512,-0.821,-0.7505,-0.6965,-0.6696,-0.6696,-0.6696,-0.6594,-0.6394,-0.6394,-0.6293,-0.616,-0.616,-0.616,-0.6127,-0.5895,-0.5131,-0.4097,-0.3865,-0.3127,-0.2188,-0.2188,-0.2188,-0.2188,-0.2188,-0.2188,-0.2188,-0.2188,-0.2188,-0.2187,-0.2179,-0.2127,-0.2108,-0.21,-0.2114,-0.2069,-0.1994,-0.1966,-0.1973,-0.1935,-0.1707,-0.1474,-0.148,-0.1212,-0.0942,-0.0942,-0.1514,-0.2017,-0.2017,-0.3828,-0.5536,-0.6276,-0.7345,-0.8051,-0.8051,-0.8051,-0.8184,-0.8554,-0.8587,-0.8587,-0.8587,-0.8587,-0.8587,-0.8587,-0.8587,-0.8587,-0.8587,-0.8587,-0.863,-0.8757,-0.8757,-0.8769,-0.8824,-0.8916,-0.8992,-0.9054,-0.9138,-0.9345,-0.5179,-0.5246,-0.5316,-0.5369,-0.5409,-0.5409,-0.5409,-0.5687,-0.5965,-0.5965,-0.6267,-0.6682,-0.7179,-0.6937,-0.6883,-0.7518,-0.7729,-0.7851,-0.7997,-0.8699,-0.9185,-0.9185,-0.9451,-0.9613,-0.9613,-1.0041,-1.0306,-1.0306,-0.9875,-0.9613,-0.9613,-0.9613,-0.9613,-0.9613,-0.9613,-0.941,-0.9042,-0.8634,-0.8432,-0.8432,-0.8432,-0.8263,-0.7997,-0.7997,-0.7795,-0.7491,-0.7491,-0.7491,-0.7491,-0.7293,-0.6462,-0.5233,-0.4733,-0.3764,-0.2591,-0.2323,-0.2188,-0.2188,-0.2188,-0.2188,-0.2188,-0.2188,-0.2188,-0.2188,-0.2188,-0.2177,-0.2129,-0.2129,-0.215,-0.2141,-0.2158,-0.2129,-0.2167,-0.2184,-0.202,-0.1851,-0.1851,-0.1582,-0.1447,-0.1916,-0.3023,-0.4029,-0.4498,-0.5737,-0.6809,-0.7281,-0.8084,-0.8587,-0.8587,-0.8587,-0.8587,-0.8587,-0.8587,-0.8587,-0.8587,-0.8669,-0.8702,-0.8702,-0.8717,-0.8747,-0.8747,-0.8747,-0.878,-0.8848,-0.8851,-0.8876,-0.8998,-0.9065,-0.9179,-0.9372,-0.9435,-0.9593,-0.5207,-0.532,-0.5409,-0.5409,-0.5409,-0.5437,-0.5549,-0.6158,-0.674,-0.6851,-0.7482,-0.8029,-0.8168,-0.8183,-0.8253,-0.8506,-0.8674,-0.8811,-0.8945,-0.9327,-0.9577,-0.9596,-0.9824,-1.0022,-1.0008,-1.0869,-1.1398,-1.1398,-1.0538,-1.0008,-1.0008,-1.0008,-1.0008,-1.0008,-1.0008,-1.0008,-1.0008,-1.0008,-1.0008,-1.0008,-1.0008,-0.9709,-0.9172,-0.9172,-0.8801,-0.8189,-0.8189,-0.8189,-0.8189,-0.8156,-0.7462,-0.6402,-0.57,-0.4731,-0.3629,-0.306,-0.2691,-0.249,-0.249,-0.2357,-0.2188,-0.2188,-0.2188,-0.2188,-0.2188,-0.2188,-0.2188,-0.2188,-0.2188,-0.2188,-0.2188,-0.2188,-0.2188,-0.2188,-0.2357,-0.249,-0.249,-0.2355,-0.2522,-0.3458,-0.4762,-0.6032,-0.6973,-0.7207,-0.761,-0.852,-0.862,-0.8587,-0.8587,-0.8587,-0.8587,-0.8587,-0.86,-0.8611,-0.8611,-0.8757,-0.8828,-0.8828,-0.8859,-0.8916,-0.8916,-0.8916,-0.8924,-0.8941,-0.8941,-0.9008,-0.9147,-0.9163,-0.9372,-0.9731,-0.9747,-0.9826,-0.5312,-0.5369,-0.5409,-0.5409,-0.5409,-0.5575,-0.6297,-0.6604,-0.6904,-0.762,-0.7891,-0.8223,-0.8999,-0.8549,-0.8304,-0.9157,-0.9508,-0.969,-0.9783,-1.0776,-1.1569,-1.1747,-1.1938,-1.2113,-1.2223,-1.2404,-1.2536,-1.2536,-1.2338,-1.2239,-1.2239,-1.2239,-1.2239,-1.2239,-1.2239,-1.2239,-1.2239,-1.2239,-1.2239,-1.2239,-1.2239,-1.2169,-1.207,-1.207,-1.2,-1.1897,-1.1897,-1.1897,-1.1864,-1.1567,-1.0664,-0.9395,-0.8964,-0.7762,-0.6331,-0.6197,-0.5232,-0.3932,-0.3932,-0.3162,-0.2188,-0.2188,-0.2188,-0.2188,-0.2188,-0.2188,-0.2188,-0.2188,-0.2188,-0.2188,-0.2188,-0.2188,-0.2188,-0.2188,-0.3095,-0.3932,-0.3932,-0.4798,-0.5631,-0.5798,-0.6769,-0.7607,-0.781,-0.8346,-0.8814,-0.8984,-0.8784,-0.8587,-0.8587,-0.8587,-0.8587,-0.8587,-0.871,-0.8773,-0.8773,-0.8851,-0.8884,-0.8884,-0.8906,-0.8916,-0.8916,-0.8916,-0.8965,-0.9065,-0.9068,-0.9174,-0.9427,-0.9527,-0.9658,-0.9772,-0.9913,-0.9981,-0.5333,-0.5409,-0.5521,-0.5965,-0.6077,-0.6297,-0.7179,-0.7684,-0.8093,-0.8627,-0.8996,-0.9405,-0.9982,-0.9719,-0.9608,-1.0197,-1.0446,-1.0614,-1.0757,-1.1467,-1.2066,-1.2284,-1.249,-1.2633,-1.2787,-1.2803,-1.2803,-1.2803,-1.2803,-1.2803,-1.2803,-1.2803,-1.2803,-1.2803,-1.2803,-1.2803,-1.2803,-1.2803,-1.2803,-1.2803,-1.2803,-1.2803,-1.2803,-1.2803,-1.2803,-1.2803,-1.2803,-1.2803,-1.2803,-1.2638,-1.1835,-1.0661,-1.0128,-0.9063,-0.78,-0.7396,-0.6596,-0.57,-0.57,-0.5133,-0.4398,-0.4398,-0.3395,-0.2323,-0.3061,-0.3295,-0.3295,-0.3295,-0.383,-0.4398,-0.4398,-0.4398,-0.4398,-0.4398,-0.4899,-0.5401,-0.5401,-0.6535,-0.7536,-0.7536,-0.854,-0.9347,-0.9183,-0.9452,-0.9622,-0.9422,-0.9086,-0.8853,-0.8853,-0.8775,-0.8716,-0.8716,-0.877,-0.883,-0.8859,-0.8943,-0.9011,-0.9011,-0.9068,-0.91,-0.91,-0.91,-0.9128,-0.9187,-0.9187,-0.9343,-0.9619,-0.9679,-0.9761,-0.9897,-0.9953,-0.998,-0.5829,-0.5947,-0.6128,-0.6793,-0.6944,-0.7172,-0.8045,-0.8649,-0.9156,-0.9528,-1.0035,-1.0462,-1.066,-1.0692,-1.0741,-1.0915,-1.1086,-1.1273,-1.1419,-1.1748,-1.2044,-1.2227,-1.2402,-1.258,-1.2726,-1.2779,-1.2803,-1.2803,-1.2803,-1.2803,-1.2803,-1.2803,-1.2803,-1.2803,-1.2803,-1.2803,-1.2803,-1.2803,-1.2803,-1.2803,-1.2803,-1.2803,-1.2803,-1.2803,-1.2803,-1.2803,-1.2803,-1.2803,-1.2803,-1.2803,-1.2301,-1.1497,-1.0962,-1.0197,-0.9338,-0.8729,-0.8125,-0.7562,-0.7562,-0.7096,-0.6564,-0.6867,-0.5232,-0.3294,-0.4399,-0.4734,-0.4734,-0.4734,-0.5533,-0.64,-0.64,-0.64,-0.6464,-0.68,-0.6867,-0.6967,-0.7267,-0.8238,-0.9042,-0.9042,-0.9948,-1.0621,-1.0356,-1.0256,-1.0127,-0.9861,-0.9489,-0.9228,-0.9255,-0.9047,-0.8927,-0.898,-0.8916,-0.8886,-0.8949,-0.9065,-0.9136,-0.9136,-0.9256,-0.9304,-0.9304,-0.9304,-0.9304,-0.9304,-0.9304,-0.9413,-0.9668,-0.9668,-0.975,-0.9943,-0.9957,-0.996,-0.7334,-0.767,-0.7781,-0.7864,-0.778,-0.794,-0.8804,-0.8897,-0.912,-1.0099,-1.0364,-1.0462,-1.066,-1.0692,-1.07,-1.0716,-1.1001,-1.1199,-1.1215,-1.1565,-1.1861,-1.2001,-1.2219,-1.2398,-1.2604,-1.2739,-1.2803,-1.2803,-1.2803,-1.2803,-1.2803,-1.2803,-1.2803,-1.2803,-1.2803,-1.2803,-1.2803,-1.2803,-1.2803,-1.2803,-1.2803,-1.2803,-1.2803,-1.2803,-1.2803,-1.2803,-1.2803,-1.2803,-1.2803,-1.2803,-1.2737,-1.2638,-1.2601,-1.2305,-1.1942,-1.1872,-1.08,-0.9362,-0.9362,-0.8294,-0.7162,-0.8432,-0.7567,-0.6032,-0.6166,-0.6199,-0.6199,-0.6199,-0.6299,-0.64,-0.64,-0.64,-0.6733,-0.8071,-0.8407,-0.8742,-1.0014,-1.0419,-1.0518,-1.0518,-1.0621,-1.0688,-1.0654,-1.0389,-1.019,-1.016,-0.9861,-0.9701,-0.982,-0.9508,-0.9334,-0.9604,-0.9277,-0.9071,-0.9082,-0.9223,-0.9288,-0.9288,-0.9299,-0.9304,-0.9304,-0.9304,-0.9304,-0.9304,-0.9304,-0.937,-0.9503,-0.9503,-0.9625,-0.9813,-0.975,-0.9756,-0.7519,-0.7671,-0.7818,-0.8354,-0.8445,-0.8643,-0.955,-0.96,-0.9635,-1.0265,-1.0347,-1.0382,-1.0639,-1.0692,-1.0692,-1.0692,-1.0903,-1.1106,-1.1179,-1.1447,-1.1715,-1.1965,-1.2194,-1.2377,-1.258,-1.2731,-1.2803,-1.2803,-1.2803,-1.2803,-1.2803,-1.2803,-1.2803,-1.2803,-1.2803,-1.2803,-1.2803,-1.2803,-1.2803,-1.2803,-1.2803,-1.2803,-1.2803,-1.2803,-1.2803,-1.2803,-1.2803,-1.2803,-1.2803,-1.2803,-1.2803,-1.2803,-1.2803,-1.2704,-1.2605,-1.2605,-1.2004,-1.1237,-1.1237,-1.0469,-0.9603,-1.0174,-0.9742,-0.8839,-0.7971,-0.7736,-0.7736,-0.7736,-0.8338,-0.8975,-0.8975,-0.8975,-0.9144,-0.9712,-0.9881,-1.0014,-1.0585,-1.0688,-1.0688,-1.0688,-1.0688,-1.0688,-1.0688,-1.0588,-1.0518,-1.0608,-1.0352,-1.0161,-1.03,-1.0084,-0.9934,-1.0042,-0.9488,-0.9128,-0.9231,-0.9277,-0.9304,-0.9304,-0.9304,-0.9304,-0.9304,-0.9304,-0.9304,-0.9304,-0.9304,-0.9364,-0.9487,-0.9487,-0.9574,-0.9737,-0.9728,-0.9731,-0.8105,-0.8357,-0.8626,-0.9104,-0.928,-0.9505,-1.0001,-0.9966,-0.9912,-1.0278,-1.028,-1.0296,-1.0654,-1.0692,-1.0692,-1.0692,-1.0874,-1.1057,-1.1171,-1.1382,-1.1614,-1.1918,-1.2162,-1.2353,-1.2507,-1.2698,-1.2803,-1.2803,-1.2803,-1.2803,-1.2803,-1.2803,-1.2803,-1.2803,-1.2803,-1.2803,-1.2803,-1.2803,-1.2803,-1.2803,-1.2803,-1.2803,-1.2803,-1.2803,-1.2803,-1.2803,-1.2803,-1.2803,-1.2803,-1.2803,-1.2803,-1.2803,-1.2803,-1.2803,-1.2803,-1.2803,-1.2638,-1.2441,-1.2441,-1.1978,-1.138,-1.138,-1.1085,-1.0518,-0.951,-0.9211,-0.9211,-0.9211,-0.9948,-1.0688,-1.0688,-1.0688,-1.0688,-1.0688,-1.0688,-1.0688,-1.0688,-1.0688,-1.0688,-1.0688,-1.0688,-1.0688,-1.0688,-1.0725,-1.0789,-1.0897,-1.0741,-1.068,-1.0828,-1.0623,-1.0455,-1.0499,-0.9897,-0.9501,-0.9477,-0.9377,-0.9304,-0.9304,-0.9304,-0.9304,-0.9304,-0.9304,-0.9304,-0.9304,-0.9304,-0.9345,-0.9432,-0.9432,-0.9495,-0.9652,-0.9616,-0.96,-0.9612,-1.0352,-1.0755,-1.029,-1.0441,-1.0534,-1.0015,-0.9754,-0.9709,-1.0117,-1.019,-1.0296,-1.0654,-1.0692,-1.0692,-1.0692,-1.0874,-1.1057,-1.1171,-1.1382,-1.1569,-1.1786,-1.2089,-1.2308,-1.2308,-1.2597,-1.2803,-1.2803,-1.2803,-1.2803,-1.2803,-1.2803,-1.2803,-1.2803,-1.2803,-1.2803,-1.2803,-1.2803,-1.2803,-1.2803,-1.2803,-1.2803,-1.2803,-1.2803,-1.2803,-1.2803,-1.2803,-1.2803,-1.2803,-1.2803,-1.2803,-1.2803,-1.2803,-1.2803,-1.2803,-1.2803,-1.2803,-1.2803,-1.2803,-1.2375,-1.178,-1.178,-1.1317,-1.0688,-1.0688,-1.0688,-1.0688,-1.0688,-1.0688,-1.0688,-1.0688,-1.0688,-1.0688,-1.0688,-1.0688,-1.0688,-1.0688,-1.0688,-1.0688,-1.0688,-1.0688,-1.0688,-1.0688,-1.0813,-1.0914,-1.0914,-1.107,-1.1251,-1.1369,-1.1036,-1.0847,-1.0992,-1.0675,-1.0308,-0.9915,-0.9518,-0.9304,-0.9304,-0.9304,-0.9304,-0.9304,-0.9304,-0.9304,-0.9304,-0.9304,-0.9304,-0.9304,-0.9304,-0.937,-0.9487,-0.9364,-0.9307,-0.9482,-0.978,-0.997,-0.982,-1.0154,-1.0356,-0.9809,-0.9937,-1.0149,-1.019,-1.0186,-1.0296,-1.0654,-1.0692,-1.0692,-1.0692,-1.0741,-1.0883,-1.1151,-1.1244,-1.1427,-1.177,-1.2089,-1.2402,-1.2613,-1.2738,-1.2803,-1.2803,-1.2803,-1.2803,-1.2803,-1.2803,-1.2803,-1.2803,-1.2803,-1.2803,-1.2803,-1.2803,-1.2803,-1.2803,-1.2803,-1.2803,-1.2803,-1.2803,-1.2803,-1.2803,-1.2803,-1.2803,-1.2803,-1.2803,-1.2803,-1.2803,-1.2803,-1.2803,-1.2803,-1.2803,-1.2803,-1.2803,-1.2803,-1.2507,-1.2111,-1.1879,-1.1449,-1.0982,-1.0754,-1.0688,-1.0688,-1.0688,-1.0688,-1.0688,-1.0688,-1.0688,-1.0688,-1.0688,-1.0688,-1.0688,-1.0688,-1.0688,-1.0688,-1.0688,-1.0688,-1.0688,-1.0688,-1.0813,-1.0948,-1.108,-1.1257,-1.1372,-1.1528,-1.1441,-1.1351,-1.1397,-1.1077,-1.0714,-1.0347,-1.0203,-0.9987,-0.9735,-0.9699,-0.959,-0.9304,-0.9304,-0.9304,-0.9304,-0.9304,-0.9304,-0.9304,-0.9304,-0.9323,-0.9359,-0.9321,-0.9348,-0.9431,-0.9656,-0.985,-0.9653,-0.9994,-1.0265,-0.9727,-0.985,-1.0124,-1.019,-1.0186,-1.0296,-1.0654,-1.0692,-1.0692,-1.0692,-1.0692,-1.0818,-1.1143,-1.1195,-1.1411,-1.1918,-1.217,-1.2414,-1.2771,-1.2803,-1.2803,-1.2803,-1.2803,-1.2803,-1.2803,-1.2803,-1.2803,-1.2803,-1.2803,-1.2803,-1.2803,-1.2803,-1.2803,-1.2803,-1.2803,-1.2803,-1.2803,-1.2803,-1.2803,-1.2803,-1.2803,-1.2803,0.0,-1.2803,-1.2803,-1.2803,-1.2803,-1.2803,-1.2803,-1.2803,-1.2803,-1.2803,-1.2803,-1.2572,-1.2276,-1.2045,-1.1644,-1.1148,-1.0787,-1.0688,-1.0688,-1.0688,-1.0688,-1.0688,-1.0688,-1.0688,-1.0688,-1.0688,-1.0688,-1.0688,-1.0688,-1.0688,-1.0688,-1.0688,-1.0688,-1.0688,-1.0688,-1.0857,-1.106,-1.1183,-1.1376,-1.1511,-1.1606,-1.1584,-1.1584,-1.1584,-1.1368,-1.1149,-1.0926,-1.0671,-1.0383,-1.0131,-1.0131,-0.9951,-0.9554,-0.9663,-0.9627,-0.9304,-0.9449,-0.9446,-0.9304,-0.9304,-0.9304,-0.9304,-0.9351,-0.9413,0.0,-0.9915,-1.029,-0.9772,-1.0019,-1.0265,-0.9776,-0.9661,0.0,-1.0117,-1.0198,-1.0312,-1.0627,-1.0692,-1.0692,-1.0692,-1.0692,-1.0818,-1.1143,-1.1215,-1.152,-1.2223,-1.2308,-1.2414,-1.2771,-1.2803,-1.2803,-1.2803,-1.2803,-1.2803,-1.2803,-1.2803,-1.2803,-1.2803,-1.2803,-1.2803,-1.2803,-1.2803,-1.2803,-1.2803,-1.2803,-1.2803,-1.2803,-1.2803,-1.2803,-1.2803,-1.2803,-1.2803,-1.2803,-1.2803,-1.2803,-1.2803,-1.2803,-1.2803,-1.2803,-1.2803,-1.2803,-1.2803,-1.2803,-1.2605,-1.2342,-1.2309,-1.1813,-1.1185,-1.0853,-1.0721,-1.0688,-1.0688,-1.0688,-1.0688,-1.0688,-1.0688,-1.0688,-1.0688,-1.0688,-1.0688,-1.0688,-1.0688,-1.0688,-1.0688,-1.0688,-1.0688,-1.0688,-1.0965,-1.1196,-1.1196,-1.1423,-1.1584,-1.1584,-1.1584,-1.1584,-1.1584,-1.1584,-1.1584,-1.1584,-1.0966,-1.0563,-1.0527,-1.0527,-1.0347,-0.9951,-1.0311,-1.0167,-0.941,-0.9735,-0.9699,-0.9341,-0.9313,-0.9315,-0.9318,-0.9443,-0.954,-0.9633,0.0,-1.0364,-1.024,-1.0314,-1.0364,0.0,-1.0332,-1.0408,-1.0219,-1.0274,-1.0409,-1.0651,-1.0692,-1.0692,-1.0692,-1.0692,-1.0818,-1.1143,-1.1468,-1.1809,-1.2255,-1.2308,-1.2414,-1.2771,-1.2803,-1.2803,-1.2803,-1.2803,-1.2803,-1.2803,-1.2803,-1.2803,-1.2803,-1.2803,-1.2803,-1.2803,-1.2803,-1.2803,-1.2803,-1.2803,-1.2803,-1.2803,-1.2803,-1.2803,-1.2803,-1.2803,-1.2803,-1.2803,-1.2803,-1.2803,-1.2803,-1.2803,-1.2803,-1.2803,-1.2803,-1.2803,-1.2803,-1.2803,-1.2737,-1.2638,-1.2375,-1.2011,-1.1582,-1.1214,-1.0886,-1.0688,-1.0688,-1.0688,-1.0688,-1.0688,-1.0688,-1.0688,-1.0688,-1.0688,-1.0688,-1.0688,-1.0688,-1.0688,-1.0688,-1.0688,-1.0688,-1.0688,-1.0965,-1.1196,-1.1196,-1.1423,-1.1584,-1.1584,-1.1584,-1.1584,-1.1584,-1.1584,-1.1584,-1.1584,-1.1436,-1.1221,-1.0897,-1.0897,-1.0714,-1.0383,-1.0455,-1.0416,-1.0203,-1.0023,-0.9843,-0.9774,-0.9543,-0.9443,-0.9449,-0.9608,-0.9862,-0.9833,-1.0118,-1.0339,-1.0093,-1.0216,-1.0413,-1.0413,-1.0362,-1.0378,-1.0509,-1.0672,-1.0803,-1.0714,-1.0939,-1.1021,-1.0747,-1.0793,-1.0944,-1.1297,-1.1593,-1.1906,-1.2264,-1.2308,-1.2414,-1.2771,-1.2803,-1.2803,-1.2803,-1.2803,-1.2803,-1.2803,-1.2803,-1.2803,-1.2803,-1.2803,-1.2803,-1.2803,-1.2803,-1.2803,-1.2803,-1.2803,-1.2803,-1.2803,-1.2803,-1.2803,-1.2803,-1.2803,-1.2803,-1.2803,-1.2803,-1.2803,-1.2803,-1.2803,-1.2803,-1.2803,-1.2803,-1.2803,-1.2803,-1.2803,-1.2803,-1.2737,-1.2408,-1.2177,-1.1945,-1.138,-1.1085,-1.0886,-1.0754,-1.0688,-1.0688,-1.0688,-1.0688,-1.0688,-1.0688,-1.0688,-1.0688,-1.0688,-1.0688,-1.0688,-1.0688,-1.0688,-1.0688,-1.0688,-1.0965,-1.1196,-1.1196,-1.1423,-1.1584,-1.1584,-1.1584,-1.1584,-1.1584,-1.1584,-1.1584,-1.1584,-1.1584,-1.1512,-1.1296,-1.1296,-1.1113,-1.075,-1.0894,-1.093,-1.0714,-1.035,-1.0197,-1.0259,-1.0111,-1.0067,-1.0168,-1.0298,-1.0507,-1.0129,-1.026,-1.0413,-0.9945,-1.0117,-1.0413,-1.0413,-1.0229,-1.0199,-1.0694,-1.1001,-1.1097,-1.0773,-1.1131,-1.1295,-1.0774,-1.0899,-1.1151,-1.1451,-1.1658,-1.1906,-1.2264,-1.2308,-1.2414,-1.2771,-1.2803,-1.2803,-1.2803,-1.2803,-1.2803,-1.2803,-1.2803,-1.2803,-1.2803,-1.2803,-1.2803,-1.2803,-1.2803,-1.2803,-1.2803,-1.2803,-1.2803,-1.2803,-1.2803,-1.2803,-1.2803,-1.2803,-1.2803,-1.2803,-1.2803,-1.2803,-1.2803,-1.2803,-1.2803,-1.2803,-1.2803,-1.2803,-1.2803,-1.2803,-1.2803,-1.2737,-1.2474,-1.2375,-1.2243,-1.1578,-1.138,-1.1284,-1.0883,-1.0754,-1.0688,-1.0688,-1.0688,-1.0688,-1.0688,-1.0688,-1.0688,-1.0688,-1.0688,-1.0688,-1.0688,-1.0688,-1.0688,-1.0688,-1.0965,-1.1196,-1.1196,-1.1423,-1.1584,-1.1584,-1.1584,-1.1584,-1.1584,-1.1584,-1.1584,-1.1584,-1.1584,-1.1584,-1.1584,-1.1584,-1.144,-1.1116,-1.1404,-1.144,-1.1116,-1.0768,-1.0689,-1.0807,-1.0777,-1.0819,-1.0939,-1.1074,-1.1177,-1.0655,-1.0869,-1.1051,-1.0973,-1.0679,-1.0413,-1.0413,-1.0584,-1.0664,-1.036,-1.0584,-1.0769,-1.0715,-1.0774,-1.0802,-1.0719,-1.0968,-1.1256,-1.1468,-1.1658,-1.1906,-1.2264,-1.2308,-1.2414,-1.2771,-1.2803,-1.2803,-1.2803,-1.2803,-1.2803,-1.2803,-1.2803,-1.2803,-1.2803,-1.2803,-1.2803,-1.2803,-1.2803,-1.2803,-1.2803,-1.2803,-1.2803,-1.2803,-1.2803,-1.2803,-1.2803,-1.2803,-1.2803,-1.2803,-1.2803,-1.2803,-1.2803,-1.2803,-1.2803,-1.2803,-1.2803,-1.2803,-1.2803,-1.2803,-1.2803,-1.2803,-1.2737,-1.2704,-1.2638,-1.2243,-1.2144,-1.1978,-1.1314,-1.092,-1.0688,-1.0688,-1.0688,-1.0688,-1.0688,-1.0688,-1.0688,-1.0688,-1.0688,-1.0688,-1.0688,-1.0688,-1.0688,-1.0688,-1.0965,-1.1196,-1.1196,-1.1423,-1.1584,-1.1584,-1.1584,-1.1584,-1.1584,-1.1584,-1.1584,-1.1584,-1.1584,-1.1584,-1.1584,-1.1584,-1.1584,-1.1512,-1.1584,-1.1584,-1.1512,-1.1302,-1.1188,-1.121,-1.1083,-1.1059,-1.108,-1.1212,-1.1467,-1.0872,-1.1009,-1.1194,-1.1194,-1.0998,-1.0858,-1.0972,-1.0939,-1.0858,-1.076,-1.0971,-1.1185,-1.1185,-1.1185,-1.1139,-1.1004,-1.12,-1.1439,-1.1622,-1.1801,-1.2012,-1.2276,-1.2389,-1.2548,-1.2779,-1.2803,-1.2803,-1.2803,-1.2803,-1.2803,-1.2803,-1.2803,-1.2803,-1.2803,-1.2803,-1.2803,-1.2803,-1.2803,-1.2803,-1.2803,-1.2803,-1.2803,-1.2803,-1.2803,-1.2803,-1.2803,-1.2803,-1.2803,-1.2803,-1.2803,-1.2803,-1.2803,-1.2803,-1.2803,-1.2803,-1.2803,-1.2803,-1.2803,-1.2803,-1.2803,-1.2803,-1.2803,-1.2803,-1.2737,-1.2408,-1.2309,-1.2144,-1.1413,-1.1082,-1.0916,-1.0754,-1.0688,-1.0688,-1.0688,-1.0688,-1.0688,-1.0688,-1.0688,-1.0688,-1.0688,-1.0688,-1.0688,-1.0688,-1.0965,-1.1196,-1.1196,-1.1423,-1.1584,-1.1584,-1.1584,-1.1584,-1.1584,-1.1584,-1.1584,-1.1584,-1.1584,-1.1584,-1.1584,-1.1584,-1.1584,-1.1584,-1.1584,-1.1617,-1.1695,-1.1617,-1.1656,-1.1856,-1.1769,-1.1794,-1.1869,-1.193,-1.2037,-1.1215,-1.1192,-1.1218,-1.1365,-1.1292,-1.125,-1.1438,-1.1462,-1.1375,-1.1239,-1.1567,-1.1782,-1.1459,-1.1443,-1.1498,-1.1597,-1.1812,-1.2031,-1.2225,-1.2643,-1.2894,-1.2748,-1.2929,-1.2985,-1.282,-1.2803,-1.2803,-1.2803,-1.2803,-1.2803,-1.2803,-1.2803,-1.2803,-1.2803,-1.2803,-1.2803,-1.2803,-1.2803,-1.2803,-1.2803,-1.2803,-1.2803,-1.2803,-1.2803,-1.2803,-1.2803,-1.2803,-1.2803,-1.2803,-1.2803,-1.2803,-1.2803,-1.2803,-1.2803,-1.2803,-1.2803,-1.2803,-1.2803,-1.2803,-1.2803,-1.2803,-1.2803,-1.2803,-1.2737,-1.2507,-1.2408,-1.2276,-1.1644,-1.1413,-1.1251,-1.082,-1.0688,-1.0688,-1.0688,-1.0688,-1.0688,-1.0688,-1.0688,-1.0688,-1.0688,-1.0688,-1.0688,-1.0688,-1.0965,-1.1196,-1.1196,-1.1423,-1.1584,-1.1584,-1.1584,-1.1584,-1.1584,-1.1584,-1.1584,-1.1584,-1.1584,-1.1584,-1.1584,-1.1584,-1.1584,-1.1584,-1.1614,-1.1685,-1.1793,-1.1864,-1.2054,-1.2291,-1.2325,-1.2396,-1.2501,-1.2501,-1.2501,-1.1935,-1.1575,-1.1316,-1.181,-1.1565,-1.1246,-1.1449,-1.2237,-1.2642,-1.1517,-1.2061,-1.2309,-1.1017,-1.0918,-1.1428,-1.2662,-1.3081,-1.332,-1.3522,-1.4811,-1.5304,-1.4193,-1.4305,-1.4033,-1.2914,-1.2803,-1.2803,-1.2803,-1.2803,-1.2803,-1.2803,-1.2803,-1.2803,-1.2803,-1.2803,-1.2803,-1.2803,-1.2803,-1.2803,-1.2803,-1.2803,-1.2803,-1.2803,-1.2803,-1.2803,-1.2803,-1.2803,-1.2803,-1.2803,-1.2803,-1.2803,-1.2803,-1.2803,-1.2803,-1.2803,-1.2803,-1.2803,-1.2803,-1.2803,-1.2803,-1.2803,-1.2803,-1.2803,-1.2803,-1.277,-1.277,-1.2704,-1.2309,-1.2011,-1.1582,-1.0886,-1.0688,-1.0688,-1.0688,-1.0688,-1.0688,-1.0688,-1.0688,-1.0688,-1.0688,-1.0688,-1.0688,-1.0688,-1.0965,-1.1196,-1.1196,-1.1423,-1.1584,-1.1584,-1.1584,-1.1584,-1.1584,-1.1584,-1.1584,-1.1584,-1.1584,-1.1584,-1.1584,-1.1584,-1.1584,-1.1584,-1.1709,-1.1783,-1.1793,-1.2111,-1.2267,-1.2291,-1.2423,-1.2491,-1.2501,-1.2501,-1.2501,-1.1652,-1.1834,-1.217,-1.2038,-1.1683,-1.1619,-1.2532,-1.3568,-1.4088,-1.3214,-1.3515,-1.3813,-1.3434,-1.3674,-1.4043,-1.4372,-1.4609,-1.4794,-1.4877,-1.4867,-1.4721,-1.4243,-1.376,-1.3306,-1.2828,-1.2803,-1.2803,-1.2803,-1.2803,-1.2803,-1.2803,-1.2803,-1.2803,-1.2803,-1.2803,-1.2803,-1.2803,-1.2803,-1.2803,-1.2803,-1.2803,-1.2803,-1.2803,-1.2803,-1.2803,-1.2803,-1.2803,-1.2803,-1.2803,-1.2803,-1.2803,-1.2803,-1.2803,-1.2803,-1.2803,-1.2803,-1.2803,-1.2803,-1.2803,-1.2803,-1.2803,-1.2803,-1.2803,-1.2803,-1.2803,-1.2803,-1.2737,-1.2375,-1.2045,-1.1681,-1.1148,-1.0853,-1.0688,-1.0688,-1.0688,-1.0688,-1.0688,-1.0688,-1.0688,-1.0688,-1.0688,-1.0718,-1.0813,-1.1029,-1.123,-1.1325,-1.1484,-1.1584,-1.1584,-1.1584,-1.1584,-1.1584,-1.1584,-1.1584,-1.1584,-1.1584,-1.1657,-1.1709,-1.1715,-1.1715,-1.1715,-1.1894,-1.202,-1.2115,-1.223,-1.2335,-1.2423,-1.2474,-1.2501,-1.2501,-1.2501,-1.2501,-1.2176,-1.2578,-1.3134,-1.3116,-1.2998,-1.324,-1.4404,-1.482,-1.4934,-1.4704,-1.4789,-1.4977,-1.5344,-1.5596,-1.5761,-1.5845,-1.6028,-1.619,-1.619,-1.615,-1.5954,-1.5525,-1.4652,-1.3936,-1.3518,-1.3062,-1.2803,-1.2803,-1.2803,-1.2803,-1.2803,-1.2803,-1.2803,-1.2803,-1.2803,-1.2803,-1.2803,-1.2803,-1.2803,-1.2803,-1.2803,-1.2803,-1.2803,-1.2803,-1.2803,-1.2803,-1.2803,-1.2803,-1.2803,-1.2803,-1.2803,-1.2803,-1.2803,-1.2803,-1.2803,-1.2803,-1.2803,-1.2803,-1.2803,-1.2803,-1.2803,-1.2803,-1.2803,-1.2803,-1.2803,-1.2803,-1.2737,-1.2375,-1.2045,-1.1714,-1.1314,-1.0953,-1.0688,-1.0688,-1.0688,-1.0688,-1.0688,-1.0688,-1.0688,-1.0688,-1.0725,-1.0792,-1.0897,-1.1107,-1.1305,-1.1375,-1.1521,-1.1584,-1.1584,-1.1584,-1.1584,-1.1584,-1.1584,-1.1584,-1.1584,-1.1624,-1.1692,-1.179,-1.1884,-1.1955,-1.1904,-1.2054,-1.222,-1.2288,-1.2335,-1.2406,-1.2501,-1.2501,-1.2501,-1.2501,-1.2501,-1.2501,-1.3837,-1.3902,-1.4159,-1.5224,-1.5736,-1.6194,-1.7023,-1.5936,-1.496,-1.5754,-1.571,-1.5695,-1.6226,-1.6065,-1.6092,-1.6884,-1.7309,-1.7513,-1.7513,-1.9065,-1.9674,-1.8349,-1.7481,-1.6457,-1.507,-1.3645,-1.2836,-1.2836,-1.2803,-1.2803,-1.2803,-1.2803,-1.2803,-1.2803,-1.2803,-1.2803,-1.2803,-1.2803,-1.2803,-1.2803,-1.2803,-1.2803,-1.2803,-1.2803,-1.2803,-1.2803,-1.2803,-1.2803,-1.2803,-1.2803,-1.2803,-1.2803,-1.2803,-1.2803,-1.2803,-1.2803,-1.2803,-1.2803,-1.2803,-1.2803,-1.2803,-1.2803,-1.2803,-1.2803,-1.2803,-1.2803,-1.2737,-1.2375,-1.2045,-1.1714,-1.1314,-1.0953,-1.0688,-1.0688,-1.0688,-1.0688,-1.0688,-1.0688,-1.0688,-1.0688,-1.0809,-1.0914,-1.0917,-1.1196,-1.1392,-1.1392,-1.1521,-1.1584,-1.1584,-1.1584,-1.1584,-1.1584,-1.1584,-1.1584,-1.1584,-1.1712,-1.1797,-1.1797,-1.2121,-1.2223,-1.2108,-1.221,-1.2291,-1.2291,-1.243,-1.2501,-1.2501,-1.2501,-1.2501,-1.2501,-1.2501,-1.2501,-1.3421,-1.404,-1.4875,-1.537,-1.5395,-1.5771,-1.7617,-1.7664,-1.7436,-1.7896,-1.7794,-1.7837,-1.8634,-1.8518,-1.8417,-1.866,-1.8771,-1.8829,-1.8829,-1.8601,-1.8379,-1.8233,-1.7266,-1.6573,-1.6377,-1.5103,-1.4296,-1.4296,-1.3354,-1.2803,-1.2803,-1.2803,-1.2803,-1.2803,-1.2803,-1.2803,-1.2803,-1.2803,-1.2803,-1.2803,-1.2803,-1.2803,-1.2803,-1.2803,-1.2803,-1.2803,-1.2803,-1.2803,-1.2803,-1.2803,-1.2803,-1.2803,-1.2803,-1.2803,-1.2803,-1.2803,-1.2803,-1.2803,-1.2803,-1.2803,-1.2803,-1.2803,-1.2803,-1.2803,-1.2803,-1.2803,-1.2737,-1.2375,-1.2045,-1.1714,-1.1314,-1.0953,-1.0688,-1.0688,-1.0688,-1.0688,-1.0688,-1.0688,-1.0688,-1.0688,-1.0809,-1.0948,-1.1084,-1.126,-1.1426,-1.1535,-1.1553,-1.1584,-1.1584,-1.1584,-1.1584,-1.1584,-1.1584,-1.1624,-1.1722,-1.1769,-1.1884,-1.2138,-1.224,-1.2271,-1.2227,-1.2362,-1.2437,-1.2437,-1.2481,-1.2501,-1.2501,-1.2501,-1.2501,-1.2501,-1.2501,-1.2501,-1.4418,-1.5151,-1.6114,-1.65,-1.6472,-1.6744,-1.8247,-1.8667,-1.8802,-1.9015,-1.9023,-1.9125,-1.9556,-1.9608,-1.9524,-1.9426,-1.9395,-1.9395,-1.9395,-1.8893,-1.8654,-1.8966,-1.8015,-1.7446,-1.7757,-1.6559,-1.5494,-1.494,-1.41,-1.3387,-1.2836,-1.2803,-1.2803,-1.2803,-1.2803,-1.2803,-1.2803,-1.2803,-1.2803,-1.2803,-1.2803,-1.2803,-1.2803,-1.2803,-1.2803,-1.2803,-1.2803,-1.2803,-1.2803,-1.2803,-1.2803,-1.2803,-1.2803,-1.2803,-1.2803,-1.2803,-1.2803,-1.2803,-1.2803,-1.2803,-1.2803,-1.2803,-1.2803,-1.2803,-1.2803,-1.2803,-1.2737,-1.2375,-1.2045,-1.1714,-1.1314,-1.0953,-1.0688,-1.0688,-1.0688,-1.0688,-1.0688,-1.0688,-1.0704,-1.0765,-1.0897,-1.108,-1.1261,-1.1382,-1.1511,-1.1606,-1.1584,-1.1584,-1.1584,-1.1584,-1.1584,-1.1584,-1.1634,-1.1702,-1.1786,-1.1905,-1.2091,-1.2277,-1.2342,-1.2376,-1.2376,-1.2457,-1.2501,-1.2501,-1.2501,-1.2501,-1.2501,-1.2501,-1.2501,-1.2501,-1.2501,-1.2501,-1.619,-1.6805,-1.7589,-1.8152,-1.8401,-1.8562,-1.8857,-1.9145,-1.9332,-1.9313,-1.9552,-1.9693,-1.9491,-1.9631,-1.97,-1.9453,-1.9395,-1.9395,-1.9395,-1.9622,-1.9867,-2.013,-1.9303,-1.8843,-1.9135,-1.7944,-1.6565,-1.5201,-1.4973,-1.4296,-1.2869,-1.2803,-1.2803,-1.2803,-1.2803,-1.2803,-1.2803,-1.2803,-1.2803,-1.2803,-1.2803,-1.2803,-1.2803,-1.2803,-1.2803,-1.2803,-1.2803,-1.2803,-1.2803,-1.2803,-1.2803,-1.2803,-1.2803,-1.2803,-1.2803,-1.2803,-1.2803,-1.2803,-1.2803,-1.2803,-1.2803,-1.2803,-1.2803,-1.2803,-1.2803,-1.2803,-1.2737,-1.2375,-1.2078,-1.1747,-1.1314,-1.0986,-1.0754,-1.0721,-1.0688,-1.0688,-1.0688,-1.0698,-1.0748,-1.0887,-1.1073,-1.1261,-1.1365,-1.1518,-1.1584,-1.1584,-1.1584,-1.1584,-1.1584,-1.1584,-1.1587,-1.1636,-1.1715,-1.1803,-1.1834,-1.2128,-1.2294,-1.2308,-1.243,-1.2501,-1.2501,-1.2501,-1.2501,-1.2501,-1.2501,-1.2501,-1.2501,-1.2501,-1.2501,-1.2501,-1.2501,-1.2501,-1.619,-1.6942,-1.78,-1.8201,-1.872,-1.9139,-1.9212,-1.945,-1.9641,-1.941,-1.9448,-1.9521,-1.9674,-1.9768,-1.97,-1.9453,-1.9395,-1.9395,-1.9395,-1.9448,-1.9602,-1.986,-1.9677,-1.9757,-2.0273,-1.908,-1.7767,-1.6641,-1.5521,-1.4296,-1.2869,-1.2803,-1.2803,-1.2803,-1.2803,-1.2803,-1.2803,-1.2803,-1.2803,-1.2803,-1.2803,-1.2803,-1.2803,-1.2803,-1.2803,-1.2803,-1.2803,-1.2803,-1.2803,-1.2803,-1.2803,-1.2803,-1.2803,-1.2803,-1.2803,-1.2803,-1.2803,-1.2803,-1.2803,-1.2803,-1.2803,-1.2803,-1.2803,-1.2803,-1.2803,-1.2803,-1.2737,-1.2375,-1.2243,-1.2045,-1.138,-1.1148,-1.1016,-1.0754,-1.0688,-1.0688,-1.0688,-1.0782,-1.0877,-1.0873,-1.1162,-1.1352,-1.1385,-1.1518,-1.1584,-1.1584,-1.1584,-1.1584,-1.1584,-1.1584,-1.1624,-1.1736,-1.1776,-1.1928,-1.2169,-1.225,-1.2338,-1.2447,-1.2484,-1.2501,-1.2501,-1.2501,-1.2501,-1.2501,-1.2501,-1.2501,-1.2501,-1.2501,-1.2501,-1.2501,-1.2501,-1.2501,-1.6739,-1.7366,-1.8167,-1.865,-1.9049,-1.9305,-1.9305,-1.9554,-1.975,-1.9626,-1.9728,-1.9864,-2.0014,-1.9902,-1.97,-1.9453,-1.9395,-1.9395,-1.9395,-1.9395,-1.9502,-1.9766,-1.98,-2.0034,-2.0652,-1.9437,-1.8153,-1.7087,-1.5684,-1.4296,-1.2869,-1.2803,-1.2803,-1.2803,-1.2803,-1.2803,-1.2803,-1.2803,-1.2803,-1.2803,-1.2803,-1.2803,-1.2803,-1.2803,-1.2803,-1.2803,-1.2803,-1.2803,-1.2803,-1.2803,-1.2803,-1.2803,-1.2803,-1.2803,-1.2803,-1.2803,-1.2803,-1.2803,-1.2803,-1.2803,-1.2803,-1.2803,-1.2803,-1.2803,-1.2803,-1.2803,-1.277,-1.2605,-1.2309,-1.1978,-1.1578,-1.1218,-1.092,-1.0754,-1.0688,-1.0708,-1.0779,-1.086,-1.0958,-1.1097,-1.1284,-1.1413,-1.1487,-1.1565,-1.1584,-1.1584,-1.1584,-1.1607,-1.1675,-1.1685,-1.1779,-1.1925,-1.2006,-1.2115,-1.2277,-1.2352,-1.2423,-1.2498,-1.2501,-1.2501,-1.2501,-1.2501,-1.2501,-1.2501,-1.2501,-1.2501,-1.2501,-1.2501,-1.2501,-1.2501,-1.2501,-1.2501,-1.7302,-1.7777,-1.846,-1.9137,-1.9305,-1.9305,-1.9305,-1.9598,-1.9869,-1.9866,-2.0092,-2.0295,-2.0221,-1.9989,-1.97,-1.9453,-1.9395,-1.9395,-1.9395,-1.9395,-1.9488,-1.9693,-1.9726,-1.9933,-2.0505,-1.9311,-1.8083,-1.6995,-1.5664,-1.4296,-1.2869,-1.2803,-1.2803,-1.2803,-1.2803,-1.2803,-1.2803,-1.2803,-1.2803,-1.2803,-1.2803,-1.2803,-1.2803,-1.2803,-1.2803,-1.2803,-1.2803,-1.2803,-1.2803,-1.2803,-1.2803,-1.2803,-1.2803,-1.2803,-1.2803,-1.2803,-1.2803,-1.2803,-1.2803,-1.2803,-1.2803,-1.2803,-1.2803,-1.2803,-1.2803,-1.2803,-1.2803,-1.2803,-1.2408,-1.1945,-1.1846,-1.135,-1.086,-1.0751,-1.0725,-1.0762,-1.0887,-1.0955,-1.1063,-1.1345,-1.1413,-1.147,-1.1563,-1.1584,-1.1584,-1.1584,-1.1584,-1.1634,-1.1776,-1.1793,-1.1901,-1.2121,-1.2213,-1.2301,-1.2325,-1.2433,-1.2501,-1.2501,-1.2501,-1.2501,-1.2501,-1.2501,-1.2501,-1.2501,-1.2501,-1.2501,-1.2501,-1.2501,-1.2501,-1.2501,-1.2501,-1.2501,-1.7302,-1.7777,-1.846,-1.9137,-1.9305,-1.9305,-1.9305,-1.974,-2.0159,-2.0148,-2.0224,-2.021,-1.9934,-1.9844,-1.97,-1.9453,-1.9395,-1.9395,-1.9395,-1.9395,-1.9408,-1.9448,-1.9455,-1.9582,-1.9887,-1.891,-1.7789,-1.6651,-1.5547,-1.4296,-1.2869,-1.2803,-1.2803,-1.2803,-1.2803,-1.2803,-1.2803,-1.2803,-1.2803,-1.2803,-1.2803,-1.2803,-1.2803,-1.2803,-1.2803,-1.2803,-1.2803,-1.2803,-1.2803,-1.2803,-1.2803,-1.2803,-1.2803,-1.2803,-1.2803,-1.2803,-1.2803,-1.2803,-1.2803,-1.2803,-1.2803,-1.2803,-1.2803,-1.2803,-1.2803,-1.2803,-1.2803,-1.2803,-1.2737,-1.2539,-1.1945,-1.1747,-1.1519,-1.0988,-1.0884,-1.089,-1.0911,-1.1117,-1.1345,-1.1385,-1.1497,-1.1596,-1.1616,-1.1584,-1.1584,-1.1584,-1.1584,-1.1634,-1.1776,-1.1793,-1.1905,-1.223,-1.2277,-1.2338,-1.2464,-1.2491,-1.2501,-1.2501,-1.2501,-1.2501,-1.2501,-1.2501,-1.2501,-1.2501,-1.2501,-1.2501,-1.2501,-1.2501,-1.2501,-1.2501,-1.2501,-1.2501,-1.7748,-1.8086,-1.846,-1.9137,-1.9305,-1.9305,-1.9305,-1.9769,-2.021,-2.021,-2.0354,-2.0423,-2.0134,-1.9931,-1.97,-1.9453,-1.9395,-1.9395,-1.9395,-1.9395,-1.9395,-1.9395,-1.9395,-1.9515,-1.9773,-1.8131,-1.6869,-1.654,-1.4794,-1.3453,-1.2836,-1.2803,-1.2803,-1.2803,-1.2803,-1.2803,-1.2803,-1.2803,-1.2803,-1.2803,-1.2803,-1.2803,-1.2803,-1.2803,-1.2803,-1.2803,-1.2803,-1.2803,-1.2803,-1.2803,-1.2803,-1.2803,-1.2803,-1.2803,-1.2803,-1.2803,-1.2803,-1.2803,-1.2803,-1.2803,-1.2803,-1.2803,-1.2803,-1.2803,-1.2803,-1.2803,-1.2803,-1.2803,-1.2671,-1.2408,-1.1945,-1.1718,-1.1505,-1.1036,-1.1043,-1.1196,-1.1196,-1.1301,-1.1416,-1.1501,-1.1572,-1.1584,-1.1584,-1.1584,-1.1584,-1.1584,-1.1651,-1.1756,-1.1942,-1.2033,-1.2169,-1.2386,-1.241,-1.2433,-1.2494,-1.2501,-1.2501,-1.2501,-1.2501,-1.2501,-1.2501,-1.2501,-1.2501,-1.2501,-1.2501,-1.2501,-1.2501,-1.2501,-1.2501,-1.2501,-1.2501,-1.2501,-1.8145,-1.8364,-1.8562,-1.9159,-1.9305,-1.9305,-1.9305,-1.9711,-2.0108,-2.0196,-2.0397,-2.0544,-2.0429,-2.0068,-1.97,-1.9453,-1.9395,-1.9395,-1.9395,-1.9395,-1.9395,-1.9395,-1.9395,-1.9481,-1.9673,-1.7478,-1.6125,-1.6391,-1.4138,-1.2755,-1.2803,-1.2803,-1.2803,-1.2803,-1.2803,-1.2803,-1.2803,-1.2803,-1.2803,-1.2803,-1.2803,-1.2803,-1.2803,-1.2803,-1.2803,-1.2803,-1.2803,-1.2803,-1.2803,-1.2803,-1.2803,-1.2803,-1.2803,-1.2803,-1.2803,-1.2803,-1.2803,-1.2803,-1.2803,-1.2803,-1.2803,-1.2803,-1.2803,-1.2803,-1.2803,-1.2803,-1.2803,-1.2803,-1.2605,-1.2349,-1.1965,-1.1736,-1.1545,-1.1111,-1.1229,-1.1402,-1.144,-1.145,-1.1484,-1.1596,-1.1584,-1.1584,-1.1584,-1.1584,-1.1597,-1.1667,-1.1729,-1.1864,-1.2132,-1.2258,-1.2345,-1.2484,-1.2501,-1.2501,-1.2501,-1.2501,-1.2501,-1.2501,-1.2501,-1.2501,-1.2501,-1.2501,-1.2501,-1.2501,-1.2501,-1.2501,-1.2501,-1.2501,-1.2501,-1.2501,-1.2501,-1.2501,-1.8211,-1.8525,-1.8873,-1.9217,-1.9305,-1.9305,-1.9305,-1.9569,-1.9898,-2.0144,-2.0266,-2.0394,-2.0637,-2.0206,-1.97,-1.9453,-1.9395,-1.9395,-1.9395,-1.9395,-1.9395,-1.9395,-1.9395,-1.9401,-1.9421,-1.7232,-1.5905,-1.612,-1.3929,-1.2653,-1.2795,-1.2803,-1.2803,-1.2803,-1.2803,-1.2803,-1.2803,-1.2803,-1.2803,-1.2803,-1.2803,-1.2803,-1.2803,-1.2803,-1.2803,-1.2803,-1.2803,-1.2803,-1.2803,-1.2803,-1.2803,-1.2803,-1.2803,-1.2803,-1.2803,-1.2803,-1.2803,-1.2803,-1.2803,-1.2803,-1.2803,-1.2803,-1.2803,-1.2803,-1.2803,-1.2803,-1.2803,-1.2803,-1.2803,-1.2645,-1.2142,-1.1992,-1.187,-1.1475,-1.1382,-1.143,-1.1575,-1.1606,-1.1573,-1.1616,-1.1584,-1.1584,-1.1584,-1.1584,-1.1627,-1.1763,-1.179,-1.1901,-1.224,-1.2284,-1.2345,-1.2484,-1.2501,-1.2501,-1.2501,-1.2501,-1.2501,-1.2501,-1.2501,-1.2501,-1.2501,-1.2501,-1.2501,-1.2501,-1.2501,-1.2501,-1.2501,-1.2501,-1.2501,-1.2501,-1.2501,-1.2501,-1.8162,-1.854,-1.8895,-1.9224,-1.9305,-1.9305,-1.9305,-1.9554,-1.9884,-2.0144,-2.0252,-2.0379,-2.0666,-2.0378,-2.0018,-1.9707,-1.9649,-1.9591,-1.9424,-1.9395,-1.9395,-1.9395,-1.9395,-1.9395,-1.9395,-1.7214,-1.5883,-1.6067,-1.3943,-1.2678,-1.2795,-1.2803,-1.2803,-1.2803,-1.2803,-1.2803,-1.2803,-1.2803,-1.2803,-1.2803,-1.2803,-1.2803,-1.2803,-1.2803,-1.2803,-1.2803,-1.2803,-1.2803,-1.2803,-1.2803,-1.2803,-1.2803,-1.2803,-1.2803,-1.2803,-1.2803,-1.2803,-1.2803,-1.2803,-1.2803,-1.2803,-1.2803,-1.2803,-1.2803,-1.2803,-1.2803,-1.2803,-1.2803,-1.2884,-1.2915,-1.2479,-1.235,-1.219,-1.1668,-1.1538,-1.1552,-1.1606,-1.1584,-1.1584,-1.1584,-1.1584,-1.1584,-1.1584,-1.1658,-1.1736,-1.1786,-1.1999,-1.2166,-1.2277,-1.2369,-1.2444,-1.2494,-1.2501,-1.2501,-1.2501,-1.2501,-1.2501,-1.2501,-1.2501,-1.2501,-1.2501,-1.2501,-1.2501,-1.2501,-1.2501,-1.2501,-1.2501,-1.2501,-1.2501,-1.2501,-1.2501,-1.2501,-1.823,-1.8625,-1.9027,-1.9246,-1.9305,-1.9305,-1.9305,-1.9466,-1.9715,-2.0011,-2.0175,-2.0355,-2.0657,-2.0666,-2.0421,-1.9902,-1.9815,-1.9707,-1.9453,-1.9395,-1.9395,-1.9395,-1.9395,-1.9395,-1.9395,-1.7558,-1.6279,-1.6006,-1.4216,-1.303,-1.2735,-1.2771,-1.2803,-1.2803,-1.2803,-1.2803,-1.2803,-1.2803,-1.2803,-1.2803,-1.2803,-1.2803,-1.2803,-1.2803,-1.2803,-1.2803,-1.2803,-1.2803,-1.2803,-1.2803,-1.2803,-1.2803,-1.2803,-1.2803,-1.2803,-1.2803,-1.2803,-1.2803,-1.2803,-1.2803,-1.2803,-1.2803,-1.2803,-1.2803,-1.2803,-1.2803,-1.2803,-1.2803,-1.2929,-1.3041,-1.2729,-1.2524,-1.2275,-1.1739,-1.1584,-1.1584,-1.1584,-1.1584,-1.1584,-1.1584,-1.1584,-1.1584,-1.1584,-1.1702,-1.181,-1.1901,-1.2125,-1.2308,-1.2355,-1.2444,-1.2501,-1.2501,-1.2501,-1.2501,-1.2501,-1.2501,-1.2501,-1.2501,-1.2501,-1.2501,-1.2501,-1.2501,-1.2501,-1.2501,-1.2501,-1.2501,-1.2501,-1.2501,-1.2501,-1.2501,-1.2501,-1.2501,0.0,0.0,0.0,-1.9305,-1.9305,-1.9305,-1.9305,-1.9305,-1.9393,-1.9723,-2.0003,-2.027,-2.0634,-2.0955,-2.0881,-1.9953,-1.9815,-1.9729,-1.9453,-1.9395,-1.9395,-1.9395,-1.9395,-1.9395,-1.9395,-1.8256,-1.7026,-1.5887,-1.4806,-1.3717,-1.2653,-1.2739,-1.2803,-1.2803,-1.2803,-1.2803,-1.2803,-1.2803,-1.2803,-1.2803,-1.2803,-1.2803,-1.2803,-1.2803,-1.2803,-1.2803,-1.2803,-1.2803,-1.2803,-1.2803,-1.2803,-1.2803,-1.2803,-1.2803,-1.2803,-1.2803,-1.2803,-1.2803,-1.2803,-1.2803,-1.2803,-1.2803,-1.2803,-1.2803,-1.2803,-1.2803,-1.2803,-1.2811,-1.2937,-1.3043,-1.2852,-1.2522,-1.2122,-1.1691,-1.1584,-1.1584,-1.1584,-1.1584,-1.1584,-1.1584,-1.1584,-1.1584,-1.1626,-1.1705,-1.1891,-1.2084,-1.2237,-1.2345,-1.2484,-1.2501,-1.2501,-1.2501,-1.2501,-1.2501,-1.2501,-1.2501,-1.2501,-1.2501,-1.2501,-1.2501,-1.2501,-1.2501,-1.2501,-1.2501,-1.2501,-1.2501,-1.2501,-1.2501,-1.2501,-1.2501,-1.2501,-1.2501,-1.8343,0.0,0.0,0.0,0.0,0.0,-1.9305,-1.9305,-1.9393,-1.9723,-1.9674,-1.9791,-2.0562,-2.0618,-2.0522,-2.0458,-2.0299,-2.004,-1.9729,-1.9511,-1.9395,-1.9395,-1.9395,-1.9395,-1.9395,-1.8256,-1.7026,-1.5887,-1.4806,-1.3717,-1.2653,-1.2739,-1.2803,-1.2803,-1.2803,-1.2803,-1.2803,-1.2803,-1.2803,-1.2803,-1.2803,-1.2803,-1.2803,-1.2803,-1.2803,-1.2803,-1.2803,-1.2803,-1.2803,-1.2803,-1.2803,-1.2803,-1.2803,-1.2803,-1.2803,-1.2803,-1.2803,-1.2803,-1.2803,-1.2803,-1.2803,-1.2803,-1.2803,-1.2803,-1.2803,-1.2803,-1.2827,-1.2986,-1.3153,-1.3227,-1.2896,-1.2725,-1.2474,-1.176,-1.1584,-1.1584,-1.1584,-1.1584,-1.1584,-1.1584,-1.1584,-1.1614,-1.1719,-1.1898,-1.2087,-1.2203,-1.2349,-1.2457,-1.2498,-1.2501,-1.2501,-1.2501,-1.2501,-1.2501,-1.2501,-1.2501,-1.2501,-1.2501,-1.2501,-1.2501,-1.2501,-1.2501,-1.2501,-1.2501,-1.2501,-1.2501,-1.2501,-1.2501,-1.2501,-1.2501,-1.2501,-1.2501,-1.8341,-1.8641,-1.8947,-1.9227,0.0,0.0,-1.9305,-1.9305,-1.9356,-1.9547,-1.9428,-1.9476,-2.0033,-2.0086,-2.0146,-2.0295,-2.0186,-2.0011,-1.9844,-1.9678,-1.954,-1.9424,-1.9395,-1.9395,-1.9395,-1.8735,-1.758,-1.5847,-1.5284,-1.4321,-1.2759,-1.2746,-1.2803,-1.2803,-1.2803,-1.2803,-1.2803,-1.2803,-1.2803,-1.2803,-1.2803,-1.2803,-1.2803,-1.2803,-1.2803,-1.2803,-1.2803,-1.2803,-1.2803,-1.2803,-1.2803,-1.2803,-1.2803,-1.2803,-1.2803,-1.2803,-1.2803,-1.2803,-1.2803,-1.2803,-1.2803,-1.2803,-1.2803,-1.2803,-1.2803,-1.2803,-1.284,-1.3043,-1.3283,-1.3377,-1.2935,-1.2789,-1.2613,-1.1796,-1.1584,-1.1584,-1.1584,-1.1584,-1.1584,-1.1584,-1.1584,-1.1627,-1.1769,-1.1959,-1.2152,-1.2267,-1.241,-1.2501,-1.2501,-1.2501,-1.2501,-1.2501,-1.2501,-1.2501,-1.2501,-1.2501,-1.2501,-1.2501,-1.2501,-1.2501,-1.2501,-1.2501,-1.2501,-1.2501,-1.2501,-1.2501,-1.2501,-1.2501,-1.2501,-1.2501,-1.2501,-1.2501,-1.8319,-1.862,-1.8921,-1.9227,-1.9305,0.0,-1.9253,-1.9253,-1.9253,-1.922,-1.9189,-1.9184,-1.9274,-1.9484,-1.9689,-1.9773,-1.979,-1.9803,-1.9809,-1.9758,-1.9678,-1.9424,-1.9395,-1.9395,-1.9395,-1.9395,-1.8386,-1.5983,-1.5853,-1.4996,-1.2886,-1.2795,-1.2803,-1.2803,-1.2803,-1.2803,-1.2803,-1.2803,-1.2803,-1.2803,-1.2803,-1.2803,-1.2803,-1.2803,-1.2803,-1.2803,-1.2803,-1.2803,-1.2803,-1.2803,-1.2803,-1.2803,-1.2803,-1.2803,-1.2803,-1.2803,-1.2803,-1.2803,-1.2803,-1.2803,-1.2803,-1.2803,-1.2803,-1.2803,-1.2803,-1.2815,-1.2872,-1.31,-1.3336,-1.3459,-1.293,-1.2753,-1.2542,-1.1799,-1.1584,-1.1584,-1.1584,-1.1584,-1.1584,-1.1584,-1.1584,-1.1634,-1.1793,-1.1972,-1.2159,-1.2288,-1.242,-1.2501,-1.2501,-1.2501,-1.2501,-1.2501,-1.2501,-1.2501,-1.2501,-1.2501,-1.2501,-1.2501,-1.2501,-1.2501,-1.2501,-1.2501,-1.2501,-1.2501,-1.2501,-1.2501,-1.2501,-1.2501,-1.2501,-1.2501,-1.2501,-1.2501,-1.8277,-1.8448,-1.8639,-1.9168,-1.9305,0.0,-1.9026,-1.8974,-1.8895,-1.8639,-1.84,-1.8472,-1.9177,-1.9003,-1.8994,-1.9691,-1.9801,-1.9791,-1.981,-1.962,-1.9453,-1.9395,-1.9395,-1.9395,-1.9395,-1.9395,-1.8771,-1.7249,-1.5543,-1.4019,-1.2702,-1.2722,-1.2803,-1.2803,-1.2803,-1.2803,-1.2803,-1.2803,-1.2803,-1.2803,-1.2803,-1.2803,-1.2803,-1.2803,-1.2803,-1.2803,-1.2803,-1.2803,-1.2803,-1.2803,-1.2803,-1.2803,-1.2803,-1.2803,-1.2803,-1.2803,-1.2803,-1.2803,-1.2803,-1.2803,-1.2803,-1.2803,-1.2803,-1.2803,-1.2803,-1.29,-1.3112,-1.3407,-1.3439,-1.3286,-1.2888,-1.2545,-1.2191,-1.1727,-1.1584,-1.1584,-1.1584,-1.1584,-1.1584,-1.1584,-1.1584,-1.1704,-1.2009,-1.2081,-1.219,-1.242,-1.2484,-1.2501,-1.2501,-1.2501,-1.2501,-1.2501,-1.2501,-1.2501,-1.2501,-1.2501,-1.2501,-1.2501,-1.2501,-1.2501,-1.2501,-1.2501,-1.2501,-1.2501,-1.2501,-1.2501,-1.2501,-1.2501,-1.2501,-1.2501,-1.2501,-1.2501,-1.8265,-1.8396,-1.8527,-1.9142,-1.9305,0.0,0.0,-1.9,-1.8843,-1.8672,-1.8305,-1.8143,-1.8567,-1.8426,-1.8387,-1.883,-1.9023,-1.9144,-1.9159,-1.9401,-1.954,-1.9424,-1.9395,-1.9156,-1.8496,-1.9039,-1.8648,-1.6799,-1.5146,-1.3717,-1.2653,-1.2739,-1.2803,-1.2803,-1.2803,-1.2803,-1.2803,-1.2803,-1.2803,-1.2803,-1.2803,-1.2803,-1.2803,-1.2803,-1.2803,-1.2803,-1.2803,-1.2803,-1.2803,-1.2803,-1.2803,-1.2803,-1.2803,-1.2803,-1.2803,-1.2803,-1.2803,-1.2803,-1.2803,-1.2803,-1.2803,-1.2803,-1.2803,-1.2803,-1.2803,-1.3023,-1.3291,-1.3532,-1.3448,-1.3218,-1.2896,-1.251,-1.2086,-1.1691,-1.1584,-1.1584,-1.1584,-1.1584,-1.1584,-1.1584,-1.1584,-1.1714,-1.2047,-1.2098,-1.22,-1.2457,-1.2501,-1.2501,-1.2501,-1.2501,-1.2501,-1.2501,-1.2501,-1.2501,-1.2501,-1.2501,-1.2501,-1.2501,-1.2501,-1.2501,-1.2501,-1.2501,-1.2501,-1.2501,-1.2501,-1.2501,-1.2501,-1.2501,-1.2501,-1.2501,-1.2501,-1.2501,-1.8187,-1.8318,-1.8448,-1.8978,-1.9142,-1.9116,0.0,0.0,0.0,-1.8653,-1.826,-1.7938,-1.799,-1.7956,-1.7929,-1.7983,-1.8237,-1.8404,-1.8404,-1.9084,-1.9493,-1.933,-1.9361,-1.901,-1.7958,-1.88,-1.8292,-1.5587,-1.4834,-1.3941,-1.2599,-1.2686,-1.2767,-1.2803,-1.2803,-1.2803,-1.2803,-1.2803,-1.2803,-1.2803,-1.2803,-1.2803,-1.2803,-1.2803,-1.2803,-1.2803,-1.2803,-1.2803,-1.2803,-1.2803,-1.2803,-1.2803,-1.2803,-1.2803,-1.2803,-1.2803,-1.2803,-1.2803,-1.2803,-1.2803,-1.2803,-1.2803,-1.2823,-1.286,-1.2896,-1.3165,-1.3461,-1.3609,-1.3436,-1.3146,-1.286,-1.2438,-1.2015,-1.1691,-1.1584,-1.1584,-1.1584,-1.1584,-1.1584,-1.1584,-1.1584,-1.1714,-1.2047,-1.2098,-1.22,-1.2457,-1.2501,-1.2501,-1.2501,-1.2501,-1.2501,-1.2501,-1.2501,-1.2501,-1.2501,-1.2501,-1.2501,-1.2501,-1.2501,-1.2501,-1.2501,-1.2501,-1.2501,-1.2501,-1.2501,-1.2501,-1.2501,-1.2501,-1.2501,-1.2501,-1.2501,-1.2501,-1.7964,-1.8043,-1.8122,-1.8429,-1.8501,-1.8429,-1.82,0.0,-1.8043,-1.7799,0.0,-1.772,-1.7964,0.0,0.0,-1.7966,-1.803,-1.8069,-1.8069,-1.8404,-1.8712,-1.8945,-1.9205,-1.9336,-1.9185,-1.9307,-1.7889,-1.4202,-1.4973,-1.4649,-1.2451,-1.2535,-1.267,-1.2799,-1.2803,-1.2803,-1.2803,-1.2803,-1.2803,-1.2803,-1.2803,-1.2803,-1.2803,-1.2803,-1.2803,-1.2803,-1.2803,-1.2803,-1.2803,-1.2803,-1.2803,-1.2803,-1.2803,-1.2803,-1.2803,-1.2803,-1.2803,-1.2803,-1.2803,-1.2803,-1.2803,-1.2803,-1.2904,-1.3096,-1.3292,-1.3453,-1.3613,-1.3823,-1.3385,-1.286,-1.2824,-1.2259,-1.1655,-1.1619,-1.1584,-1.1584,-1.1584,-1.1584,-1.1584,-1.1584,-1.1584,-1.1714,-1.2047,-1.2098,-1.22,-1.2457,-1.2501,-1.2501,-1.2501,-1.2501,-1.2501,-1.2501,-1.2501,-1.2501,-1.2501,-1.2501,-1.2501,-1.2501,-1.2501,-1.2501,-1.2501,-1.2501,-1.2501,-1.2501,-1.2501,-1.2501,-1.2501,-1.2501,-1.2501,-1.2501,-1.2501,-1.2501,-1.7938,-1.799,-1.8069,-1.8318,-1.8396,-1.837,-1.8272,-1.8115,-1.7964,-1.7859,0.0,0.0,0.0,0.0,0.0,0.0,-1.7775,-1.7776,-1.7776,-1.8009,-1.8376,-1.8843,-1.9032,-1.8906,-1.836,-1.8292,-1.7015,-1.3934,-1.4992,-1.4794,-1.2422,-1.2503,-1.2649,-1.2799,-1.2803,-1.2803,-1.2803,-1.2803,-1.2803,-1.2803,-1.2803,-1.2803,-1.2803,-1.2803,-1.2803,-1.2803,-1.2803,-1.2803,-1.2803,-1.2803,-1.2803,-1.2803,-1.2803,-1.2803,-1.2803,-1.2803,-1.2803,-1.2803,-1.2803,-1.2803,-1.2803,-1.2803,-1.2954,-1.3128,-1.3349,-1.3498,-1.3646,-1.3851,-1.3365,-1.2789,-1.2789,-1.2187,-1.1584,-1.1584,-1.1584,-1.1584,-1.1584,-1.1584,-1.1584,-1.1584,-1.1584,-1.1714,-1.2047,-1.2098,-1.22,-1.2457,-1.2501,-1.2501,-1.2501,-1.2501,-1.2501,-1.2501,-1.2501,-1.2501,-1.2501,-1.2501,-1.2501,-1.2501,-1.2501,-1.2501,-1.2501,-1.2501,-1.2501,-1.2501,-1.2501,-1.2501,-1.2501,-1.2501,-1.2501,-1.2501,-1.2501,-1.2501,-1.7981,-1.8014,-1.804,-1.8162,-1.8187,-1.8187,-1.8187,-1.8036,-1.7885,-1.7885,-1.7747,0.0,0.0,0.0,-1.7127,-1.7127,0.0,-1.6638,-1.6638,-1.6821,-1.7356,-1.8512,-1.8479,-1.7836,-1.6506,-1.6733,-1.5919,-1.3375,-1.446,-1.4343,-1.2344,-1.2398,-1.2576,-1.2722,-1.2779,-1.2803,-1.2803,-1.2803,-1.2803,-1.2803,-1.2803,-1.2803,-1.2803,-1.2803,-1.2803,-1.2803,-1.2803,-1.2803,-1.2803,-1.2803,-1.2803,-1.2803,-1.2803,-1.2803,-1.2803,-1.2803,-1.2803,-1.2803,-1.2803,-1.2803,-1.2803,-1.2803,-1.2957,-1.3193,-1.3366,-1.353,-1.3706,-1.3868,-1.3432,-1.2932,-1.2824,-1.2295,-1.1727,-1.1619,-1.1584,-1.1584,-1.1584,-1.1584,-1.1584,-1.1584,-1.1584,-1.1714,-1.2047,-1.2098,-1.22,-1.2457,-1.2501,-1.2501,-1.2501,-1.2501,-1.2501,-1.2501,-1.2501,-1.2501,-1.2501,-1.2501,-1.2501,-1.2501,-1.2501,-1.2501,-1.2501,-1.2501,-1.2501,-1.2501,-1.2501,-1.2501,-1.2501,-1.2501,-1.2501,-1.2501,-1.2501,-1.2501,-1.8083,-1.8009,-1.7929,-1.7682,-1.7635,-1.7635,-1.7635,-1.7608,-1.7608,-1.7608,-1.7608,-1.7608,-1.7608,-1.6697,-1.5941,-1.5941,-1.4969,0.0,0.0,-1.4223,-1.5164,-1.7732,-1.7456,-1.6138,-1.3752,-1.4822,-1.4594,-1.2044,-1.3054,-1.3256,-1.2059,-1.2215,-1.2393,-1.26,-1.2743,-1.2803,-1.2803,-1.2803,-1.2803,-1.2803,-1.2803,-1.2803,-1.2803,-1.2803,-1.2803,-1.2803,-1.2803,-1.2803,-1.2803,-1.2803,-1.2803,-1.2803,-1.2803,-1.2803,-1.2803,-1.2803,-1.2803,-1.2803,-1.2803,-1.2803,-1.2803,-1.2803,-1.3076,-1.3398,-1.3402,-1.3616,-1.3896,-1.39,-1.3615,-1.3218,-1.2896,-1.2474,-1.2086,-1.1691,-1.1584,-1.1584,-1.1584,-1.1584,-1.1584,-1.1584,-1.1584,-1.1714,-1.2047,-1.2098,-1.22,-1.2457,-1.2501,-1.2501,-1.2501,-1.2501,-1.2501,-1.2501,-1.2501,-1.2501,-1.2501,-1.2501,-1.2501,-1.2501,-1.2501,-1.2501,-1.2501,-1.2501,-1.2501,-1.2501,-1.2501,-1.2501,-1.2501,-1.2501,-1.2501,-1.2501,-1.2501,-1.2501,-1.837,-1.8337,-1.827,-1.7936,-1.7862,-1.7809,-1.7629,-1.7608,-1.7608,-1.7608,-1.7608,-1.7608,-1.7608,-1.6664,-1.5888,-1.5888,-1.4888,-1.4105,0.0,-1.4105,-1.4137,-1.4283,-1.5122,-1.5088,-1.3552,-1.4619,-1.4399,-1.1975,-1.299,-1.3187,-1.2051,-1.2175,-1.2385,-1.2588,-1.2743,-1.2803,-1.2803,-1.2803,-1.2803,-1.2803,-1.2803,-1.2803,-1.2803,-1.2803,-1.2803,-1.2803,-1.2803,-1.2803,-1.2803,-1.2803,-1.2803,-1.2803,-1.2803,-1.2803,-1.2803,-1.2803,-1.2803,-1.2803,-1.2803,-1.2803,-1.2823,-1.297,-1.3173,-1.3427,-1.3514,-1.3717,-1.39,-1.39,-1.3436,-1.2932,-1.2824,-1.2295,-1.1763,-1.1619,-1.1584,-1.1584,-1.1584,-1.1584,-1.1584,-1.1584,-1.1584,-1.1714,-1.2047,-1.2098,-1.22,-1.2457,-1.2501,-1.2501,-1.2501,-1.2501,-1.2501,-1.2501,-1.2501,-1.2501,-1.2501,-1.2501,-1.2501,-1.2501,-1.2501,-1.2501,-1.2501,-1.2501,-1.2501,-1.2501,-1.2501,-1.2501,-1.2501,-1.2501,-1.2501,-1.2501,-1.2501,-1.2501,-1.8671,-1.8644,-1.8571,-1.8249,-1.8176,-1.8096,-1.7816,-1.7749,-1.7716,-1.7628,-1.7608,-1.7608,-1.7608,-1.6664,-1.5755,-1.5322,-1.4272,-1.3356,0.0,-1.2901,-1.263,-1.1878,-1.3215,-1.3775,-1.2713,-1.3829,-1.3849,-1.1941,-1.299,-1.319,-1.1992,-1.2174,-1.2357,-1.2503,-1.2678,-1.2803,-1.2803,-1.2803,-1.2803,-1.2803,-1.2803,-1.2803,-1.2803,-1.2803,-1.2803,-1.2803,-1.2803,-1.2803,-1.2803,-1.2803,-1.2803,-1.2803,-1.2803,-1.2803,-1.2803,-1.2803,-1.2803,-1.2803,-1.2803,-1.2844,-1.2946,-1.3059,-1.3262,-1.349,-1.3573,-1.3731,-1.3888,-1.3827,-1.3389,-1.2917,-1.2753,-1.2255,-1.1763,-1.1619,-1.1584,-1.1584,-1.1584,-1.1584,-1.1584,-1.1584,-1.1584,-1.1714,-1.2047,-1.2098,-1.22,-1.2457,-1.2501,-1.2501,-1.2501,-1.2501,-1.2501,-1.2501,-1.2501,-1.2501,-1.2501,-1.2501,-1.2501,-1.2501,-1.2501,-1.2501,-1.2501,-1.2501,-1.2528,-1.2583,-1.2528,-1.2528,-1.2583,-1.2528,-1.2501,-1.2501,-1.2501,-1.2501]},{"header":{"parameterUnit":"m.s-1","parameterCategory":1,"la1":30.6,"la2":29.2853,"lo1":-89.7004,"lo2":-87.6739,"dy":0.0162,"dx":0.0183,"nx":112,"ny":82,"refTime":"2023-10-01T06:00:00:Z","depth":0,"parameterNumber":3,"parameterNumberName":"V-component_of_WINDS"},"data":[0.0,0.0,0.0,0.0,0.0,0.0,0.0,0.0,0.0,0.0,0.0,0.0,0.0,0.0,0.0,0.0,0.0,0.0,0.0,0.0,0.0,0.0,0.0,0.0,0.0,0.0,0.0,0.0,0.0,0.0,0.0,0.0,0.0,0.0,0.0,0.0,0.0,0.0,0.0,0.0,0.0,0.0,0.0,0.0,0.0,0.0,0.0,0.0,0.0,0.0,0.0,0.0,0.0,0.0,0.0,0.0,0.0,0.0,0.0,0.0,0.0,0.0,0.0,0.0,0.0,0.0,0.0,0.0,0.0,0.0,0.0,0.0,0.0,0.0,0.0,0.0,0.0,0.0,0.0,0.0,0.0,0.0,0.0,0.0,0.0,0.0,0.0,0.0,0.0,0.0,3.838,3.9137,3.9471,3.9717,3.9935,4.0089,4.0223,4.0415,0.0,0.0,0.0,0.0,0.0,0.0,0.0,0.0,0.0,0.0,0.0,0.0,0.0,0.0,0.0,0.0,0.0,0.0,0.0,0.0,0.0,0.0,0.0,0.0,0.0,0.0,0.0,0.0,0.0,0.0,0.0,0.0,0.0,0.0,0.0,0.0,0.0,0.0,0.0,0.0,0.0,0.0,0.0,0.0,0.0,0.0,0.0,0.0,0.0,0.0,0.0,0.0,0.0,0.0,0.0,0.0,0.0,0.0,0.0,0.0,0.0,0.0,0.0,0.0,0.0,0.0,0.0,0.0,0.0,0.0,0.0,0.0,0.0,0.0,0.0,0.0,0.0,0.0,0.0,0.0,0.0,0.0,0.0,0.0,0.0,0.0,0.0,0.0,0.0,0.0,0.0,0.0,0.0,0.0,0.0,0.0,0.0,0.0,0.0,0.0,0.0,0.0,0.0,0.0,3.9148,3.9715,4.0012,4.0205,4.0239,4.0859,4.119,4.0986,0.0,0.0,0.0,0.0,0.0,0.0,0.0,0.0,0.0,0.0,0.0,0.0,0.0,0.0,0.0,0.0,0.0,0.0,0.0,0.0,0.0,0.0,0.0,0.0,0.0,0.0,0.0,0.0,0.0,0.0,0.0,0.0,0.0,0.0,0.0,0.0,0.0,0.0,0.0,0.0,0.0,0.0,0.0,0.0,0.0,0.0,0.0,0.0,0.0,0.0,0.0,0.0,0.0,0.0,0.0,0.0,0.0,0.0,0.0,0.0,0.0,0.0,0.0,0.0,0.0,0.0,0.0,0.0,0.0,0.0,0.0,0.0,0.0,0.0,0.0,0.0,0.0,0.0,0.0,0.0,0.0,0.0,0.0,0.0,0.0,0.0,0.0,0.0,0.0,0.0,0.0,0.0,0.0,0.0,0.0,0.0,0.0,0.0,0.0,0.0,0.0,0.0,0.0,3.867,3.9261,4.0238,4.0305,4.0607,4.1374,4.1781,4.1923,4.1751,4.2313,0.0,0.0,0.0,0.0,0.0,0.0,0.0,0.0,0.0,0.0,0.0,0.0,0.0,0.0,0.0,0.0,0.0,0.0,0.0,0.0,0.0,0.0,0.0,0.0,0.0,0.0,0.0,0.0,0.0,0.0,0.0,0.0,0.0,0.0,0.0,0.0,0.0,0.0,0.0,0.0,0.0,0.0,0.0,0.0,0.0,0.0,0.0,0.0,0.0,0.0,0.0,0.0,0.0,0.0,0.0,0.0,0.0,0.0,0.0,0.0,0.0,0.0,0.0,0.0,0.0,0.0,0.0,0.0,0.0,0.0,0.0,0.0,0.0,0.0,0.0,0.0,0.0,0.0,0.0,0.0,0.0,0.0,0.0,0.0,0.0,0.0,0.0,0.0,0.0,0.0,0.0,0.0,0.0,0.0,0.0,0.0,0.0,0.0,0.0,0.0,0.0,0.0,3.9198,3.9578,4.0852,4.0849,4.1203,4.2276,4.2627,4.2699,4.2502,4.3375,0.0,0.0,0.0,0.0,0.0,0.0,0.0,0.0,0.0,0.0,0.0,0.0,0.0,0.0,0.0,0.0,0.0,0.0,0.0,0.0,0.0,0.0,0.0,0.0,0.0,0.0,0.0,0.0,0.0,0.0,0.0,0.0,0.0,0.0,0.0,0.0,0.0,0.0,0.0,0.0,0.0,0.0,0.0,0.0,0.0,0.0,0.0,0.0,0.0,0.0,0.0,0.0,0.0,0.0,0.0,0.0,0.0,0.0,0.0,0.0,0.0,0.0,0.0,0.0,0.0,0.0,0.0,0.0,0.0,0.0,0.0,0.0,0.0,0.0,0.0,0.0,0.0,0.0,0.0,0.0,0.0,0.0,0.0,0.0,0.0,0.0,0.0,0.0,0.0,0.0,0.0,0.0,0.0,0.0,0.0,0.0,0.0,0.0,0.0,0.0,0.0,0.0,4.0208,4.0612,4.171,4.2014,4.2196,4.2306,4.3273,4.3644,4.3077,4.4102,0.0,0.0,0.0,0.0,0.0,0.0,0.0,0.0,0.0,0.0,0.0,0.0,0.0,0.0,0.0,0.0,0.0,0.0,0.0,0.0,0.0,0.0,0.0,0.0,0.0,0.0,0.0,0.0,0.0,0.0,0.0,0.0,0.0,0.0,0.0,0.0,0.0,0.0,0.0,0.0,0.0,0.0,0.0,0.0,0.0,0.0,0.0,0.0,0.0,0.0,0.0,0.0,0.0,0.0,0.0,0.0,0.0,0.0,0.0,0.0,0.0,0.0,0.0,0.0,0.0,0.0,0.0,0.0,0.0,0.0,0.0,0.0,0.0,0.0,0.0,0.0,0.0,0.0,0.0,0.0,0.0,0.0,0.0,0.0,0.0,0.0,0.0,0.0,0.0,0.0,0.0,0.0,0.0,0.0,0.0,0.0,0.0,0.0,0.0,0.0,0.0,0.0,4.0833,4.1606,4.3054,4.3141,4.3403,4.4108,4.4562,4.4541,4.3941,0.0,0.0,0.0,0.0,0.0,0.0,0.0,0.0,0.0,0.0,0.0,0.0,0.0,0.0,0.0,0.0,0.0,0.0,0.0,0.0,0.0,0.0,0.0,0.0,0.0,0.0,0.0,0.0,0.0,0.0,0.0,0.0,0.0,0.0,0.0,0.0,0.0,0.0,0.0,0.0,0.0,0.0,0.0,0.0,0.0,0.0,0.0,0.0,0.0,0.0,0.0,0.0,0.0,0.0,0.0,0.0,0.0,0.0,0.0,0.0,0.0,0.0,0.0,0.0,0.0,0.0,0.0,0.0,0.0,0.0,0.0,0.0,0.0,0.0,0.0,0.0,0.0,0.0,0.0,0.0,0.0,0.0,0.0,0.0,0.0,0.0,0.0,0.0,0.0,0.0,0.0,0.0,0.0,0.0,0.0,0.0,0.0,0.0,0.0,0.0,0.0,0.0,4.1383,4.1724,4.2484,4.4083,4.4097,4.4301,4.5082,4.524,4.5042,4.445,0.0,0.0,0.0,0.0,0.0,0.0,0.0,0.0,0.0,0.0,0.0,0.0,0.0,0.0,0.0,0.0,0.0,0.0,0.0,0.0,0.0,0.0,0.0,0.0,0.0,0.0,0.0,0.0,0.0,0.0,0.0,0.0,0.0,0.0,0.0,0.0,0.0,0.0,0.0,0.0,0.0,0.0,0.0,0.0,0.0,0.0,0.0,0.0,0.0,0.0,0.0,0.0,0.0,0.0,0.0,0.0,0.0,0.0,0.0,0.0,0.0,0.0,0.0,0.0,0.0,0.0,0.0,0.0,0.0,0.0,0.0,0.0,0.0,0.0,0.0,0.0,0.0,0.0,0.0,0.0,0.0,0.0,0.0,0.0,0.0,0.0,0.0,0.0,0.0,0.0,0.0,0.0,0.0,0.0,0.0,0.0,0.0,0.0,0.0,0.0,0.0,0.0,4.3015,4.2914,4.3249,4.4669,4.4819,4.4819,4.4819,4.5109,4.5047,0.0,0.0,0.0,0.0,0.0,0.0,0.0,0.0,0.0,0.0,0.0,0.0,0.0,0.0,0.0,0.0,0.0,0.0,0.0,0.0,0.0,0.0,0.0,0.0,0.0,0.0,0.0,0.0,0.0,0.0,0.0,0.0,0.0,0.0,0.0,0.0,0.0,0.0,0.0,0.0,0.0,0.0,0.0,0.0,0.0,0.0,0.0,0.0,0.0,0.0,0.0,0.0,0.0,0.0,0.0,0.0,0.0,0.0,0.0,0.0,0.0,0.0,0.0,0.0,0.0,0.0,0.0,0.0,0.0,0.0,0.0,0.0,0.0,0.0,0.0,0.0,0.0,0.0,0.0,0.0,0.0,0.0,0.0,0.0,0.0,0.0,0.0,0.0,0.0,0.0,0.0,0.0,0.0,0.0,0.0,0.0,0.0,0.0,0.0,0.0,0.0,0.0,0.0,4.3117,4.3765,4.4436,4.509,4.5143,4.5143,4.5143,4.5246,4.5115,4.4701,0.0,0.0,0.0,0.0,0.0,0.0,0.0,0.0,0.0,0.0,0.0,0.0,0.0,0.0,0.0,0.0,0.0,0.0,0.0,0.0,0.0,0.0,0.0,0.0,0.0,0.0,0.0,0.0,0.0,0.0,0.0,0.0,0.0,0.0,0.0,0.0,0.0,0.0,0.0,0.0,0.0,0.0,0.0,0.0,0.0,0.0,0.0,0.0,0.0,0.0,0.0,0.0,0.0,0.0,0.0,0.0,0.0,0.0,0.0,0.0,0.0,0.0,0.0,0.0,0.0,0.0,0.0,0.0,0.0,0.0,0.0,0.0,0.0,0.0,0.0,0.0,0.0,0.0,0.0,0.0,0.0,0.0,0.0,0.0,0.0,0.0,0.0,0.0,0.0,0.0,0.0,0.0,0.0,0.0,0.0,0.0,0.0,0.0,0.0,0.0,0.0,0.0,4.363,4.4335,4.4934,4.5256,4.5302,4.5436,4.5755,4.5774,4.5791,4.5829,0.0,0.0,0.0,0.0,0.0,0.0,0.0,0.0,0.0,0.0,0.0,0.0,0.0,0.0,0.0,0.0,0.0,0.0,0.0,0.0,0.0,0.0,0.0,0.0,0.0,0.0,0.0,0.0,0.0,0.0,0.0,0.0,0.0,0.0,0.0,0.0,0.0,0.0,0.0,0.0,0.0,0.0,0.0,0.0,0.0,0.0,0.0,0.0,0.0,0.0,0.0,0.0,0.0,0.0,0.0,0.0,0.0,0.0,0.0,0.0,0.0,0.0,0.0,0.0,0.0,0.0,0.0,0.0,0.0,0.0,0.0,0.0,0.0,0.0,0.0,0.0,0.0,0.0,0.0,0.0,0.0,0.0,0.0,0.0,0.0,0.0,0.0,0.0,0.0,0.0,0.0,0.0,0.0,0.0,0.0,0.0,0.0,0.0,0.0,0.0,0.0,0.0,4.4374,4.4732,4.5071,4.5376,4.5474,4.5831,4.6552,4.6609,4.6845,4.7397,0.0,0.0,0.0,0.0,0.0,0.0,0.0,0.0,0.0,0.0,0.0,0.0,0.0,0.0,0.0,0.0,0.0,0.0,0.0,0.0,0.0,0.0,0.0,0.0,0.0,0.0,0.0,0.0,0.0,0.0,0.0,0.0,0.0,0.0,0.0,0.0,0.0,0.0,0.0,0.0,0.0,0.0,0.0,0.0,0.0,0.0,0.0,0.0,0.0,0.0,0.0,0.0,0.0,0.0,0.0,0.0,0.0,0.0,0.0,0.0,3.5091,3.4676,0.0,0.0,0.0,0.0,0.0,0.0,0.0,0.0,0.0,0.0,0.0,0.0,0.0,0.0,0.0,0.0,0.0,0.0,0.0,0.0,0.0,0.0,0.0,0.0,0.0,0.0,0.0,0.0,0.0,0.0,0.0,0.0,0.0,0.0,0.0,0.0,0.0,0.0,0.0,0.0,4.4383,4.5412,4.6154,4.6246,4.6858,4.7335,4.7507,4.7526,4.758,4.7707,4.7766,0.0,0.0,0.0,0.0,0.0,0.0,0.0,0.0,0.0,0.0,0.0,0.0,0.0,0.0,0.0,0.0,0.0,0.0,0.0,0.0,0.0,0.0,0.0,0.0,0.0,0.0,0.0,0.0,0.0,0.0,0.0,0.0,0.0,0.0,0.0,0.0,0.0,0.0,0.0,0.0,0.0,0.0,0.0,0.0,0.0,0.0,0.0,0.0,0.0,0.0,0.0,0.0,0.0,0.0,0.0,0.0,0.0,0.0,0.0,3.6813,3.5964,0.0,0.0,0.0,0.0,0.0,0.0,0.0,0.0,0.0,0.0,0.0,0.0,0.0,0.0,0.0,0.0,0.0,0.0,0.0,0.0,0.0,0.0,0.0,0.0,0.0,0.0,0.0,0.0,0.0,0.0,0.0,0.0,0.0,0.0,0.0,0.0,0.0,0.0,0.0,0.0,4.5196,4.6336,4.7125,4.7125,4.7526,4.7966,4.8391,4.843,4.8602,4.8978,4.8997,0.0,0.0,0.0,0.0,0.0,0.0,0.0,0.0,0.0,0.0,0.0,0.0,0.0,0.0,0.0,0.0,0.0,0.0,0.0,0.0,0.0,0.0,0.0,0.0,0.0,0.0,0.0,0.0,0.0,0.0,0.0,0.0,0.0,0.0,0.0,0.0,0.0,0.0,0.0,0.0,0.0,0.0,0.0,0.0,0.0,0.0,0.0,0.0,0.0,0.0,0.0,0.0,0.0,3.9399,3.9915,4.0545,4.0788,4.1256,4.1713,3.923,3.7885,3.7474,3.7623,0.0,0.0,0.0,0.0,0.0,0.0,0.0,0.0,0.0,0.0,0.0,0.0,0.0,0.0,0.0,0.0,0.0,0.0,0.0,0.0,0.0,0.0,4.2183,4.2618,4.2708,4.2685,4.2689,0.0,0.0,0.0,0.0,0.0,0.0,0.0,0.0,0.0,0.0,0.0,4.6291,4.7313,4.8023,4.8023,4.8157,4.852,4.9257,4.9314,4.9601,5.0264,5.0302,5.0302,0.0,0.0,0.0,0.0,0.0,0.0,0.0,0.0,0.0,0.0,0.0,0.0,0.0,0.0,0.0,0.0,0.0,0.0,0.0,0.0,0.0,0.0,0.0,0.0,0.0,0.0,0.0,0.0,0.0,0.0,0.0,0.0,3.5346,3.5346,0.0,0.0,0.0,0.0,0.0,0.0,0.0,0.0,0.0,0.0,0.0,0.0,0.0,4.0101,4.0736,4.1555,4.2028,4.2124,4.3025,4.3455,4.3468,4.4186,4.4518,4.4486,4.4078,0.0,4.0579,4.1344,0.0,0.0,0.0,0.0,0.0,0.0,0.0,0.0,0.0,0.0,0.0,0.0,0.0,0.0,0.0,0.0,0.0,0.0,0.0,0.0,0.0,0.0,4.4153,4.4939,4.5088,4.5055,4.5045,4.4039,4.2907,4.2172,4.3224,4.3986,0.0,0.0,0.0,0.0,0.0,0.0,4.7226,4.8215,4.8932,4.8932,4.9557,5.0015,5.013,5.0149,5.0187,5.0283,5.0302,5.0302,5.0302,5.0302,0.0,0.0,0.0,0.0,0.0,0.0,0.0,0.0,0.0,0.0,0.0,0.0,0.0,0.0,0.0,0.0,0.0,0.0,0.0,0.0,0.0,0.0,0.0,0.0,0.0,0.0,0.0,0.0,0.0,3.6074,3.6808,3.6803,3.7149,3.7366,0.0,0.0,0.0,0.0,0.0,0.0,0.0,0.0,0.0,4.1141,4.198,4.2593,4.2924,4.3786,4.4451,4.495,4.546,4.5938,4.6363,4.6768,4.6907,4.6852,4.6843,4.6196,4.5041,4.3729,4.2623,4.1781,0.0,0.0,0.0,0.0,4.2229,4.2258,4.2493,4.2562,4.2562,4.2562,0.0,0.0,0.0,0.0,0.0,0.0,0.0,4.4646,4.5211,4.5769,4.6301,4.6862,4.6976,4.6958,4.6958,4.6449,4.569,4.4662,4.4996,4.5287,4.4753,4.5689,0.0,0.0,0.0,4.8243,4.8398,4.9283,4.9893,4.9893,5.0199,5.0404,5.0404,5.0404,5.0404,5.0404,5.0404,5.0404,5.0404,5.0404,5.0451,0.0,0.0,0.0,0.0,0.0,0.0,0.0,0.0,0.0,0.0,0.0,0.0,0.0,0.0,0.0,0.0,0.0,0.0,0.0,0.0,0.0,0.0,0.0,0.0,0.0,0.0,0.0,0.0,3.7412,3.7945,3.789,3.8353,3.8619,0.0,0.0,0.0,0.0,0.0,0.0,4.3233,4.3481,4.3716,4.3962,4.46,4.5047,4.5278,4.5874,4.6485,4.7135,4.7452,4.7957,4.8589,4.8844,4.8964,4.8964,4.8975,4.8843,4.8479,4.5975,4.4539,4.3885,4.3885,4.3835,4.3781,4.3798,4.3803,4.3843,4.4034,4.4102,4.4102,4.4083,4.4078,4.4078,4.4078,0.0,0.0,0.0,0.0,4.6593,4.6835,4.732,4.7782,4.8044,4.8101,4.8101,4.8101,4.8091,4.7775,4.6669,4.6576,4.6547,4.6126,4.6936,0.0,4.7045,4.8254,4.9308,4.9512,5.0103,5.0505,5.0505,5.0505,5.0505,5.0505,5.0505,5.0505,5.0505,5.0505,5.0532,5.055,5.055,5.0611,5.0749,0.0,0.0,0.0,0.0,0.0,0.0,0.0,0.0,0.0,0.0,0.0,0.0,0.0,0.0,0.0,0.0,0.0,0.0,0.0,0.0,0.0,0.0,0.0,0.0,0.0,0.0,0.0,0.0,0.0,3.8674,4.0386,0.0,0.0,0.0,0.0,4.2956,4.3616,4.4125,4.4393,4.5075,4.5893,4.6868,4.6926,4.7352,4.8183,4.8222,4.828,4.8319,4.9154,4.9579,4.9657,5.0415,5.0763,5.0763,5.0778,5.0333,4.9556,4.8503,4.7897,4.7629,4.7629,4.7477,4.7278,4.7538,4.7629,4.7649,4.7854,4.7923,4.7914,4.786,4.7822,4.7822,4.7822,4.7856,0.0,0.0,4.7938,4.7996,4.8029,4.8048,4.8087,4.8101,4.8101,4.8101,4.8101,4.8106,4.7852,4.7035,4.7482,4.7736,4.6897,0.0,4.9085,4.9057,4.9838,5.0413,5.0423,5.0467,5.0505,5.0505,5.0505,5.0505,5.0505,5.0505,5.0505,5.0505,5.0505,5.0561,5.0678,5.0687,5.0753,5.09,5.088,0.0,0.0,0.0,0.0,0.0,0.0,0.0,0.0,0.0,0.0,0.0,0.0,0.0,0.0,0.0,0.0,0.0,0.0,0.0,0.0,0.0,0.0,0.0,0.0,0.0,0.0,0.0,0.0,4.1483,4.2261,0.0,4.3277,4.3724,4.4479,4.5586,4.6006,4.6464,4.7096,4.7385,4.7695,4.8056,4.8571,4.9241,5.007,5.0584,5.1123,5.1679,5.1989,5.2144,5.2163,5.2434,5.2569,5.2569,5.2569,5.2414,5.2124,5.1787,5.0292,4.8223,4.8223,4.817,4.8083,4.8133,4.8161,4.8165,4.8244,4.8268,4.824,4.8192,4.816,4.8151,4.8115,4.8101,4.8101,4.8101,4.8509,4.8933,4.8933,4.9356,4.9764,4.9764,4.9764,4.9764,4.9764,4.9769,4.9687,4.9394,4.9087,4.8956,4.9196,4.9754,5.0143,5.0102,5.0397,5.0633,5.0633,5.0633,5.0664,5.0756,5.075,5.0778,5.0825,5.0813,5.0813,5.0813,5.0813,5.0839,5.0896,5.0896,5.0966,5.1086,5.1089,5.1135,0.0,0.0,0.0,0.0,0.0,0.0,0.0,0.0,0.0,0.0,0.0,0.0,0.0,0.0,0.0,0.0,0.0,0.0,0.0,0.0,0.0,0.0,0.0,0.0,0.0,4.206,4.3039,4.3459,4.4226,4.4863,4.5238,4.568,4.6421,4.7584,4.7983,4.8423,4.9004,4.9568,4.989,4.989,5.0681,5.1373,5.1913,5.245,5.2972,5.3526,5.3526,5.3511,5.3502,5.3502,5.3502,5.3502,5.3502,5.3502,5.3502,5.3502,5.2163,5.0113,5.0113,5.0113,5.0109,5.0066,5.0054,5.005,5.0025,5.0023,5.0006,4.9975,4.9947,4.9943,4.9902,4.9879,4.9846,4.9846,5.0255,5.0683,5.0683,5.1106,5.1534,5.1534,5.1534,5.1534,5.1534,5.1534,5.1534,5.1534,5.0581,4.9966,5.0537,5.0663,5.0678,5.0638,5.0938,5.1162,5.1162,5.1475,5.1713,5.1802,5.1812,5.1832,5.1876,5.1885,5.1885,5.1885,5.1885,5.1903,5.1944,5.1944,5.2013,5.2138,5.2139,5.2195,5.2281,0.0,0.0,0.0,0.0,0.0,0.0,0.0,0.0,0.0,0.0,0.0,0.0,0.0,0.0,0.0,0.0,0.0,0.0,0.0,0.0,0.0,0.0,0.0,4.1983,4.35,4.4591,4.4457,4.627,4.7468,4.7301,4.8228,4.8865,4.8904,4.9584,5.0004,5.0024,5.157,5.2451,5.2451,5.3267,5.3714,5.3733,5.3733,5.3718,5.3674,5.3674,5.365,5.3587,5.3583,5.3583,5.3583,5.3579,5.3579,5.3579,5.3579,5.3579,5.3587,5.3521,5.3502,5.3502,5.3502,5.3502,5.3493,5.3428,5.3403,5.3391,5.3406,5.3406,5.3406,5.3406,5.335,5.3307,5.3307,5.3267,5.3203,5.3203,5.3203,5.3203,5.3203,5.3203,5.3203,5.3197,5.3203,5.3208,5.3208,5.1895,5.0784,5.0798,5.0779,5.0798,5.0784,5.1554,0.0,5.2148,5.3,5.3607,5.361,5.361,5.3613,5.3615,5.3615,5.3615,5.3615,5.3615,5.3666,5.3798,5.3802,5.3876,5.4009,5.401,5.401,5.4009,0.0,0.0,0.0,0.0,0.0,0.0,0.0,0.0,0.0,0.0,0.0,0.0,0.0,0.0,0.0,0.0,0.0,0.0,0.0,0.0,0.0,4.4681,4.5108,4.4997,4.5423,4.621,4.7427,4.8076,4.8641,4.9182,4.9494,5.019,5.1456,5.1736,5.2139,5.2762,5.3236,5.3482,5.3482,5.3662,5.4088,5.4711,5.4671,5.4929,5.5488,5.5488,5.5478,5.5458,5.542,5.5389,5.5386,5.5321,5.5311,5.5311,5.5311,5.537,5.5331,5.4014,5.3502,5.3502,5.3502,5.3502,5.3498,5.3485,5.3473,5.346,5.3421,5.3393,5.3403,5.3396,5.3397,5.3364,5.3364,5.3354,5.334,5.334,5.334,5.3331,5.3273,5.3263,5.3253,5.3208,5.3287,5.3357,5.3357,5.3058,5.2774,5.2668,5.2666,5.2692,5.2796,5.3022,5.3181,5.3181,5.3427,5.3639,5.3735,5.3742,5.3788,5.3883,5.3888,5.3888,5.3888,5.3888,5.3915,5.393,5.3951,5.3957,5.4009,5.401,5.401,0.0,0.0,0.0,0.0,0.0,0.0,0.0,0.0,0.0,0.0,0.0,0.0,0.0,0.0,0.0,0.0,0.0,0.0,0.0,0.0,0.0,0.0,4.6178,4.6996,4.7698,4.7795,4.8165,4.9177,4.9956,5.0579,5.1047,5.1417,5.2058,5.3071,5.3149,5.3364,5.387,5.426,5.4435,5.4435,5.4762,5.5334,5.6171,5.6141,5.6522,5.7331,5.7331,5.7339,5.733,5.7284,5.7264,5.728,5.7227,5.72,5.72,5.72,5.7269,5.7148,0.0,0.0,0.0,0.0,5.4542,5.4542,5.4542,5.4542,5.4538,5.4508,5.448,5.4495,5.4492,5.4489,5.4495,5.4495,5.4476,5.4438,5.4438,5.4464,5.4482,5.4433,5.4469,5.4498,5.447,5.4525,5.4567,5.4569,5.4637,0.0,5.4624,5.3989,5.351,5.3594,5.3961,5.4226,5.4226,5.4594,5.489,5.4954,5.4977,5.4992,5.508,5.5082,0.0,0.0,0.0,5.5082,5.5082,5.5082,0.0,0.0,0.0,5.5082,5.5082,5.5432,0.0,0.0,5.4873,5.4532,0.0,0.0,0.0,0.0,0.0,0.0,0.0,0.0,0.0,0.0,0.0,0.0,0.0,0.0,0.0,0.0,4.729,4.8379,5.0074,5.0307,5.0302,5.0289,5.1747,5.2744,5.2752,5.3454,5.3943,5.4048,5.4048,5.4087,5.4184,5.5022,0.0,0.0,0.0,5.7133,5.7853,5.7853,5.8215,5.8916,5.8916,5.8926,5.8922,5.8905,5.8916,5.8914,5.8892,5.8901,5.8901,5.8899,5.8901,5.8743,5.7131,5.6492,5.6479,5.6265,5.6187,5.6167,5.607,0.0,0.0,5.6032,5.6032,5.6032,5.6032,5.6022,5.6027,5.6027,5.5996,5.5946,5.5946,5.5989,5.6022,5.6019,5.6116,5.6197,5.6194,5.6202,5.6224,5.6217,5.6222,5.6256,5.6322,5.4989,5.3902,5.3936,5.4703,5.528,5.528,5.6051,5.6605,5.6605,5.6605,0.0,5.6722,5.6742,5.6781,5.6878,5.6878,5.6878,5.6878,5.6864,5.6867,5.6867,5.6872,5.6874,5.6874,5.7597,5.7948,5.7909,5.6419,5.5724,0.0,0.0,0.0,0.0,0.0,0.0,0.0,0.0,0.0,0.0,0.0,0.0,0.0,0.0,0.0,4.9202,4.9495,5.0198,5.1934,5.2188,5.215,5.2091,5.3013,5.3658,5.3646,5.3805,5.419,5.4901,5.4941,5.5254,5.5956,5.6816,5.7305,5.7305,5.8145,5.8673,5.8828,5.8828,5.8907,5.9065,5.9065,0.0,5.9067,5.9012,5.8983,5.8982,5.8916,5.8903,5.8902,5.8907,5.8925,5.8931,5.855,5.8379,5.8296,5.7551,5.7291,5.7191,5.6487,5.6232,5.6232,5.6232,5.6232,5.6232,5.6232,5.6249,0.0,5.6244,5.6238,5.6216,5.6216,5.6232,5.6222,5.6161,5.6171,5.62,5.6197,5.6279,5.6367,5.6359,5.6444,5.6534,5.654,5.6129,5.5823,5.6002,5.6195,5.6319,5.6319,5.6483,5.6605,5.6605,5.6605,5.686,5.7504,5.7562,5.7875,5.8576,5.8615,5.8615,5.8615,5.8567,5.8534,5.8534,5.8549,5.8538,5.8538,5.8687,5.8762,5.8762,5.8437,5.8284,0.0,0.0,0.0,0.0,0.0,0.0,0.0,0.0,0.0,0.0,0.0,4.6968,4.7382,0.0,4.953,4.9979,5.078,5.1659,5.2537,5.3394,5.3775,5.3316,5.4013,5.4548,5.4546,5.4956,5.5567,5.6438,5.6497,5.6887,5.7746,5.8215,5.845,5.845,5.886,5.9309,5.9758,5.9758,5.9976,6.039,6.039,6.039,6.0407,6.0371,6.0351,6.0351,6.0328,6.0306,6.0305,6.0303,6.0326,6.0349,6.0301,5.9751,5.8887,5.842,5.8247,5.8189,5.7758,5.7602,5.7602,5.7602,5.7308,5.6957,5.6957,5.6643,5.629,5.629,5.629,5.629,5.629,5.6342,5.6386,5.6356,5.6382,5.64,5.6394,5.6452,5.6503,5.6498,5.655,5.6732,5.7179,5.7178,5.6987,5.6657,5.6973,5.7244,5.7201,5.7571,5.7842,5.7855,5.7854,5.801,5.8421,5.8441,5.8645,5.9073,5.9093,5.9078,5.9043,5.9018,5.8992,5.8992,5.8995,5.9002,5.9002,5.9401,5.9574,5.956,5.9966,5.972,0.0,0.0,0.0,0.0,0.0,0.0,0.0,4.4781,4.5648,4.6503,4.7383,4.8203,4.8842,4.9661,5.0306,5.0482,5.1674,5.2709,5.304,5.4295,5.498,5.4453,5.5017,5.5444,5.5447,5.6247,5.7048,5.7753,5.7968,5.8358,5.9061,5.9257,5.9354,5.9354,5.9511,5.994,6.0643,6.0643,6.1015,6.1693,6.1693,6.1705,6.1699,6.1691,6.1695,6.1695,6.1702,6.1705,6.1707,6.1707,6.1708,6.1709,6.1709,6.0801,5.9492,5.9276,5.9199,5.9178,5.9019,5.8959,5.8959,5.8959,5.8471,5.7884,5.7707,5.7179,5.6572,5.6416,5.6358,5.6358,5.6358,5.6434,5.652,5.652,5.6557,5.6601,5.6601,5.6601,5.664,5.6815,5.6854,5.7127,5.8003,5.8159,5.7904,5.7199,5.7686,5.8114,5.805,5.8674,5.9102,5.9092,5.9091,5.9153,5.9317,5.9491,5.9582,5.9568,5.9568,5.9542,5.9493,5.948,5.9494,5.9494,5.9458,5.9448,5.9448,6.0098,6.0392,6.0341,6.0994,6.0615,4.1107,4.167,4.2284,4.2362,4.3513,4.4837,0.0,4.6582,4.7439,4.8251,4.9155,4.9825,4.985,5.0564,5.1403,5.2182,5.2475,5.3118,5.4617,5.4991,5.5367,5.6032,5.6264,5.6346,5.6357,5.7144,5.7691,5.779,5.8529,5.8997,5.9094,5.9837,6.0247,6.0247,6.1008,6.1457,6.1554,6.1554,6.1592,6.1705,6.1705,6.1703,6.1699,6.1701,6.1702,6.1702,6.1703,6.169,6.1699,6.1699,6.1703,6.1709,6.1709,6.1574,6.1304,6.0527,6.0234,6.0137,5.9413,5.9178,5.9178,5.9178,5.91,5.8885,5.8104,5.7791,5.7557,5.6776,5.6561,5.6561,5.6561,5.6581,5.6581,5.6581,5.6582,5.6601,5.6601,5.6601,5.6836,5.7597,5.7754,5.8027,5.8906,5.9043,5.9003,5.8841,5.8898,5.8956,5.8955,5.9033,5.9092,5.9091,5.9091,5.9391,6.0114,6.0877,6.1283,6.1246,6.1234,6.1239,6.1214,6.1215,6.1212,6.1212,6.1107,6.1047,6.1047,6.1132,6.1163,6.1178,6.1255,6.1209,4.1713,4.2463,4.3343,4.4369,4.5117,4.5954,4.7347,4.7946,4.8443,4.9276,4.9768,5.0183,5.0627,5.1416,5.2117,5.2487,5.3383,5.4298,5.4994,5.5548,5.6171,5.7006,5.7154,5.7202,5.721,5.7531,5.8155,5.9185,5.9594,6.0015,6.0524,6.0931,6.1153,6.1153,6.1504,6.1699,6.1699,6.1699,6.1699,6.1699,6.1699,6.1699,6.1699,6.1699,6.1699,6.1699,6.1699,6.1702,6.1707,6.1707,6.1691,6.1694,6.1694,6.1694,6.1657,6.1299,6.1166,6.1107,6.0777,6.0641,6.0641,6.0641,6.031,5.9745,5.8905,5.83,5.7715,5.6855,5.6601,5.6601,5.6601,5.6601,5.6601,5.6601,5.6601,5.6738,5.7246,5.7363,5.7617,5.8496,5.8652,5.8926,5.9746,5.9902,6.0058,6.0546,6.0174,5.9861,5.9859,6.0308,6.0604,6.0566,6.0546,6.0659,6.0917,6.127,6.1463,6.138,6.1385,6.1386,6.1381,6.1383,6.1373,6.1373,6.1329,6.1306,6.1306,6.131,6.1285,6.1236,6.1236,6.1223,4.2556,4.3509,4.4628,4.5856,4.6507,4.7208,4.8695,4.9043,4.9309,5.0166,5.0339,5.0508,5.1098,5.1907,5.2549,5.2783,5.4086,5.5155,5.5405,5.6185,5.6942,5.7531,5.7831,5.8091,5.8344,5.8391,5.8933,6.0217,6.0506,6.0915,6.1541,6.1625,6.164,6.1668,6.1668,6.1672,6.1699,6.1699,6.1699,6.1699,6.1699,6.1699,6.1699,6.1699,6.1699,6.1699,6.1699,6.1699,6.1699,6.1699,6.1699,6.1699,6.1699,6.1699,6.1702,6.1697,6.1704,6.1707,6.1708,6.1709,6.1709,6.1709,6.1263,6.0563,5.9489,5.8728,5.8007,5.6913,5.6601,5.6601,5.6601,5.6601,5.666,5.6894,5.6953,5.7207,5.8066,5.8262,5.8515,5.9375,5.9531,5.9785,6.0625,6.0762,6.0976,6.1601,6.1151,6.0741,6.0761,6.1289,6.1637,6.1554,6.153,6.1509,6.1376,6.1374,6.1335,6.1285,6.1285,6.1303,6.1306,6.1301,6.1301,6.1301,6.1289,6.1261,6.1261,6.1249,6.1223,6.1168,6.1168,6.115,4.3574,4.4818,4.6129,4.6108,4.7379,4.8834,4.9666,4.9908,5.0187,5.0998,5.1155,5.1176,5.1194,5.1866,5.2681,5.352,5.441,5.5304,5.6139,5.702,5.7564,5.7599,5.8295,5.9095,5.995,6.0139,6.0236,6.0295,6.1023,6.1473,6.1493,6.1495,6.1537,6.1597,6.1598,6.1633,6.1698,6.1699,6.1699,6.1699,6.1699,6.1699,6.1699,6.1699,6.1699,6.1699,6.1699,6.1699,6.1699,6.1699,6.1699,6.1699,6.1699,6.1699,6.1699,6.1699,6.1708,6.1699,6.1707,6.1709,6.1709,6.1709,6.169,6.1338,5.962,5.9074,5.8722,5.7062,5.6593,5.6594,5.6599,5.6599,5.6815,5.7656,5.7851,5.8105,5.8965,5.916,5.9394,6.0215,6.0351,6.0644,6.1504,6.166,6.168,6.1699,6.1629,6.1582,6.164,6.1629,6.1547,6.1428,6.1419,6.1378,6.1311,6.1308,6.1264,6.1208,6.1261,6.1306,6.1301,6.1301,6.1301,6.1301,6.1232,6.1206,6.1206,6.1141,6.1099,6.1099,6.1099,6.1099,4.5117,4.6109,4.7269,4.8353,4.9062,4.9719,5.0573,5.0778,5.0881,5.113,5.1197,5.1206,5.1205,5.2329,5.3361,5.3653,5.4915,5.5961,5.6256,5.7052,5.779,5.8331,5.9147,6.0001,6.0872,6.0469,6.042,6.1,6.1314,6.1493,6.1493,6.149,6.1517,6.1535,6.1535,6.1575,6.1633,6.1633,6.1663,6.1699,6.1699,6.1699,6.1699,6.1699,6.1699,6.1699,6.1699,6.1699,6.1699,6.1699,6.1699,6.1699,6.1699,6.1699,6.1699,6.1699,6.1702,6.1706,6.169,6.1692,6.1692,6.1692,6.1697,6.1487,6.0315,5.9558,5.8878,5.7765,5.7042,5.673,5.7317,5.7455,5.767,5.8491,5.8728,5.8983,5.9823,6.0,6.0254,6.1094,6.1269,6.1367,6.164,6.1699,6.1679,6.1647,6.1615,6.1579,6.1519,6.1476,6.1426,6.1333,6.1337,6.1281,6.1171,6.1171,6.115,6.1146,6.1159,6.1168,6.1168,6.1168,6.1168,6.1168,6.115,6.1122,6.1122,6.1103,6.1099,6.1099,6.1099,6.1718,4.6405,4.7411,4.8551,4.9622,5.0123,5.0506,5.1066,5.1199,5.1199,5.1199,5.1199,5.1199,5.1199,5.2565,5.3692,5.3692,5.5168,5.6295,5.6295,5.7305,5.8218,5.8739,5.9846,6.0775,6.1358,6.0836,6.0716,6.1354,6.1441,6.1467,6.1467,6.1467,6.1479,6.15,6.15,6.1527,6.1555,6.1555,6.1588,6.1628,6.1628,6.1634,6.1666,6.1666,6.1671,6.1699,6.1699,6.1699,6.1699,6.1699,6.1699,6.1699,6.1699,6.1699,6.1699,6.1699,6.1699,6.1699,6.1699,6.1699,6.1699,6.1699,6.1705,6.1536,6.0657,6.0017,5.9398,5.8557,5.7932,5.7621,5.817,5.8327,5.8543,5.9364,5.9602,5.9859,6.0699,6.0858,6.1035,6.1582,6.1699,6.1699,6.1699,6.1678,6.1624,6.151,6.1495,6.1452,6.1384,6.1354,6.1327,6.1237,6.1221,6.1192,6.1108,6.1099,6.1099,6.1099,6.1099,6.1099,6.1099,6.1099,6.1099,6.1099,6.1099,6.1099,6.1099,6.1099,6.1427,6.2027,6.2027,6.296,4.7499,4.8694,4.9909,4.9957,5.0581,5.1199,5.1199,5.1199,5.1199,5.1199,5.1199,5.1199,5.1193,5.252,5.3653,5.3685,5.5123,5.6246,5.6285,5.7715,5.878,5.878,6.0311,6.1378,6.1378,6.12,6.118,6.1352,6.1378,6.1378,6.1378,6.1378,6.1391,6.146,6.1463,6.1473,6.1473,6.1478,6.1478,6.1478,6.1478,6.1504,6.1565,6.1565,6.1604,6.167,6.167,6.167,6.167,6.167,6.1672,6.1675,6.1694,6.1697,6.1699,6.1699,6.1699,6.1699,6.1699,6.1699,6.1699,6.1699,6.1699,6.1543,6.0725,6.0432,6.0237,5.9396,5.9123,5.9106,5.9155,5.9177,5.9394,6.0261,6.0477,6.0693,6.1513,6.1694,6.1697,6.1697,6.1698,6.1699,6.1699,6.1626,6.1515,6.1331,6.128,6.1296,6.1296,6.1296,6.1237,6.1117,6.1099,6.1099,6.1099,6.1099,6.1099,6.1099,6.1099,6.1099,6.1099,6.1099,6.1118,6.1176,6.1176,6.1195,6.1234,6.1273,6.2143,6.3773,6.3811,6.474,4.8918,4.9576,5.0059,5.07,5.1047,5.1199,5.1199,5.1199,5.1199,5.1199,5.1199,5.1178,5.1065,5.1968,5.2909,5.345,5.4463,5.5393,5.599,5.7478,5.8494,5.8494,6.0002,6.1027,6.1027,6.0973,6.0968,6.1027,6.1027,6.1027,6.1027,6.1027,6.1041,6.1045,6.105,6.1072,6.1123,6.1128,6.1138,6.1138,6.1138,6.113,6.1151,6.1151,6.1161,6.1175,6.1175,6.1175,6.1178,6.1221,6.1348,6.1485,6.1539,6.16,6.1699,6.1699,6.1699,6.1699,6.1699,6.1699,6.1699,6.1699,6.1699,6.166,6.1446,6.092,6.0354,6.0139,5.9591,5.9241,5.9908,6.0065,6.028,6.1161,6.1363,6.1427,6.1642,6.1707,6.1692,6.1692,6.1661,6.1627,6.1627,6.1482,6.1352,6.132,6.1201,6.1152,6.1152,6.1152,6.1134,6.1103,6.1099,6.1099,6.1099,6.1099,6.1099,6.1099,6.1099,6.1099,6.1099,6.1099,6.1408,6.2061,6.2061,6.2394,6.3038,6.3695,6.4237,6.4682,6.5281,6.6495,4.9535,5.0176,5.0581,5.1086,5.1199,5.1199,5.1199,5.115,5.1118,5.1118,5.1042,5.097,5.0883,5.1606,5.25,5.3281,5.4138,5.4989,5.5797,5.7352,5.8403,5.8403,5.9884,6.0906,6.0906,6.0817,6.0773,6.0773,6.0844,6.0906,6.0906,6.0906,6.0906,6.0906,6.0906,6.0918,6.0954,6.0954,6.0962,6.0962,6.0962,6.0966,6.1001,6.1001,6.1008,6.1007,6.1007,6.1007,6.1007,6.105,6.1163,6.1359,6.1419,6.1545,6.1664,6.1694,6.1699,6.1699,6.1699,6.1699,6.1699,6.1699,6.1699,6.1699,6.1699,6.1368,6.0978,6.0978,6.0626,6.0353,6.0841,6.0978,6.1094,6.1582,6.1705,6.1691,6.1691,6.1698,6.1682,6.1611,6.1527,6.147,6.1437,6.1334,6.1244,6.1229,6.1147,6.1099,6.1099,6.1099,6.1099,6.1099,6.1099,6.1099,6.1099,6.1442,6.1674,6.1674,6.2027,6.224,6.224,6.224,6.2472,6.2955,6.2975,6.3405,6.4275,6.4759,6.5571,6.6688,6.7133,6.8255,4.9807,5.0619,5.1199,5.1199,5.1199,5.1196,5.1184,5.1075,5.0982,5.0967,5.0819,5.0696,5.0674,5.1304,5.2104,5.2954,5.3817,5.4665,5.5495,5.7075,5.8202,5.8317,5.9705,6.0702,6.0823,6.0675,6.0577,6.0577,6.0733,6.0823,6.0823,6.0823,6.0823,6.0823,6.0823,6.0823,6.0823,6.0823,6.0823,6.0823,6.0823,6.0871,6.0915,6.0915,6.093,6.0917,6.0917,6.0917,6.0917,6.0921,6.1049,6.1229,6.1298,6.14,6.1534,6.1604,6.164,6.1668,6.1668,6.1693,6.1699,6.1699,6.1699,6.1699,6.1699,6.1699,6.1699,6.1699,6.1699,6.1699,6.1699,6.1699,6.1699,6.1699,6.1693,6.1668,6.1668,6.1654,6.1608,6.1485,6.1358,6.1246,6.1205,6.1178,6.1149,6.1108,6.1094,6.1099,6.1099,6.1099,6.1099,6.1099,6.1195,6.1273,6.1273,6.2061,6.2564,6.2564,6.3289,6.3695,6.3695,6.3695,6.3753,6.3869,6.3869,6.4353,6.5339,6.5455,6.6688,6.8965,6.9081,6.9918,5.0542,5.1086,5.1199,5.1199,5.1199,5.1162,5.1058,5.102,5.094,5.0799,5.0718,5.0665,5.0553,5.075,5.1166,5.1933,5.2744,5.3584,5.444,5.5924,5.7181,5.7902,5.884,5.9701,6.0416,6.0459,6.0432,6.0432,6.0473,6.0493,6.0493,6.0493,6.0493,6.0493,6.0493,6.0493,6.0493,6.0493,6.0493,6.0493,6.0493,6.0487,6.0507,6.0507,6.0501,6.0501,6.0501,6.0501,6.0508,6.0565,6.0671,6.0821,6.0887,6.1012,6.1197,6.121,6.134,6.1535,6.1535,6.1618,6.1699,6.1699,6.1699,6.1699,6.1699,6.1699,6.1699,6.1699,6.1699,6.1699,6.1699,6.1699,6.1699,6.1699,6.1621,6.1535,6.1535,6.1395,6.1285,6.1269,6.1189,6.113,6.1124,6.1073,6.1027,6.1022,6.1051,6.1099,6.1099,6.1099,6.1099,6.1099,6.1732,6.2177,6.2177,6.2975,6.3463,6.3463,6.3618,6.3695,6.3695,6.3695,6.4043,6.4759,6.4778,6.5533,6.7075,6.7791,6.8719,6.9807,7.0537,7.1021,5.0736,5.1199,5.1187,5.1118,5.1105,5.1058,5.0883,5.0473,5.0211,5.0538,5.0216,4.9982,5.0328,5.0439,5.0759,5.156,5.2367,5.3209,5.4077,5.5587,5.6919,5.7791,5.8606,5.9434,6.032,6.0396,6.0396,6.0396,6.0396,6.0396,6.0396,6.0396,6.0396,6.0396,6.0396,6.0396,6.0396,6.0396,6.0396,6.0396,6.0396,6.0396,6.0396,6.0396,6.0396,6.0396,6.0396,6.0396,6.0396,6.0431,6.0533,6.0652,6.0724,6.0872,6.1047,6.1058,6.1149,6.1298,6.1298,6.1368,6.1444,6.1444,6.1566,6.1694,6.1623,6.1591,6.1591,6.1591,6.1521,6.1444,6.1444,6.1444,6.1444,6.1444,6.1387,6.1345,6.1345,6.1215,6.1099,6.1099,6.1007,6.0947,6.0992,6.0971,6.0964,6.0995,6.1026,6.1061,6.1061,6.1466,6.1771,6.1771,6.2158,6.2583,6.3033,6.3889,6.4372,6.4372,6.4778,6.5011,6.5011,6.5011,6.5204,6.5629,6.5629,6.6475,6.8172,6.8598,6.9454,7.0697,7.1103,7.1297,5.0426,5.0963,5.1059,5.0955,5.0817,5.0627,5.0437,4.9682,4.9254,5.0038,4.96,4.9352,5.0149,5.0302,5.0531,5.1213,5.2155,5.3034,5.3722,5.5269,5.6664,5.7523,5.8345,5.9185,6.0033,6.0281,6.0396,6.0396,6.0396,6.0396,6.0396,6.0396,6.0396,6.0396,6.0396,6.0396,6.0396,6.0396,6.0396,6.0396,6.0396,6.0396,6.0396,6.0396,6.0396,6.0396,6.0396,6.0396,6.0396,6.0396,6.046,6.0559,6.0618,6.0732,6.089,6.0901,6.0945,6.1037,6.1037,6.1093,6.1172,6.1159,6.134,6.1572,6.1464,6.1439,6.1439,6.1439,6.1313,6.1209,6.1209,6.1209,6.1183,6.1166,6.1159,6.1147,6.1112,6.1028,6.0954,6.0954,6.0872,6.0818,6.0863,6.088,6.0922,6.0965,6.0985,6.1064,6.1238,6.1921,6.253,6.2897,6.2946,6.3226,6.3927,6.4759,6.5262,6.5262,6.5857,6.6205,6.6205,6.6205,6.6205,6.6205,6.6205,6.6978,6.852,6.852,6.9377,7.1026,7.0847,7.0866,4.9439,5.0199,5.0735,5.0722,5.0182,4.9603,4.9457,4.8745,4.8326,4.9089,4.9154,4.9352,5.0149,5.0302,5.034,5.0417,5.1754,5.283,5.2906,5.4409,5.5804,5.6613,5.7485,5.8326,5.914,5.9931,6.0396,6.0396,6.0396,6.0396,6.0396,6.0396,6.0396,6.0396,6.0396,6.0396,6.0396,6.0396,6.0396,6.0396,6.0396,6.0396,6.0396,6.0396,6.0396,6.0396,6.0396,6.0396,6.0396,6.0396,6.041,6.0431,6.0418,6.048,6.0552,6.0546,6.0667,6.0827,6.0827,6.0942,6.1085,6.0962,6.1076,6.1246,6.1233,6.123,6.123,6.123,6.122,6.1209,6.1209,6.1209,6.1173,6.1051,6.1025,6.0998,6.0861,6.0833,6.0816,6.0816,6.0818,6.0806,6.0812,6.0858,6.0891,6.0916,6.0965,6.1248,6.2,6.2227,6.2925,6.4504,6.4729,6.4798,6.4875,6.5624,6.6089,6.6089,6.6166,6.6205,6.6205,6.6205,6.6205,6.6205,6.6205,6.6669,6.7617,6.7617,6.8487,7.0098,6.9377,6.9415,4.8503,4.8953,4.9187,4.9099,4.8826,4.8553,4.8423,4.7716,4.7489,4.8815,4.8678,4.8711,5.0054,5.0302,5.0302,5.0302,5.1295,5.2251,5.2734,5.3855,5.5116,5.6441,5.7371,5.823,5.9026,5.9892,6.0396,6.0396,6.0396,6.0396,6.0396,6.0396,6.0396,6.0396,6.0396,6.0396,6.0396,6.0396,6.0396,6.0396,6.0396,6.0396,6.0396,6.0396,6.0396,6.0396,6.0396,6.0396,6.0396,6.0396,6.0396,6.0396,6.0396,6.0417,6.0438,6.0438,6.052,6.0628,6.0628,6.0725,6.0848,6.0795,6.0866,6.0964,6.1064,6.1074,6.1074,6.1074,6.1015,6.0964,6.0964,6.0964,6.0958,6.089,6.0883,6.0861,6.0804,6.0806,6.0806,6.0806,6.0806,6.0806,6.0806,6.0823,6.1014,6.1534,6.1656,6.1965,6.2813,6.3442,6.4078,6.4773,6.4935,6.5204,6.5682,6.6011,6.6205,6.6205,6.6205,6.6205,6.6205,6.6205,6.6205,6.6205,6.6205,6.663,6.7501,6.7501,6.8119,6.928,6.8946,6.8965,4.7477,4.785,4.8001,4.7952,4.7739,4.7515,4.7434,4.6762,4.6634,4.8353,4.8233,4.8309,4.999,5.0302,5.0302,5.0302,5.1022,5.1882,5.2696,5.355,5.4639,5.6071,5.7218,5.8116,5.8682,5.9739,6.0396,6.0396,6.0396,6.0396,6.0396,6.0396,6.0396,6.0396,6.0396,6.0396,6.0396,6.0396,6.0396,6.0396,6.0396,6.0396,6.0396,6.0396,6.0396,6.0396,6.0396,6.0396,6.0396,6.0396,6.0396,6.0396,6.0396,6.0396,6.0396,6.0396,6.0431,6.0472,6.0472,6.0565,6.066,6.066,6.0735,6.0816,6.0902,6.0948,6.0948,6.0948,6.0872,6.0806,6.0806,6.0806,6.0806,6.0806,6.0806,6.0806,6.0806,6.0806,6.0806,6.0806,6.0806,6.0806,6.0806,6.1018,6.1383,6.1999,6.2303,6.277,6.3636,6.4344,6.4866,6.5136,6.525,6.5526,6.6121,6.6194,6.6205,6.6205,6.6205,6.6205,6.6205,6.6205,6.6205,6.6205,6.6205,6.6495,6.7114,6.7114,6.7559,6.8404,6.8153,6.8037,4.6338,4.7058,4.7649,4.7771,4.7099,4.6437,4.6492,4.5889,4.5799,4.7469,4.7813,4.8309,4.999,5.0302,5.0302,5.0302,5.1022,5.1882,5.2696,5.355,5.4428,5.5301,5.6874,5.7905,5.7905,5.9422,6.0396,6.0396,6.0396,6.0396,6.0396,6.0396,6.0396,6.0396,6.0396,6.0396,6.0396,6.0396,6.0396,6.0396,6.0396,6.0396,6.0396,6.0396,6.0396,6.0396,6.0396,6.0396,6.0396,6.0396,6.0396,6.0396,6.0396,6.0396,6.0396,6.0396,6.0396,6.0396,6.0396,6.0485,6.0604,6.0604,6.0692,6.0806,6.0806,6.0806,6.0806,6.0806,6.0806,6.0806,6.0806,6.0806,6.0806,6.0806,6.0806,6.0806,6.0806,6.0806,6.0806,6.0806,6.0806,6.0806,6.0806,6.1518,6.2095,6.2095,6.2781,6.3602,6.4474,6.4651,6.5039,6.5906,6.5998,6.6016,6.6096,6.6155,6.6205,6.6205,6.6205,6.6205,6.6205,6.6205,6.6205,6.6205,6.6205,6.6205,6.6205,6.6205,6.6669,6.7501,6.663,6.6224,4.4729,4.5404,4.6042,4.6074,4.5802,4.5536,4.5657,4.541,4.5663,4.7433,4.7794,4.8309,4.999,5.0302,5.0302,5.0302,5.0531,5.12,5.2601,5.304,5.376,5.5224,5.6874,5.8345,5.9498,6.009,6.0396,6.0396,6.0396,6.0396,6.0396,6.0396,6.0396,6.0396,6.0396,6.0396,6.0396,6.0396,6.0396,6.0396,6.0396,6.0396,6.0396,6.0396,6.0396,6.0396,6.0396,6.0396,6.0396,6.0396,6.0396,6.0396,6.0396,6.0396,6.0396,6.0396,6.0396,6.0396,6.0396,6.0458,6.0539,6.0584,6.0667,6.0734,6.0794,6.0806,6.0806,6.0806,6.0806,6.0806,6.0806,6.0806,6.0806,6.0806,6.0806,6.0806,6.0806,6.0806,6.0806,6.0806,6.0806,6.0806,6.0806,6.1518,6.2287,6.2839,6.3641,6.4493,6.5378,6.5512,6.5627,6.5897,6.5971,6.6011,6.603,6.6052,6.6085,6.6123,6.6128,6.6144,6.6205,6.6205,6.6205,6.6205,6.6205,6.6205,6.6205,6.6205,6.634,6.6592,6.6321,6.6514,4.3901,4.4591,4.5249,4.5291,4.5197,4.5136,4.5275,4.5249,4.5668,4.7433,4.7794,4.8309,4.999,5.0302,5.0302,5.0302,5.0302,5.0894,5.2562,5.2811,5.3683,5.6071,5.7256,5.8562,6.0243,6.0396,6.0396,6.0396,6.0396,6.0396,6.0396,6.0396,6.0396,6.0396,6.0396,6.0396,6.0396,6.0396,6.0396,6.0396,6.0396,6.0396,6.0396,6.0396,6.0396,6.0396,6.0396,6.0396,0.0,6.0396,6.0396,6.0396,6.0396,6.0396,6.0396,6.0396,6.0396,6.0396,6.0396,6.0444,6.0505,6.0552,6.061,6.0703,6.0788,6.0806,6.0806,6.0806,6.0806,6.0806,6.0806,6.0806,6.0806,6.0806,6.0806,6.0806,6.0806,6.0806,6.0806,6.0806,6.0806,6.0806,6.0806,6.1768,6.2724,6.3218,6.4314,6.5282,6.582,6.5904,6.5904,6.5904,6.5941,6.5959,6.5956,6.5978,6.6024,6.6063,6.6063,6.6091,6.6149,6.6134,6.6139,6.6205,6.6184,6.6165,6.6205,6.6205,6.6205,6.6205,6.6533,6.6978,0.0,4.4494,4.5131,4.5246,4.5192,4.5136,4.5265,4.5329,0.0,4.7469,4.7851,4.8386,4.9996,5.0302,5.0302,5.0302,5.0302,5.0894,5.2562,5.2906,5.4199,5.7504,5.7905,5.8562,6.0243,6.0396,6.0396,6.0396,6.0396,6.0396,6.0396,6.0396,6.0396,6.0396,6.0396,6.0396,6.0396,6.0396,6.0396,6.0396,6.0396,6.0396,6.0396,6.0396,6.0396,6.0396,6.0396,6.0396,6.0396,6.0396,6.0396,6.0396,6.0396,6.0396,6.0396,6.0396,6.0396,6.0396,6.0396,6.0438,6.0492,6.0499,6.0597,6.0717,6.0777,6.08,6.0806,6.0806,6.0806,6.0806,6.0806,6.0806,6.0806,6.0806,6.0806,6.0806,6.0806,6.0806,6.0806,6.0806,6.0806,6.0806,6.0806,6.2185,6.3295,6.3295,6.4782,6.5904,6.5904,6.5904,6.5904,6.5904,6.5904,6.5904,6.5904,6.597,6.5996,6.6001,6.6001,6.603,6.6091,6.6036,6.6058,6.617,6.6123,6.6128,6.62,6.6263,6.6282,6.6301,6.7191,6.7611,4.2896,0.0,4.5114,4.5142,4.5125,4.5114,0.0,4.5662,4.6466,4.7567,4.8334,4.9104,5.0111,5.0302,5.0302,5.0302,5.0302,5.0894,5.2562,5.3951,5.5556,5.7657,5.7905,5.8562,6.0243,6.0396,6.0396,6.0396,6.0396,6.0396,6.0396,6.0396,6.0396,6.0396,6.0396,6.0396,6.0396,6.0396,6.0396,6.0396,6.0396,6.0396,6.0396,6.0396,6.0396,6.0396,6.0396,6.0396,6.0396,6.0396,6.0396,6.0396,6.0396,6.0396,6.0396,6.0396,6.0396,6.0396,6.0396,6.041,6.0431,6.0485,6.0558,6.0642,6.0691,6.0771,6.0806,6.0806,6.0806,6.0806,6.0806,6.0806,6.0806,6.0806,6.0806,6.0806,6.0806,6.0806,6.0806,6.0806,6.0806,6.0806,6.0806,6.2185,6.3295,6.3295,6.4782,6.5904,6.5904,6.5904,6.5904,6.5904,6.5904,6.5904,6.5904,6.591,6.5947,6.6001,6.6001,6.6011,6.6024,6.6013,6.5999,6.6052,6.608,6.6107,6.6137,6.6842,6.7191,6.723,6.8095,6.8808,4.2591,4.3828,4.512,4.5175,4.5148,4.5103,4.5103,4.5795,4.6692,4.7524,4.8388,4.9239,5.0137,5.0249,5.0231,5.029,5.064,5.1486,5.3148,5.4543,5.6014,5.7695,5.7905,5.8562,6.0243,6.0396,6.0396,6.0396,6.0396,6.0396,6.0396,6.0396,6.0396,6.0396,6.0396,6.0396,6.0396,6.0396,6.0396,6.0396,6.0396,6.0396,6.0396,6.0396,6.0396,6.0396,6.0396,6.0396,6.0396,6.0396,6.0396,6.0396,6.0396,6.0396,6.0396,6.0396,6.0396,6.0396,6.0396,6.0396,6.041,6.0479,6.0525,6.0571,6.066,6.0735,6.0771,6.0794,6.0806,6.0806,6.0806,6.0806,6.0806,6.0806,6.0806,6.0806,6.0806,6.0806,6.0806,6.0806,6.0806,6.0806,6.0806,6.2185,6.3295,6.3295,6.4782,6.5904,6.5904,6.5904,6.5904,6.5904,6.5904,6.5904,6.5904,6.5904,6.5916,6.5954,6.5954,6.5965,6.6005,6.5982,6.5976,6.6011,6.6049,6.6251,6.6656,6.7153,6.7614,6.8033,6.8903,6.9523,4.2702,4.3895,4.5103,4.5208,4.517,4.5103,4.5103,4.5905,4.6852,4.7502,4.8374,4.9293,5.0145,5.0207,5.017,5.0284,5.1137,5.2321,5.3874,5.4849,5.6014,5.7695,5.7905,5.8562,6.0243,6.0396,6.0396,6.0396,6.0396,6.0396,6.0396,6.0396,6.0396,6.0396,6.0396,6.0396,6.0396,6.0396,6.0396,6.0396,6.0396,6.0396,6.0396,6.0396,6.0396,6.0396,6.0396,6.0396,6.0396,6.0396,6.0396,6.0396,6.0396,6.0396,6.0396,6.0396,6.0396,6.0396,6.0396,6.0396,6.041,6.0465,6.0485,6.0512,6.0623,6.066,6.0698,6.0752,6.0794,6.0806,6.0806,6.0806,6.0806,6.0806,6.0806,6.0806,6.0806,6.0806,6.0806,6.0806,6.0806,6.0806,6.0806,6.2185,6.3295,6.3295,6.4782,6.5904,6.5904,6.5904,6.5904,6.5904,6.5904,6.5904,6.5904,6.5904,6.5904,6.5904,6.5904,6.5929,6.5984,6.5935,6.5929,6.5984,6.6121,6.6549,6.7282,6.7564,6.8071,6.8823,6.9672,7.0071,4.3338,4.4211,4.495,4.4949,4.502,4.5103,4.5103,4.6306,4.7489,4.7716,4.9007,5.0126,5.0277,5.0284,5.0278,5.0296,5.1601,5.2957,5.3951,5.4849,5.6014,5.7695,5.7905,5.8562,6.0243,6.0396,6.0396,6.0396,6.0396,6.0396,6.0396,6.0396,6.0396,6.0396,6.0396,6.0396,6.0396,6.0396,6.0396,6.0396,6.0396,6.0396,6.0396,6.0396,6.0396,6.0396,6.0396,6.0396,6.0396,6.0396,6.0396,6.0396,6.0396,6.0396,6.0396,6.0396,6.0396,6.0396,6.0396,6.0396,6.0396,6.041,6.0417,6.0431,6.0512,6.0532,6.0565,6.0673,6.0765,6.0806,6.0806,6.0806,6.0806,6.0806,6.0806,6.0806,6.0806,6.0806,6.0806,6.0806,6.0806,6.0806,6.0806,6.2185,6.3295,6.3295,6.4782,6.5904,6.5904,6.5904,6.5904,6.5904,6.5904,6.5904,6.5904,6.5904,6.5904,6.5904,6.5904,6.5904,6.5916,6.5904,6.5904,6.5916,6.6646,6.7081,6.7216,6.8761,6.9576,6.9711,7.054,7.0895,4.3405,4.4257,4.4895,4.4895,4.4943,4.5118,4.5593,4.6685,4.7746,4.8288,4.9362,5.0194,5.0194,5.0194,5.0505,5.1493,5.269,5.3817,5.4677,5.5517,5.6511,5.7753,5.8288,5.9033,6.0281,6.0396,6.0396,6.0396,6.0396,6.0396,6.0396,6.0396,6.0396,6.0396,6.0396,6.0396,6.0396,6.0396,6.0396,6.0396,6.0396,6.0396,6.0396,6.0396,6.0396,6.0396,6.0396,6.0396,6.0396,6.0396,6.0396,6.0396,6.0396,6.0396,6.0396,6.0396,6.0396,6.0396,6.0396,6.0396,6.0396,6.0396,6.0396,6.041,6.0479,6.0499,6.0532,6.0654,6.0716,6.0746,6.0794,6.0806,6.0806,6.0806,6.0806,6.0806,6.0806,6.0806,6.0806,6.0806,6.0806,6.0806,6.0806,6.2185,6.3295,6.3295,6.4782,6.5904,6.5904,6.5904,6.5904,6.5904,6.5904,6.5904,6.5904,6.5904,6.5904,6.5904,6.5904,6.5904,6.5904,6.5904,6.6096,6.6538,6.6949,6.7616,6.8552,6.94,7.0009,7.0452,7.0818,7.0979,4.356,4.4372,4.4889,4.4852,4.487,4.5122,4.5981,4.6841,4.7725,4.868,4.9486,5.0038,5.0133,5.0317,5.0945,5.2444,5.3417,5.4268,5.5145,5.5873,5.6697,5.765,5.847,5.9338,6.0313,6.0396,6.0396,6.0396,6.0396,6.0396,6.0396,6.0396,6.0396,6.0396,6.0396,6.0396,6.0396,6.0396,6.0396,6.0396,6.0396,6.0396,6.0396,6.0396,6.0396,6.0396,6.0396,6.0396,6.0396,6.0396,6.0396,6.0396,6.0396,6.0396,6.0396,6.0396,6.0396,6.0396,6.0396,6.0396,6.0396,6.0396,6.0396,6.041,6.0458,6.0479,6.0505,6.061,6.0654,6.0704,6.0783,6.0806,6.0806,6.0806,6.0806,6.0806,6.0806,6.0806,6.0806,6.0806,6.0806,6.0806,6.0806,6.2185,6.3295,6.3295,6.4782,6.5904,6.5904,6.5904,6.5904,6.5904,6.5904,6.5904,6.5904,6.5904,6.5904,6.5904,6.5904,6.5904,6.5904,6.6077,6.6481,6.7096,6.75,6.8359,6.9706,6.9898,7.0302,7.0898,7.0898,7.0898,4.4158,4.4758,4.4864,4.4757,4.4821,4.5103,4.5918,4.6583,4.7386,4.8555,4.9288,4.983,5.0212,5.0953,5.1681,5.2237,5.308,5.3926,5.4741,5.5276,5.6013,5.7191,5.8048,5.9019,6.0272,6.0396,6.0396,6.0396,6.0396,6.0396,6.0396,6.0396,6.0396,6.0396,6.0396,6.0396,6.0396,6.0396,6.0396,6.0396,6.0396,6.0396,6.0396,6.0396,6.0396,6.0396,6.0396,6.0396,6.0396,6.0396,6.0396,6.0396,6.0396,6.0396,6.0396,6.0396,6.0396,6.0396,6.0396,6.0396,6.0396,6.0396,6.0396,6.0396,6.0403,6.0403,6.0417,6.0499,6.0558,6.0642,6.0771,6.0806,6.0806,6.0806,6.0806,6.0806,6.0806,6.0806,6.0806,6.0806,6.0806,6.0806,6.0806,6.2185,6.3295,6.3295,6.4782,6.5904,6.5904,6.5904,6.5904,6.5904,6.5904,6.5904,6.5904,6.5904,6.5904,6.5904,6.5904,6.5904,6.5904,6.6615,6.7039,6.7096,6.8686,6.9571,6.9706,7.0456,7.0841,7.0898,7.0898,7.0898,4.4455,4.4751,4.464,4.4635,4.5174,4.5855,4.6465,4.7027,4.775,4.889,4.9254,4.9597,5.0247,5.1032,5.1843,5.2603,5.347,5.4148,5.4449,5.5727,5.6795,5.7259,5.8722,5.9867,6.0351,6.0396,6.0396,6.0396,6.0396,6.0396,6.0396,6.0396,6.0396,6.0396,6.0396,6.0396,6.0396,6.0396,6.0396,6.0396,6.0396,6.0396,6.0396,6.0396,6.0396,6.0396,6.0396,6.0396,6.0396,6.0396,6.0396,6.0396,6.0396,6.0396,6.0396,6.0396,6.0396,6.0396,6.0396,6.0396,6.0396,6.0396,6.0396,6.0396,6.0396,6.0396,6.041,6.0485,6.0552,6.0623,6.0703,6.0777,6.0806,6.0806,6.0806,6.0806,6.0806,6.0806,6.0806,6.0806,6.0806,6.0979,6.1518,6.2551,6.3487,6.4025,6.5128,6.5904,6.5904,6.5904,6.5904,6.5904,6.5904,6.5904,6.5904,6.5904,6.6109,6.6615,6.6654,6.6654,6.6654,6.7455,6.8167,6.8706,6.936,6.9956,7.0456,7.0744,7.0898,7.0898,7.0898,7.0898,4.4375,4.4507,4.4427,4.4636,4.5423,4.6268,4.6839,4.7364,4.8004,4.8953,4.9335,4.9666,5.0187,5.1213,5.2163,5.275,5.3572,5.4114,5.4114,5.5633,5.6806,5.6945,5.8767,6.0064,6.02,6.032,6.0396,6.0396,6.0396,6.0396,6.0396,6.0396,6.0396,6.0396,6.0396,6.0396,6.0396,6.0396,6.0396,6.0396,6.0396,6.0396,6.0396,6.0396,6.0396,6.0396,6.0396,6.0396,6.0396,6.0396,6.0396,6.0396,6.0396,6.0396,6.0396,6.0396,6.0396,6.0396,6.0396,6.0396,6.0396,6.0396,6.0396,6.0396,6.0396,6.0396,6.041,6.0485,6.0552,6.0617,6.0673,6.0759,6.0806,6.0806,6.0806,6.0806,6.0806,6.0806,6.0806,6.0806,6.1018,6.1402,6.1999,6.2993,6.391,6.4512,6.534,6.5904,6.5904,6.5904,6.5904,6.5904,6.5904,6.5904,6.5904,6.6134,6.6519,6.7077,6.7616,6.7802,6.7513,6.8359,6.9084,6.9687,6.9956,7.036,7.0898,7.0898,7.0898,7.0898,7.0898,7.0898,4.3886,4.4091,4.4234,4.4767,4.5459,4.6209,4.693,4.7454,4.7996,4.8666,4.9541,5.016,5.0032,5.1539,5.2736,5.2549,5.3172,5.3701,5.3701,5.4785,5.5751,5.616,5.7968,5.9342,5.975,6.0151,6.0389,6.0389,6.0396,6.0396,6.0396,6.0396,6.0396,6.0396,6.0396,6.0396,6.0396,6.0396,6.0396,6.0396,6.0396,6.0396,6.0396,6.0396,6.0396,6.0396,6.0396,6.0396,6.0396,6.0396,6.0396,6.0396,6.0396,6.0396,6.0396,6.0396,6.0396,6.0396,6.0396,6.0396,6.0396,6.0396,6.0396,6.0396,6.0396,6.0396,6.041,6.0485,6.0552,6.0617,6.0673,6.0759,6.0806,6.0806,6.0806,6.0806,6.0806,6.0806,6.0806,6.0806,6.1499,6.2095,6.2114,6.3493,6.4609,6.4609,6.534,6.5904,6.5904,6.5904,6.5904,6.5904,6.5904,6.5904,6.5904,6.6635,6.7116,6.7116,6.8744,6.9321,6.8449,6.9244,6.9706,6.9706,7.0494,7.0898,7.0898,7.0898,7.0898,7.0898,7.0898,7.0898,4.4158,4.4026,4.3978,4.4717,4.5596,4.6376,4.6731,4.7402,4.8151,4.8919,4.9392,4.9937,5.0937,5.1664,5.228,5.2878,5.3191,5.3357,5.3357,5.4408,5.5431,5.6116,5.7482,5.864,5.9304,5.9741,5.998,5.998,6.0237,6.0396,6.0396,6.0396,6.0396,6.0396,6.0396,6.0396,6.0396,6.0396,6.0396,6.0396,6.0396,6.0396,6.0396,6.0396,6.0396,6.0396,6.0396,6.0396,6.0396,6.0396,6.0396,6.0396,6.0396,6.0396,6.0396,6.0396,6.0396,6.0396,6.0396,6.0396,6.0396,6.0396,6.0396,6.0396,6.0396,6.0396,6.041,6.0485,6.0552,6.0617,6.0673,6.0759,6.0806,6.0806,6.0806,6.0806,6.0806,6.0806,6.0806,6.0806,6.1499,6.2287,6.2858,6.3858,6.4801,6.5416,6.5731,6.5904,6.5904,6.5904,6.5904,6.5904,6.5904,6.6134,6.6692,6.6962,6.7616,6.884,6.9417,6.959,6.934,7.011,7.0533,7.0533,7.0783,7.0898,7.0898,7.0898,7.0898,7.0898,7.0898,7.0898,4.3884,4.3925,4.4122,4.4875,4.58,4.6636,4.7075,4.7541,4.8117,4.8977,4.9477,5.0149,5.1448,5.2012,5.2482,5.3101,5.3196,5.3196,5.3196,5.4101,5.505,5.5872,5.7027,5.8081,5.8885,5.9334,5.9641,5.9782,6.0026,6.0229,6.0389,6.0396,6.0396,6.0396,6.0396,6.0396,6.0396,6.0396,6.0396,6.0396,6.0396,6.0396,6.0396,6.0396,6.0396,6.0396,6.0396,6.0396,6.0396,6.0396,6.0396,6.0396,6.0396,6.0396,6.0396,6.0396,6.0396,6.0396,6.0396,6.0396,6.0396,6.0396,6.0396,6.0396,6.0396,6.0396,6.041,6.0485,6.0552,6.0617,6.0673,6.0759,6.0806,6.0806,6.0806,6.0806,6.0806,6.0806,6.0902,6.1248,6.1999,6.2839,6.366,6.4551,6.5282,6.582,6.5904,6.5904,6.5904,6.5904,6.5904,6.5904,6.6192,6.6577,6.7058,6.7731,6.8571,6.9629,6.9994,7.0187,7.0187,7.0648,7.0898,7.0898,7.0898,7.0898,7.0898,7.0898,7.0898,7.0898,7.0898,7.0898,4.3303,4.378,4.4439,4.5139,4.6049,4.6973,4.7718,4.7834,4.8075,4.9029,4.9795,5.0641,5.1702,5.2505,5.3042,5.3175,5.3196,5.3196,5.3196,5.382,5.4583,5.5401,5.6459,5.7458,5.8349,5.8807,5.9231,5.9717,5.9774,5.998,6.0382,6.0396,6.0396,6.0396,6.0396,6.0396,6.0396,6.0396,6.0396,6.0396,6.0396,6.0396,6.0396,6.0396,6.0396,6.0396,6.0396,6.0396,6.0396,6.0396,6.0396,6.0396,6.0396,6.0396,6.0396,6.0396,6.0396,6.0396,6.0396,6.0396,6.0396,6.0396,6.0396,6.0396,6.0396,6.0396,6.041,6.0485,6.0545,6.061,6.0673,6.0753,6.0794,6.08,6.0806,6.0806,6.0806,6.0864,6.1152,6.1941,6.2801,6.366,6.4455,6.532,6.5904,6.5904,6.5904,6.5904,6.5904,6.5904,6.5923,6.5994,6.6654,6.7154,6.7327,6.8783,6.9725,6.9802,7.0494,7.0898,7.0898,7.0898,7.0898,7.0898,7.0898,7.0898,7.0898,7.0898,7.0898,7.0898,7.0898,7.0898,4.3303,4.3706,4.4334,4.5119,4.6406,4.7521,4.7702,4.8217,4.8919,4.9913,5.0255,5.0854,5.2447,5.2871,5.3042,5.3175,5.3196,5.3196,5.3196,5.3343,5.3765,5.4564,5.49,5.5598,5.7052,5.7544,5.8228,5.925,5.9614,5.998,6.0382,6.0396,6.0396,6.0396,6.0396,6.0396,6.0396,6.0396,6.0396,6.0396,6.0396,6.0396,6.0396,6.0396,6.0396,6.0396,6.0396,6.0396,6.0396,6.0396,6.0396,6.0396,6.0396,6.0396,6.0396,6.0396,6.0396,6.0396,6.0396,6.0396,6.0396,6.0396,6.0396,6.0396,6.0396,6.0396,6.041,6.0485,6.0512,6.0552,6.066,6.0703,6.0728,6.0794,6.0806,6.0806,6.0806,6.1345,6.1883,6.2062,6.3301,6.4378,6.457,6.532,6.5904,6.5904,6.5904,6.5904,6.5904,6.5904,6.6134,6.6769,6.7,6.7648,6.9013,6.9475,6.9975,7.0591,7.0802,7.0898,7.0898,7.0898,7.0898,7.0898,7.0898,7.0898,7.0898,7.0898,7.0898,7.0898,7.0898,7.0898,4.3114,4.3876,4.4965,4.616,4.7073,4.7707,4.7707,4.8322,4.9191,5.0144,5.0649,5.1329,5.2652,5.2966,5.3042,5.3175,5.3196,5.3196,5.3196,5.3196,5.3489,5.4308,5.4399,5.5042,5.6645,5.7156,5.7905,5.9103,5.9571,5.998,6.0382,6.0396,6.0396,6.0396,6.0396,6.0396,6.0396,6.0396,6.0396,6.0396,6.0396,6.0396,6.0396,6.0396,6.0396,6.0396,6.0396,6.0396,6.0396,6.0396,6.0396,6.0396,6.0396,6.0396,6.0396,6.0396,6.0396,6.0396,6.0396,6.0396,6.0396,6.0396,6.0396,6.0396,6.0396,6.0396,6.0403,6.0438,6.0499,6.0565,6.0623,6.071,6.0765,6.0794,6.0806,6.0921,6.1325,6.1787,6.2345,6.3134,6.3993,6.4724,6.5147,6.559,6.5904,6.5904,6.5904,6.6038,6.6423,6.6481,6.6801,6.7628,6.809,6.8706,6.9629,7.0052,7.0456,7.0879,7.0898,7.0898,7.0898,7.0898,7.0898,7.0898,7.0898,7.0898,7.0898,7.0898,7.0898,7.0898,7.0898,7.0898,4.2892,4.4069,4.5689,4.729,4.7707,4.7707,4.7707,4.8431,4.9333,5.0112,5.0926,5.1769,5.2678,5.2934,5.3042,5.3175,5.3196,5.3196,5.3196,5.3196,5.3453,5.4106,5.4197,5.4766,5.6242,5.689,5.7681,5.8906,5.9496,5.998,6.0382,6.0396,6.0396,6.0396,6.0396,6.0396,6.0396,6.0396,6.0396,6.0396,6.0396,6.0396,6.0396,6.0396,6.0396,6.0396,6.0396,6.0396,6.0396,6.0396,6.0396,6.0396,6.0396,6.0396,6.0396,6.0396,6.0396,6.0396,6.0396,6.0396,6.0396,6.0396,6.0396,6.0396,6.0396,6.0396,6.0396,6.0396,6.0479,6.0571,6.0591,6.0686,6.0815,6.0973,6.1018,6.1229,6.1941,6.2326,6.2941,6.4339,6.4724,6.5051,6.5788,6.5904,6.5904,6.5904,6.5904,6.6192,6.7,6.7096,6.7494,6.8526,6.9263,6.9763,6.9898,7.0514,7.0898,7.0898,7.0898,7.0898,7.0898,7.0898,7.0898,7.0898,7.0898,7.0898,7.0898,7.0898,7.0898,7.0898,7.0898,7.0898,4.2892,4.4069,4.5689,4.729,4.7707,4.7707,4.7707,4.8858,4.9974,5.0104,5.0853,5.1803,5.2787,5.2988,5.3042,5.3175,5.3196,5.3196,5.3196,5.3196,5.3232,5.3343,5.3361,5.371,5.4638,5.5706,5.6852,5.807,5.9183,5.998,6.0382,6.0396,6.0396,6.0396,6.0396,6.0396,6.0396,6.0396,6.0396,6.0396,6.0396,6.0396,6.0396,6.0396,6.0396,6.0396,6.0396,6.0396,6.0396,6.0396,6.0396,6.0396,6.0396,6.0396,6.0396,6.0396,6.0396,6.0396,6.0396,6.0396,6.0396,6.0396,6.0396,6.0396,6.0396,6.0396,6.0396,6.0396,6.041,6.0451,6.0571,6.061,6.0853,6.1725,6.1922,6.196,6.2076,6.3249,6.4339,6.457,6.5205,6.5763,6.5878,6.5904,6.5904,6.5904,6.5904,6.6192,6.7,6.7096,6.7731,6.936,6.9629,6.9975,7.0687,7.0841,7.0898,7.0898,7.0898,7.0898,7.0898,7.0898,7.0898,7.0898,7.0898,7.0898,7.0898,7.0898,7.0898,7.0898,7.0898,7.0898,4.3996,4.4765,4.5689,4.729,4.7707,4.7707,4.7707,4.8931,5.0101,5.0101,5.1179,5.2265,5.2795,5.2955,5.3042,5.3175,5.3196,5.3196,5.3196,5.3196,5.3196,5.3196,5.3196,5.3526,5.4326,5.5697,5.6949,5.7919,5.9336,6.0215,6.0389,6.0396,6.0396,6.0396,6.0396,6.0396,6.0396,6.0396,6.0396,6.0396,6.0396,6.0396,6.0396,6.0396,6.0396,6.0396,6.0396,6.0396,6.0396,6.0396,6.0396,6.0396,6.0396,6.0396,6.0396,6.0396,6.0396,6.0396,6.0396,6.0396,6.0396,6.0396,6.0396,6.0396,6.0396,6.0396,6.0396,6.0396,6.0424,6.0479,6.0571,6.0994,6.1511,6.1994,6.2826,6.3493,6.3493,6.4089,6.4743,6.5224,6.5628,6.5904,6.5904,6.5904,6.5904,6.5904,6.6288,6.6885,6.7725,6.8244,6.9013,7.0244,7.0379,7.0514,7.086,7.0898,7.0898,7.0898,7.0898,7.0898,7.0898,7.0898,7.0898,7.0898,7.0898,7.0898,7.0898,7.0898,7.0898,7.0898,7.0898,7.0898,4.491,4.5454,4.5943,4.7345,4.7707,4.7707,4.7707,4.8786,4.9847,5.0064,5.1288,5.2406,5.2702,5.2883,5.3042,5.3175,5.3196,5.3196,5.3196,5.3196,5.3196,5.3196,5.3196,5.3434,5.4051,5.5537,5.6819,5.7636,5.9174,6.0167,6.0396,6.0396,6.0396,6.0396,6.0396,6.0396,6.0396,6.0396,6.0396,6.0396,6.0396,6.0396,6.0396,6.0396,6.0396,6.0396,6.0396,6.0396,6.0396,6.0396,6.0396,6.0396,6.0396,6.0396,6.0396,6.0396,6.0396,6.0396,6.0396,6.0396,6.0396,6.0396,6.0396,6.0396,6.0396,6.0396,6.0396,6.0396,6.0438,6.053,6.0846,6.1448,6.21,6.2615,6.3685,6.4666,6.4878,6.4936,6.5128,6.5763,6.5904,6.5904,6.5904,6.5904,6.5981,6.6167,6.6731,6.75,6.8584,6.9295,7.0014,7.0802,7.0898,7.0898,7.0898,7.0898,7.0898,7.0898,7.0898,7.0898,7.0898,7.0898,7.0898,7.0898,7.0898,7.0898,7.0898,7.0898,7.0898,7.0898,7.0898,7.0898,4.5073,4.5852,4.6639,4.7489,4.7707,4.7707,4.7707,4.8359,4.9173,4.9938,5.0878,5.1773,5.2474,5.2809,5.3042,5.3175,5.3196,5.3196,5.3196,5.3196,5.3196,5.3196,5.3196,5.3214,5.3269,5.4652,5.5927,5.68,5.83,5.9529,6.0358,6.0396,6.0396,6.0396,6.0396,6.0396,6.0396,6.0396,6.0396,6.0396,6.0396,6.0396,6.0396,6.0396,6.0396,6.0396,6.0396,6.0396,6.0396,6.0396,6.0396,6.0396,6.0396,6.0396,6.0396,6.0396,6.0396,6.0396,6.0396,6.0396,6.0396,6.0396,6.0396,6.0396,6.0396,6.0396,6.0396,6.0396,6.0396,6.0629,6.1568,6.1876,6.2337,6.4058,6.4551,6.482,6.5647,6.582,6.5846,6.5878,6.5904,6.5904,6.5904,6.5904,6.6154,6.6923,6.7077,6.7712,6.9417,6.9667,7.0014,7.0802,7.0898,7.0898,7.0898,7.0898,7.0898,7.0898,7.0898,7.0898,7.0898,7.0898,7.0898,7.0898,7.0898,7.0898,7.0898,7.0898,7.0898,7.0898,7.0898,7.0898,4.5093,4.5888,4.6693,4.7508,4.7707,4.7707,4.7707,4.8322,4.9137,4.9938,5.0841,5.1736,5.2463,5.2743,5.2923,5.306,5.3082,5.3103,5.3185,5.3196,5.3196,5.3196,5.3196,5.3196,5.3196,5.4596,5.5852,5.6733,5.8217,5.9484,6.0358,6.0396,6.0396,6.0396,6.0396,6.0396,6.0396,6.0396,6.0396,6.0396,6.0396,6.0396,6.0396,6.0396,6.0396,6.0396,6.0396,6.0396,6.0396,6.0396,6.0396,6.0396,6.0396,6.0396,6.0396,6.0396,6.0396,6.0396,6.0396,6.0396,6.0396,6.0396,6.0396,6.0396,6.0396,6.0396,6.0396,6.0396,6.0778,6.1251,6.168,6.2622,6.3827,6.5135,6.5436,6.5513,6.582,6.5904,6.5904,6.5904,6.5904,6.5904,6.5904,6.6327,6.6769,6.7058,6.8052,6.8994,6.9629,7.0148,7.0571,7.086,7.0898,7.0898,7.0898,7.0898,7.0898,7.0898,7.0898,7.0898,7.0898,7.0898,7.0898,7.0898,7.0898,7.0898,7.0898,7.0898,7.0898,7.0898,7.0898,7.0898,4.555,4.6317,4.7019,4.7562,4.7707,4.7707,4.7707,4.8105,4.8721,4.9528,5.0409,5.1263,5.2025,5.2463,5.2768,5.2966,5.2999,5.306,5.3175,5.3196,5.3196,5.3196,5.3196,5.3196,5.3196,5.424,5.529,5.6284,5.7688,5.8928,5.9911,6.0243,6.0396,6.0396,6.0396,6.0396,6.0396,6.0396,6.0396,6.0396,6.0396,6.0396,6.0396,6.0396,6.0396,6.0396,6.0396,6.0396,6.0396,6.0396,6.0396,6.0396,6.0396,6.0396,6.0396,6.0396,6.0396,6.0396,6.0396,6.0396,6.0396,6.0396,6.0396,6.0396,6.0396,6.0396,6.0396,6.0396,6.0988,6.1683,6.2047,6.3503,6.5043,6.5737,6.5904,6.5904,6.5904,6.5904,6.5904,6.5904,6.5904,6.5904,6.5904,6.6577,6.7192,6.7494,6.8763,6.9802,7.0071,7.0571,7.0898,7.0898,7.0898,7.0898,7.0898,7.0898,7.0898,7.0898,7.0898,7.0898,7.0898,7.0898,7.0898,7.0898,7.0898,7.0898,7.0898,7.0898,7.0898,7.0898,7.0898,7.0898,0.0,0.0,0.0,4.7707,4.7707,4.7707,4.7707,4.7707,4.7924,4.8739,4.951,5.0329,5.1151,5.1948,5.2588,5.2926,5.2999,5.3031,5.3175,5.3196,5.3196,5.3196,5.3196,5.3196,5.3196,5.3494,5.4205,5.5404,5.6611,5.7829,5.905,5.9931,6.0396,6.0396,6.0396,6.0396,6.0396,6.0396,6.0396,6.0396,6.0396,6.0396,6.0396,6.0396,6.0396,6.0396,6.0396,6.0396,6.0396,6.0396,6.0396,6.0396,6.0396,6.0396,6.0396,6.0396,6.0396,6.0396,6.0396,6.0396,6.0396,6.0396,6.0396,6.0396,6.0396,6.0396,6.0396,6.0434,6.1027,6.1862,6.282,6.4419,6.5807,6.5885,6.5904,6.5904,6.5904,6.5904,6.5904,6.5904,6.5904,6.5904,6.5936,6.6596,6.7436,6.8314,6.918,7.0014,7.0802,7.0898,7.0898,7.0898,7.0898,7.0898,7.0898,7.0898,7.0898,7.0898,7.0898,7.0898,7.0898,7.0898,7.0898,7.0898,7.0898,7.0898,7.0898,7.0898,7.0898,7.0898,7.0898,7.0898,4.664,0.0,0.0,0.0,0.0,0.0,4.7707,4.7707,4.7924,4.8739,4.9158,4.9764,5.1054,5.1515,5.1932,5.2607,5.2794,5.2893,5.3031,5.3153,5.3196,5.3196,5.3196,5.3196,5.3196,5.3494,5.4205,5.5404,5.6611,5.7829,5.905,5.9931,6.0396,6.0396,6.0396,6.0396,6.0396,6.0396,6.0396,6.0396,6.0396,6.0396,6.0396,6.0396,6.0396,6.0396,6.0396,6.0396,6.0396,6.0396,6.0396,6.0396,6.0396,6.0396,6.0396,6.0396,6.0396,6.0396,6.0396,6.0396,6.0396,6.0396,6.0396,6.0396,6.0396,6.0396,6.0511,6.1096,6.1879,6.2902,6.4465,6.5275,6.5701,6.5853,6.5904,6.5904,6.5904,6.5904,6.5904,6.5904,6.5904,6.6077,6.6673,6.7475,6.8334,6.9206,7.0033,7.0648,7.0879,7.0898,7.0898,7.0898,7.0898,7.0898,7.0898,7.0898,7.0898,7.0898,7.0898,7.0898,7.0898,7.0898,7.0898,7.0898,7.0898,7.0898,7.0898,7.0898,7.0898,7.0898,7.0898,7.0898,4.7165,4.7551,4.7871,4.7738,0.0,0.0,4.7707,4.7707,4.7833,4.8304,4.8773,4.9363,5.0214,5.0991,5.1639,5.2105,5.2587,5.2904,5.2988,5.3071,5.3143,5.3185,5.3196,5.3196,5.3196,5.3369,5.3905,5.4927,5.6302,5.7843,5.9547,6.0129,6.0396,6.0396,6.0396,6.0396,6.0396,6.0396,6.0396,6.0396,6.0396,6.0396,6.0396,6.0396,6.0396,6.0396,6.0396,6.0396,6.0396,6.0396,6.0396,6.0396,6.0396,6.0396,6.0396,6.0396,6.0396,6.0396,6.0396,6.0396,6.0396,6.0396,6.0396,6.0396,6.0396,6.0396,6.0568,6.1363,6.249,6.3788,6.5214,6.5601,6.5655,6.5846,6.5904,6.5904,6.5904,6.5904,6.5904,6.5904,6.5904,6.6154,6.6962,6.7821,6.8699,6.9571,7.0379,7.0898,7.0898,7.0898,7.0898,7.0898,7.0898,7.0898,7.0898,7.0898,7.0898,7.0898,7.0898,7.0898,7.0898,7.0898,7.0898,7.0898,7.0898,7.0898,7.0898,7.0898,7.0898,7.0898,7.0898,7.0898,4.7801,4.7957,4.7881,4.7738,4.7707,0.0,4.7728,4.7728,4.7728,4.772,4.8405,4.9016,4.9086,5.0346,5.1376,5.1427,5.2236,5.2878,5.298,5.302,5.3071,5.3185,5.3196,5.3196,5.3196,5.3196,5.3491,5.4176,5.586,5.7854,6.0139,6.0358,6.0396,6.0396,6.0396,6.0396,6.0396,6.0396,6.0396,6.0396,6.0396,6.0396,6.0396,6.0396,6.0396,6.0396,6.0396,6.0396,6.0396,6.0396,6.0396,6.0396,6.0396,6.0396,6.0396,6.0396,6.0396,6.0396,6.0396,6.0396,6.0396,6.0396,6.0396,6.0396,6.0396,6.0453,6.0721,6.1631,6.3078,6.4529,6.5374,6.5608,6.5668,6.5865,6.5904,6.5904,6.5904,6.5904,6.5904,6.5904,6.5904,6.6192,6.7096,6.7898,6.8737,6.9687,7.0437,7.0898,7.0898,7.0898,7.0898,7.0898,7.0898,7.0898,7.0898,7.0898,7.0898,7.0898,7.0898,7.0898,7.0898,7.0898,7.0898,7.0898,7.0898,7.0898,7.0898,7.0898,7.0898,7.0898,7.0898,7.0898,4.8005,4.7982,4.7929,4.7741,4.7707,0.0,4.784,4.7861,4.7892,4.7929,4.8168,4.8516,4.8998,4.9505,4.9969,5.0391,5.1249,5.2152,5.2896,5.3092,5.3175,5.3196,5.3196,5.3196,5.3196,5.3196,5.3378,5.3786,5.5927,5.7837,5.9279,6.0014,6.0396,6.0396,6.0396,6.0396,6.0396,6.0396,6.0396,6.0396,6.0396,6.0396,6.0396,6.0396,6.0396,6.0396,6.0396,6.0396,6.0396,6.0396,6.0396,6.0396,6.0396,6.0396,6.0396,6.0396,6.0396,6.0396,6.0396,6.0396,6.0396,6.0396,6.0396,6.0396,6.0396,6.0855,6.1688,6.3243,6.4434,6.5303,6.5542,6.5688,6.5774,6.5878,6.5904,6.5904,6.5904,6.5904,6.5904,6.5904,6.5904,6.6378,6.7891,6.8295,6.8911,7.0437,7.0802,7.0898,7.0898,7.0898,7.0898,7.0898,7.0898,7.0898,7.0898,7.0898,7.0898,7.0898,7.0898,7.0898,7.0898,7.0898,7.0898,7.0898,7.0898,7.0898,7.0898,7.0898,7.0898,7.0898,7.0898,7.0898,4.8052,4.8002,4.7951,4.7752,4.7707,0.0,0.0,4.785,4.7912,4.7937,4.8078,4.8286,4.8606,4.9119,4.9591,4.9864,5.0626,5.1373,5.1847,5.259,5.3143,5.3185,5.3196,5.3261,5.3432,5.3303,5.3586,5.4521,5.6279,5.7829,5.905,5.9931,6.0396,6.0396,6.0396,6.0396,6.0396,6.0396,6.0396,6.0396,6.0396,6.0396,6.0396,6.0396,6.0396,6.0396,6.0396,6.0396,6.0396,6.0396,6.0396,6.0396,6.0396,6.0396,6.0396,6.0396,6.0396,6.0396,6.0396,6.0396,6.0396,6.0396,6.0396,6.0396,6.0396,6.1268,6.2529,6.3835,6.4831,6.5516,6.558,6.5694,6.5813,6.5885,6.5904,6.5904,6.5904,6.5904,6.5904,6.5904,6.5904,6.6436,6.8103,6.8391,6.8968,7.0648,7.0898,7.0898,7.0898,7.0898,7.0898,7.0898,7.0898,7.0898,7.0898,7.0898,7.0898,7.0898,7.0898,7.0898,7.0898,7.0898,7.0898,7.0898,7.0898,7.0898,7.0898,7.0898,7.0898,7.0898,7.0898,7.0898,4.8082,4.8032,4.7982,4.7796,4.7752,4.7762,0.0,0.0,0.0,4.7966,4.8117,4.8217,4.8197,4.8835,4.9344,4.9324,5.0021,5.0563,5.0563,5.1729,5.266,5.2928,5.3104,5.3314,5.3574,5.3367,5.3791,5.5266,5.6342,5.7514,5.8802,5.9682,6.0224,6.0396,6.0396,6.0396,6.0396,6.0396,6.0396,6.0396,6.0396,6.0396,6.0396,6.0396,6.0396,6.0396,6.0396,6.0396,6.0396,6.0396,6.0396,6.0396,6.0396,6.0396,6.0396,6.0396,6.0396,6.0396,6.0396,6.0396,6.0396,6.0396,6.0492,6.0663,6.0835,6.1936,6.3331,6.4198,6.4953,6.553,6.5587,6.5708,6.5826,6.5885,6.5904,6.5904,6.5904,6.5904,6.5904,6.5904,6.5904,6.6436,6.8103,6.8391,6.8968,7.0648,7.0898,7.0898,7.0898,7.0898,7.0898,7.0898,7.0898,7.0898,7.0898,7.0898,7.0898,7.0898,7.0898,7.0898,7.0898,7.0898,7.0898,7.0898,7.0898,7.0898,7.0898,7.0898,7.0898,7.0898,7.0898,7.0898,4.8207,4.8177,4.8148,4.801,4.7962,4.801,4.8118,0.0,4.8177,4.8247,0.0,4.8276,4.8207,0.0,0.0,4.8373,4.912,4.9729,4.9729,5.048,5.1324,5.205,5.2766,5.3217,5.3251,5.3227,5.3659,5.4791,5.5395,5.639,5.7955,5.8816,5.9606,6.0377,6.0396,6.0396,6.0396,6.0396,6.0396,6.0396,6.0396,6.0396,6.0396,6.0396,6.0396,6.0396,6.0396,6.0396,6.0396,6.0396,6.0396,6.0396,6.0396,6.0396,6.0396,6.0396,6.0396,6.0396,6.0396,6.0396,6.0396,6.0396,6.0874,6.1612,6.2369,6.3293,6.4217,6.5031,6.5422,6.5587,6.5594,6.5742,6.5891,6.5897,6.5904,6.5904,6.5904,6.5904,6.5904,6.5904,6.5904,6.6436,6.8103,6.8391,6.8968,7.0648,7.0898,7.0898,7.0898,7.0898,7.0898,7.0898,7.0898,7.0898,7.0898,7.0898,7.0898,7.0898,7.0898,7.0898,7.0898,7.0898,7.0898,7.0898,7.0898,7.0898,7.0898,7.0898,7.0898,7.0898,7.0898,7.0898,4.8217,4.8197,4.8168,4.8032,4.8002,4.8012,4.807,4.813,4.8207,4.8246,0.0,0.0,0.0,0.0,0.0,0.0,4.8589,4.8838,4.8838,4.9564,5.0573,5.1858,5.2289,5.2749,5.3417,5.3502,5.3861,5.4739,5.5228,5.6191,5.7821,5.8663,5.951,6.0377,6.0396,6.0396,6.0396,6.0396,6.0396,6.0396,6.0396,6.0396,6.0396,6.0396,6.0396,6.0396,6.0396,6.0396,6.0396,6.0396,6.0396,6.0396,6.0396,6.0396,6.0396,6.0396,6.0396,6.0396,6.0396,6.0396,6.0396,6.0396,6.0943,6.1765,6.2636,6.3503,6.437,6.5165,6.5506,6.5601,6.5601,6.5755,6.5904,6.5904,6.5904,6.5904,6.5904,6.5904,6.5904,6.5904,6.5904,6.6436,6.8103,6.8391,6.8968,7.0648,7.0898,7.0898,7.0898,7.0898,7.0898,7.0898,7.0898,7.0898,7.0898,7.0898,7.0898,7.0898,7.0898,7.0898,7.0898,7.0898,7.0898,7.0898,7.0898,7.0898,7.0898,7.0898,7.0898,7.0898,7.0898,7.0898,4.8659,4.8584,4.8491,4.8175,4.8082,4.8082,4.8082,4.8159,4.8236,4.8236,4.8267,0.0,0.0,0.0,4.8448,4.8448,0.0,4.8577,4.8577,4.9113,4.9962,5.121,5.1823,5.2543,5.3569,5.3785,5.4174,5.4918,5.5168,5.5965,5.7458,5.8326,5.9166,6.0014,6.0281,6.0396,6.0396,6.0396,6.0396,6.0396,6.0396,6.0396,6.0396,6.0396,6.0396,6.0396,6.0396,6.0396,6.0396,6.0396,6.0396,6.0396,6.0396,6.0396,6.0396,6.0396,6.0396,6.0396,6.0396,6.0396,6.0396,6.0396,6.1122,6.207,6.2712,6.3656,6.4657,6.5242,6.5472,6.5573,6.5594,6.5735,6.5878,6.5897,6.5904,6.5904,6.5904,6.5904,6.5904,6.5904,6.5904,6.6436,6.8103,6.8391,6.8968,7.0648,7.0898,7.0898,7.0898,7.0898,7.0898,7.0898,7.0898,7.0898,7.0898,7.0898,7.0898,7.0898,7.0898,7.0898,7.0898,7.0898,7.0898,7.0898,7.0898,7.0898,7.0898,7.0898,7.0898,7.0898,7.0898,7.0898,4.9766,4.9564,4.9344,4.8498,4.8287,4.8287,4.8287,4.8296,4.8296,4.8296,4.8296,4.8296,4.8296,4.8578,4.879,4.879,4.9056,0.0,0.0,4.9298,4.9405,4.9643,5.1332,5.2783,5.3535,5.4019,5.4586,5.5325,5.5035,5.5349,5.6581,5.7466,5.8307,5.9121,5.995,6.0396,6.0396,6.0396,6.0396,6.0396,6.0396,6.0396,6.0396,6.0396,6.0396,6.0396,6.0396,6.0396,6.0396,6.0396,6.0396,6.0396,6.0396,6.0396,6.0396,6.0396,6.0396,6.0396,6.0396,6.0396,6.0396,6.0396,6.1516,6.2865,6.2884,6.4057,6.5375,6.5394,6.5454,6.5516,6.558,6.5701,6.5813,6.5885,6.5904,6.5904,6.5904,6.5904,6.5904,6.5904,6.5904,6.6436,6.8103,6.8391,6.8968,7.0648,7.0898,7.0898,7.0898,7.0898,7.0898,7.0898,7.0898,7.0898,7.0898,7.0898,7.0898,7.0898,7.0898,7.0898,7.0898,7.0898,7.0898,7.0898,7.0898,7.0898,7.0898,7.0898,7.0898,7.0898,7.0898,7.0898,5.0472,5.038,5.0196,4.9362,4.916,4.9013,4.8434,4.8296,4.8296,4.8296,4.8296,4.8296,4.8296,4.8568,4.8807,4.8807,4.908,4.9291,0.0,4.9291,4.9404,4.9707,5.105,5.2402,5.3485,5.3507,5.3972,5.53,5.5031,5.5325,5.6542,5.7434,5.8268,5.9064,5.995,6.0396,6.0396,6.0396,6.0396,6.0396,6.0396,6.0396,6.0396,6.0396,6.0396,6.0396,6.0396,6.0396,6.0396,6.0396,6.0396,6.0396,6.0396,6.0396,6.0396,6.0396,6.0396,6.0396,6.0396,6.0396,6.0492,6.1019,6.1975,6.2999,6.3579,6.4535,6.5394,6.5394,6.5491,6.5573,6.5594,6.5735,6.5872,6.5897,6.5904,6.5904,6.5904,6.5904,6.5904,6.5904,6.5904,6.6436,6.8103,6.8391,6.8968,7.0648,7.0898,7.0898,7.0898,7.0898,7.0898,7.0898,7.0898,7.0898,7.0898,7.0898,7.0898,7.0898,7.0898,7.0898,7.0898,7.0898,7.0898,7.0898,7.0898,7.0898,7.0898,7.0898,7.0898,7.0898,7.0898,7.0898,5.1298,5.1224,5.1022,5.0225,5.0023,4.9802,4.8948,4.8765,4.8673,4.8351,4.8296,4.8296,4.8296,4.8568,4.885,4.8967,4.9263,4.952,0.0,4.966,4.973,4.9955,5.087,5.1975,5.3209,5.3233,5.3793,5.5288,5.5031,5.5204,5.6116,5.7275,5.8135,5.8663,5.9804,6.0396,6.0396,6.0396,6.0396,6.0396,6.0396,6.0396,6.0396,6.0396,6.0396,6.0396,6.0396,6.0396,6.0396,6.0396,6.0396,6.0396,6.0396,6.0396,6.0396,6.0396,6.0396,6.0396,6.0396,6.0587,6.0905,6.144,6.2395,6.3465,6.4026,6.4771,6.5337,6.505,6.5262,6.5496,6.523,6.5524,6.5872,6.5897,6.5904,6.5904,6.5904,6.5904,6.5904,6.5904,6.5904,6.6436,6.8103,6.8391,6.8968,7.0648,7.0898,7.0898,7.0898,7.0898,7.0898,7.0898,7.0898,7.0898,7.0898,7.0898,7.0898,7.0898,7.0898,7.0898,7.0898,7.0898,7.1052,7.136,7.1052,7.1052,7.136,7.1052,7.0898,7.0898,7.0898,7.0898]}]]